<?xml version='1.0' encoding='UTF-8'?><gpx version="1.1" creator="JPX - https://github.com/jenetics/jpx" xmlns="http://www.topografix.com/GPX/1/1"><trk><trkseg><trkpt lat="42.3299289" lon="13.4831229"><ele>583.0</ele><time>2026-04-26T08:02:00.089Z</time></trkpt><trkpt lat="42.329874" lon="13.4832982"><ele>583.0</ele><time>2026-04-26T08:02:01.088Z</time></trkpt><trkpt lat="42.3298218" lon="13.4834766"><ele>583.0</ele><time>2026-04-26T08:02:02.088Z</time></trkpt><trkpt lat="42.3297686" lon="13.4836573"><ele>583.0</ele><time>2026-04-26T08:02:03.088Z</time></trkpt><trkpt lat="42.3297105" lon="13.483863"><ele>582.3333333333334</ele><time>2026-04-26T08:02:04.475Z</time></trkpt><trkpt lat="42.3296473" lon="13.4840768"><ele>581.6666666666666</ele><time>2026-04-26T08:02:05.559Z</time></trkpt><trkpt lat="42.329579" lon="13.4843173"><ele>581.0</ele><time>2026-04-26T08:02:06.719Z</time></trkpt><trkpt lat="42.329472" lon="13.4846786"><ele>580.6666666666666</ele><time>2026-04-26T08:02:08.543Z</time></trkpt><trkpt lat="42.3294123" lon="13.4848634"><ele>580.3333333333334</ele><time>2026-04-26T08:02:09.512Z</time></trkpt><trkpt lat="42.3293521" lon="13.4850554"><ele>580.0</ele><time>2026-04-26T08:02:10.503Z</time></trkpt><trkpt lat="42.329287" lon="13.4852893"><ele>580.5</ele><time>2026-04-26T08:02:11.649Z</time></trkpt><trkpt lat="42.3291701" lon="13.4856913"><ele>581.0</ele><time>2026-04-26T08:02:13.519Z</time></trkpt><trkpt lat="42.3291101" lon="13.4858941"><ele>581.0</ele><time>2026-04-26T08:02:14.475Z</time></trkpt><trkpt lat="42.3290463" lon="13.4860959"><ele>581.0</ele><time>2026-04-26T08:02:15.519Z</time></trkpt><trkpt lat="42.3289926" lon="13.4862756"><ele>581.0</ele><time>2026-04-26T08:02:16.49Z</time></trkpt><trkpt lat="42.328935" lon="13.4864748"><ele>580.3333333333333</ele><time>2026-04-26T08:02:17.526Z</time></trkpt><trkpt lat="42.3288782" lon="13.486665"><ele>579.6666666666666</ele><time>2026-04-26T08:02:18.515Z</time></trkpt><trkpt lat="42.3288224" lon="13.4868544"><ele>579.0</ele><time>2026-04-26T08:02:19.499Z</time></trkpt><trkpt lat="42.3287663" lon="13.4870541"><ele>578.6666666666666</ele><time>2026-04-26T08:02:20.497Z</time></trkpt><trkpt lat="42.328706" lon="13.4872679"><ele>578.3333333333333</ele><time>2026-04-26T08:02:21.526Z</time></trkpt><trkpt lat="42.3286459" lon="13.4874686"><ele>578.0</ele><time>2026-04-26T08:02:22.502Z</time></trkpt><trkpt lat="42.3285897" lon="13.4876664"><ele>578.0</ele><time>2026-04-26T08:02:23.495Z</time></trkpt><trkpt lat="42.3285301" lon="13.4878741"><ele>578.0</ele><time>2026-04-26T08:02:24.569Z</time></trkpt><trkpt lat="42.3284776" lon="13.4880493"><ele>578.0</ele><time>2026-04-26T08:02:25.514Z</time></trkpt><trkpt lat="42.3284255" lon="13.4882293"><ele>578.0</ele><time>2026-04-26T08:02:26.532Z</time></trkpt><trkpt lat="42.3283799" lon="13.4883918"><ele>578.0</ele><time>2026-04-26T08:02:27.537Z</time></trkpt><trkpt lat="42.3283362" lon="13.4885337"><ele>578.0</ele><time>2026-04-26T08:02:28.495Z</time></trkpt><trkpt lat="42.3282939" lon="13.4886679"><ele>578.0</ele><time>2026-04-26T08:02:29.483Z</time></trkpt><trkpt lat="42.3282498" lon="13.4888027"><ele>578.0</ele><time>2026-04-26T08:02:30.533Z</time></trkpt><trkpt lat="42.3282104" lon="13.4889297"><ele>578.0</ele><time>2026-04-26T08:02:31.538Z</time></trkpt><trkpt lat="42.328172" lon="13.4890539"><ele>577.8</ele><time>2026-04-26T08:02:32.551Z</time></trkpt><trkpt lat="42.3281348" lon="13.4891895"><ele>577.5999999999999</ele><time>2026-04-26T08:02:33.613Z</time></trkpt><trkpt lat="42.3281001" lon="13.4893042"><ele>577.4000000000001</ele><time>2026-04-26T08:02:34.521Z</time></trkpt><trkpt lat="42.3280582" lon="13.4894419"><ele>577.2</ele><time>2026-04-26T08:02:35.589Z</time></trkpt><trkpt lat="42.3280218" lon="13.4895659"><ele>577.0</ele><time>2026-04-26T08:02:36.536Z</time></trkpt><trkpt lat="42.3279839" lon="13.4896923"><ele>576.8000000000001</ele><time>2026-04-26T08:02:37.505Z</time></trkpt><trkpt lat="42.3279386" lon="13.4898341"><ele>576.6</ele><time>2026-04-26T08:02:38.627Z</time></trkpt><trkpt lat="42.3279039" lon="13.4899531"><ele>576.4000000000001</ele><time>2026-04-26T08:02:39.528Z</time></trkpt><trkpt lat="42.3278656" lon="13.490086"><ele>576.2</ele><time>2026-04-26T08:02:40.565Z</time></trkpt><trkpt lat="42.3278278" lon="13.4902078"><ele>576.0</ele><time>2026-04-26T08:02:41.574Z</time></trkpt><trkpt lat="42.3277922" lon="13.4903294"><ele>576.2</ele><time>2026-04-26T08:02:42.539Z</time></trkpt><trkpt lat="42.3277575" lon="13.4904535"><ele>576.4000000000001</ele><time>2026-04-26T08:02:43.524Z</time></trkpt><trkpt lat="42.3277183" lon="13.4905799"><ele>576.6</ele><time>2026-04-26T08:02:44.527Z</time></trkpt><trkpt lat="42.3276786" lon="13.4907088"><ele>576.8000000000001</ele><time>2026-04-26T08:02:45.562Z</time></trkpt><trkpt lat="42.32764" lon="13.4908392"><ele>577.0</ele><time>2026-04-26T08:02:46.586Z</time></trkpt><trkpt lat="42.3276033" lon="13.490973"><ele>577.0</ele><time>2026-04-26T08:02:47.569Z</time></trkpt><trkpt lat="42.3275652" lon="13.4911001"><ele>577.0</ele><time>2026-04-26T08:02:48.597Z</time></trkpt><trkpt lat="42.3275302" lon="13.4912148"><ele>577.0</ele><time>2026-04-26T08:02:49.549Z</time></trkpt><trkpt lat="42.3274926" lon="13.4913349"><ele>577.0</ele><time>2026-04-26T08:02:50.544Z</time></trkpt><trkpt lat="42.3274541" lon="13.4914602"><ele>577.0</ele><time>2026-04-26T08:02:51.556Z</time></trkpt><trkpt lat="42.3274148" lon="13.491583"><ele>577.0</ele><time>2026-04-26T08:02:52.545Z</time></trkpt><trkpt lat="42.3273727" lon="13.491715"><ele>577.0</ele><time>2026-04-26T08:02:53.588Z</time></trkpt><trkpt lat="42.3273348" lon="13.4918377"><ele>577.0</ele><time>2026-04-26T08:02:54.54Z</time></trkpt><trkpt lat="42.3272934" lon="13.4919696"><ele>577.0</ele><time>2026-04-26T08:02:55.542Z</time></trkpt><trkpt lat="42.3272526" lon="13.4921056"><ele>577.0</ele><time>2026-04-26T08:02:56.545Z</time></trkpt><trkpt lat="42.32721" lon="13.4922454"><ele>576.75</ele><time>2026-04-26T08:02:57.569Z</time></trkpt><trkpt lat="42.3271723" lon="13.4923803"><ele>576.5</ele><time>2026-04-26T08:02:58.539Z</time></trkpt><trkpt lat="42.3271279" lon="13.4925322"><ele>576.25</ele><time>2026-04-26T08:02:59.564Z</time></trkpt><trkpt lat="42.3270784" lon="13.4926873"><ele>576.0</ele><time>2026-04-26T08:03:00.551Z</time></trkpt><trkpt lat="42.3270242" lon="13.4928586"><ele>575.75</ele><time>2026-04-26T08:03:01.59Z</time></trkpt><trkpt lat="42.3269721" lon="13.4930361"><ele>575.5</ele><time>2026-04-26T08:03:02.631Z</time></trkpt><trkpt lat="42.3269225" lon="13.4931979"><ele>575.25</ele><time>2026-04-26T08:03:03.553Z</time></trkpt><trkpt lat="42.3268675" lon="13.4933796"><ele>575.0</ele><time>2026-04-26T08:03:04.556Z</time></trkpt><trkpt lat="42.3268127" lon="13.4935584"><ele>575.0</ele><time>2026-04-26T08:03:05.581Z</time></trkpt><trkpt lat="42.3267634" lon="13.4937284"><ele>575.0</ele><time>2026-04-26T08:03:06.587Z</time></trkpt><trkpt lat="42.3267169" lon="13.4938824"><ele>575.0</ele><time>2026-04-26T08:03:07.528Z</time></trkpt><trkpt lat="42.326666" lon="13.4940481"><ele>575.0</ele><time>2026-04-26T08:03:08.563Z</time></trkpt><trkpt lat="42.3266161" lon="13.4942163"><ele>575.5</ele><time>2026-04-26T08:03:09.595Z</time></trkpt><trkpt lat="42.3265708" lon="13.4943697"><ele>576.0</ele><time>2026-04-26T08:03:10.543Z</time></trkpt><trkpt lat="42.3265199" lon="13.4945451"><ele>576.5</ele><time>2026-04-26T08:03:11.6Z</time></trkpt><trkpt lat="42.3264724" lon="13.4947055"><ele>577.0</ele><time>2026-04-26T08:03:12.542Z</time></trkpt><trkpt lat="42.3264177" lon="13.4948786"><ele>577.25</ele><time>2026-04-26T08:03:13.537Z</time></trkpt><trkpt lat="42.3263608" lon="13.4950647"><ele>577.5</ele><time>2026-04-26T08:03:14.558Z</time></trkpt><trkpt lat="42.3263041" lon="13.4952525"><ele>577.75</ele><time>2026-04-26T08:03:15.55Z</time></trkpt><trkpt lat="42.3262495" lon="13.495436"><ele>578.0</ele><time>2026-04-26T08:03:16.566Z</time></trkpt><trkpt lat="42.326197" lon="13.4956128"><ele>578.0</ele><time>2026-04-26T08:03:17.563Z</time></trkpt><trkpt lat="42.326146" lon="13.495789"><ele>578.0</ele><time>2026-04-26T08:03:18.569Z</time></trkpt><trkpt lat="42.3261014" lon="13.4959581"><ele>578.0</ele><time>2026-04-26T08:03:19.587Z</time></trkpt><trkpt lat="42.3260638" lon="13.4961097"><ele>578.0</ele><time>2026-04-26T08:03:20.564Z</time></trkpt><trkpt lat="42.3260274" lon="13.4962588"><ele>578.4</ele><time>2026-04-26T08:03:21.623Z</time></trkpt><trkpt lat="42.3259984" lon="13.4963857"><ele>578.8</ele><time>2026-04-26T08:03:22.544Z</time></trkpt><trkpt lat="42.3259706" lon="13.4965145"><ele>579.2</ele><time>2026-04-26T08:03:23.545Z</time></trkpt><trkpt lat="42.3259481" lon="13.4966433"><ele>579.6</ele><time>2026-04-26T08:03:24.555Z</time></trkpt><trkpt lat="42.3259258" lon="13.4967667"><ele>580.0</ele><time>2026-04-26T08:03:25.569Z</time></trkpt><trkpt lat="42.3258956" lon="13.4968839"><ele>580.0</ele><time>2026-04-26T08:03:26.553Z</time></trkpt><trkpt lat="42.3258496" lon="13.4969917"><ele>580.0</ele><time>2026-04-26T08:03:27.57Z</time></trkpt><trkpt lat="42.3258104" lon="13.4970845"><ele>580.0</ele><time>2026-04-26T08:03:28.55Z</time></trkpt><trkpt lat="42.325789" lon="13.4971765"><ele>580.0</ele><time>2026-04-26T08:03:29.518Z</time></trkpt><trkpt lat="42.3257964" lon="13.4972894"><ele>580.0</ele><time>2026-04-26T08:03:30.572Z</time></trkpt><trkpt lat="42.3258228" lon="13.4974058"><ele>580.0</ele><time>2026-04-26T08:03:31.534Z</time></trkpt><trkpt lat="42.3258408" lon="13.4975404"><ele>581.5</ele><time>2026-04-26T08:03:32.557Z</time></trkpt><trkpt lat="42.325831" lon="13.4976919"><ele>583.0</ele><time>2026-04-26T08:03:33.555Z</time></trkpt><trkpt lat="42.3258061" lon="13.4978957"><ele>584.5</ele><time>2026-04-26T08:03:34.597Z</time></trkpt><trkpt lat="42.3257724" lon="13.4981365"><ele>586.0</ele><time>2026-04-26T08:03:35.54Z</time></trkpt><trkpt lat="42.325747" lon="13.4984733"><ele>590.5</ele><time>2026-04-26T08:03:36.59Z</time></trkpt><trkpt lat="42.3256933" lon="13.4990163"><ele>595.0</ele><time>2026-04-26T08:03:38.409Z</time></trkpt><trkpt lat="42.3256678" lon="13.4992722"><ele>595.0</ele><time>2026-04-26T08:03:39.401Z</time></trkpt><trkpt lat="42.3256415" lon="13.4995174"><ele>595.0</ele><time>2026-04-26T08:03:40.449Z</time></trkpt><trkpt lat="42.3256156" lon="13.4997308"><ele>595.0</ele><time>2026-04-26T08:03:41.435Z</time></trkpt><trkpt lat="42.325591" lon="13.4999489"><ele>594.5</ele><time>2026-04-26T08:03:42.427Z</time></trkpt><trkpt lat="42.3255623" lon="13.5002115"><ele>594.0</ele><time>2026-04-26T08:03:43.561Z</time></trkpt><trkpt lat="42.3255281" lon="13.5006828"><ele>594.0</ele><time>2026-04-26T08:03:45.453Z</time></trkpt><trkpt lat="42.3255059" lon="13.5009452"><ele>594.0</ele><time>2026-04-26T08:03:46.39Z</time></trkpt><trkpt lat="42.3254802" lon="13.5012624"><ele>594.0</ele><time>2026-04-26T08:03:47.4Z</time></trkpt><trkpt lat="42.3254504" lon="13.501617"><ele>595.0</ele><time>2026-04-26T08:03:48.436Z</time></trkpt><trkpt lat="42.3254134" lon="13.5019724"><ele>596.0</ele><time>2026-04-26T08:03:49.424Z</time></trkpt><trkpt lat="42.3253802" lon="13.5022846"><ele>597.3333333333333</ele><time>2026-04-26T08:03:50.404Z</time></trkpt><trkpt lat="42.3253414" lon="13.5025913"><ele>598.6666666666666</ele><time>2026-04-26T08:03:51.43Z</time></trkpt><trkpt lat="42.3253014" lon="13.5028655"><ele>600.0</ele><time>2026-04-26T08:03:52.408Z</time></trkpt><trkpt lat="42.3252595" lon="13.5032072"><ele>603.0</ele><time>2026-04-26T08:03:53.583Z</time></trkpt><trkpt lat="42.3252135" lon="13.5037762"><ele>606.0</ele><time>2026-04-26T08:03:55.473Z</time></trkpt><trkpt lat="42.3251964" lon="13.5040702"><ele>606.0</ele><time>2026-04-26T08:03:56.439Z</time></trkpt><trkpt lat="42.3251727" lon="13.5043969"><ele>606.0</ele><time>2026-04-26T08:03:57.435Z</time></trkpt><trkpt lat="42.325141" lon="13.5047149"><ele>609.0</ele><time>2026-04-26T08:03:58.414Z</time></trkpt><trkpt lat="42.3251051" lon="13.5050416"><ele>612.0</ele><time>2026-04-26T08:03:59.425Z</time></trkpt><trkpt lat="42.3250641" lon="13.5053549"><ele>614.0</ele><time>2026-04-26T08:04:00.394Z</time></trkpt><trkpt lat="42.3250203" lon="13.5056976"><ele>616.0</ele><time>2026-04-26T08:04:01.429Z</time></trkpt><trkpt lat="42.3249845" lon="13.5060341"><ele>618.0</ele><time>2026-04-26T08:04:02.451Z</time></trkpt><trkpt lat="42.324955" lon="13.5063575"><ele>620.0</ele><time>2026-04-26T08:04:03.435Z</time></trkpt><trkpt lat="42.3249219" lon="13.5066833"><ele>620.0</ele><time>2026-04-26T08:04:04.432Z</time></trkpt><trkpt lat="42.3248902" lon="13.5070056"><ele>620.0</ele><time>2026-04-26T08:04:05.424Z</time></trkpt><trkpt lat="42.3248605" lon="13.5073207"><ele>622.0</ele><time>2026-04-26T08:04:06.405Z</time></trkpt><trkpt lat="42.3248338" lon="13.5076358"><ele>624.0</ele><time>2026-04-26T08:04:07.425Z</time></trkpt><trkpt lat="42.3248036" lon="13.507959"><ele>625.0</ele><time>2026-04-26T08:04:08.495Z</time></trkpt><trkpt lat="42.3247508" lon="13.5085382"><ele>626.0</ele><time>2026-04-26T08:04:10.445Z</time></trkpt><trkpt lat="42.3247232" lon="13.5088313"><ele>626.0</ele><time>2026-04-26T08:04:11.434Z</time></trkpt><trkpt lat="42.3246948" lon="13.5091224"><ele>626.0</ele><time>2026-04-26T08:04:12.419Z</time></trkpt><trkpt lat="42.3246647" lon="13.5094149"><ele>626.0</ele><time>2026-04-26T08:04:13.426Z</time></trkpt><trkpt lat="42.3246398" lon="13.5096752"><ele>627.3333333333333</ele><time>2026-04-26T08:04:14.412Z</time></trkpt><trkpt lat="42.3246157" lon="13.5099205"><ele>628.6666666666666</ele><time>2026-04-26T08:04:15.479Z</time></trkpt><trkpt lat="42.3245934" lon="13.5101302"><ele>630.0</ele><time>2026-04-26T08:04:16.4Z</time></trkpt><trkpt lat="42.3245703" lon="13.5103797"><ele>631.0</ele><time>2026-04-26T08:04:17.428Z</time></trkpt><trkpt lat="42.3245471" lon="13.5106341"><ele>632.0</ele><time>2026-04-26T08:04:18.428Z</time></trkpt><trkpt lat="42.3245238" lon="13.5108981"><ele>633.0</ele><time>2026-04-26T08:04:19.424Z</time></trkpt><trkpt lat="42.3244964" lon="13.5111732"><ele>634.3333333333334</ele><time>2026-04-26T08:04:20.426Z</time></trkpt><trkpt lat="42.3244713" lon="13.511443"><ele>635.6666666666667</ele><time>2026-04-26T08:04:21.388Z</time></trkpt><trkpt lat="42.324447" lon="13.5117324"><ele>637.0</ele><time>2026-04-26T08:04:22.44Z</time></trkpt><trkpt lat="42.3244258" lon="13.512016"><ele>637.3333333333334</ele><time>2026-04-26T08:04:23.562Z</time></trkpt><trkpt lat="42.3244076" lon="13.5122373"><ele>637.6666666666666</ele><time>2026-04-26T08:04:24.498Z</time></trkpt><trkpt lat="42.3243895" lon="13.5124535"><ele>638.0</ele><time>2026-04-26T08:04:25.413Z</time></trkpt><trkpt lat="42.3243693" lon="13.5126914"><ele>638.6666666666666</ele><time>2026-04-26T08:04:26.413Z</time></trkpt><trkpt lat="42.3243506" lon="13.512931"><ele>639.3333333333334</ele><time>2026-04-26T08:04:27.393Z</time></trkpt><trkpt lat="42.3243312" lon="13.5131897"><ele>640.0</ele><time>2026-04-26T08:04:28.432Z</time></trkpt><trkpt lat="42.3243103" lon="13.513434"><ele>640.0</ele><time>2026-04-26T08:04:29.396Z</time></trkpt><trkpt lat="42.324287" lon="13.5136951"><ele>640.0</ele><time>2026-04-26T08:04:30.413Z</time></trkpt><trkpt lat="42.3242644" lon="13.5139578"><ele>640.0</ele><time>2026-04-26T08:04:31.424Z</time></trkpt><trkpt lat="42.3242435" lon="13.5142233"><ele>640.6666666666667</ele><time>2026-04-26T08:04:32.435Z</time></trkpt><trkpt lat="42.3242247" lon="13.5144853"><ele>641.3333333333334</ele><time>2026-04-26T08:04:33.42Z</time></trkpt><trkpt lat="42.3242036" lon="13.514755"><ele>642.0</ele><time>2026-04-26T08:04:34.43Z</time></trkpt><trkpt lat="42.3241802" lon="13.5150185"><ele>643.3333333333334</ele><time>2026-04-26T08:04:35.411Z</time></trkpt><trkpt lat="42.3241568" lon="13.5152909"><ele>644.6666666666667</ele><time>2026-04-26T08:04:36.42Z</time></trkpt><trkpt lat="42.3241344" lon="13.5155574"><ele>646.0</ele><time>2026-04-26T08:04:37.4Z</time></trkpt><trkpt lat="42.3241081" lon="13.5158644"><ele>646.6666666666667</ele><time>2026-04-26T08:04:38.519Z</time></trkpt><trkpt lat="42.3240847" lon="13.5161344"><ele>647.3333333333334</ele><time>2026-04-26T08:04:39.486Z</time></trkpt><trkpt lat="42.3240609" lon="13.5164142"><ele>648.0</ele><time>2026-04-26T08:04:40.484Z</time></trkpt><trkpt lat="42.3240367" lon="13.5166925"><ele>649.0</ele><time>2026-04-26T08:04:41.471Z</time></trkpt><trkpt lat="42.3240108" lon="13.5169798"><ele>650.0</ele><time>2026-04-26T08:04:42.474Z</time></trkpt><trkpt lat="42.3239855" lon="13.5172752"><ele>651.0</ele><time>2026-04-26T08:04:43.485Z</time></trkpt><trkpt lat="42.3239598" lon="13.5175861"><ele>652.3333333333334</ele><time>2026-04-26T08:04:44.532Z</time></trkpt><trkpt lat="42.3239344" lon="13.5178759"><ele>653.6666666666667</ele><time>2026-04-26T08:04:45.494Z</time></trkpt><trkpt lat="42.3239096" lon="13.5181749"><ele>655.0</ele><time>2026-04-26T08:04:46.481Z</time></trkpt><trkpt lat="42.3238833" lon="13.5184829"><ele>657.5</ele><time>2026-04-26T08:04:47.492Z</time></trkpt><trkpt lat="42.3238591" lon="13.518792"><ele>660.0</ele><time>2026-04-26T08:04:48.5Z</time></trkpt><trkpt lat="42.3238332" lon="13.5191208"><ele>660.0</ele><time>2026-04-26T08:04:49.564Z</time></trkpt><trkpt lat="42.3238085" lon="13.5194176"><ele>660.0</ele><time>2026-04-26T08:04:50.521Z</time></trkpt><trkpt lat="42.3237806" lon="13.5197243"><ele>660.0</ele><time>2026-04-26T08:04:51.51Z</time></trkpt><trkpt lat="42.3237564" lon="13.5200231"><ele>661.5</ele><time>2026-04-26T08:04:52.477Z</time></trkpt><trkpt lat="42.3237313" lon="13.5203336"><ele>663.0</ele><time>2026-04-26T08:04:53.495Z</time></trkpt><trkpt lat="42.323709" lon="13.5206395"><ele>664.0</ele><time>2026-04-26T08:04:54.497Z</time></trkpt><trkpt lat="42.3236857" lon="13.5209457"><ele>665.0</ele><time>2026-04-26T08:04:55.504Z</time></trkpt><trkpt lat="42.3236617" lon="13.5212523"><ele>665.5</ele><time>2026-04-26T08:04:56.506Z</time></trkpt><trkpt lat="42.3236378" lon="13.5215518"><ele>666.0</ele><time>2026-04-26T08:04:57.49Z</time></trkpt><trkpt lat="42.3236118" lon="13.5218593"><ele>668.0</ele><time>2026-04-26T08:04:58.496Z</time></trkpt><trkpt lat="42.3235861" lon="13.5221749"><ele>670.0</ele><time>2026-04-26T08:04:59.524Z</time></trkpt><trkpt lat="42.3235794" lon="13.5224663"><ele>670.0</ele><time>2026-04-26T08:05:00.473Z</time></trkpt><trkpt lat="42.3236018" lon="13.5227753"><ele>670.0</ele><time>2026-04-26T08:05:01.5Z</time></trkpt><trkpt lat="42.3236483" lon="13.5230616"><ele>670.0</ele><time>2026-04-26T08:05:02.475Z</time></trkpt><trkpt lat="42.3236999" lon="13.5233531"><ele>671.0</ele><time>2026-04-26T08:05:03.485Z</time></trkpt><trkpt lat="42.3237434" lon="13.5236446"><ele>672.0</ele><time>2026-04-26T08:05:04.496Z</time></trkpt><trkpt lat="42.3237836" lon="13.523936"><ele>673.0</ele><time>2026-04-26T08:05:05.508Z</time></trkpt><trkpt lat="42.3238323" lon="13.5242199"><ele>674.3333333333334</ele><time>2026-04-26T08:05:06.508Z</time></trkpt><trkpt lat="42.3238809" lon="13.5245039"><ele>675.6666666666666</ele><time>2026-04-26T08:05:07.513Z</time></trkpt><trkpt lat="42.3239226" lon="13.5247935"><ele>677.0</ele><time>2026-04-26T08:05:08.523Z</time></trkpt><trkpt lat="42.3239669" lon="13.5250754"><ele>680.6666666666666</ele><time>2026-04-26T08:05:09.499Z</time></trkpt><trkpt lat="42.3240159" lon="13.5253693"><ele>684.3333333333334</ele><time>2026-04-26T08:05:10.515Z</time></trkpt><trkpt lat="42.3240648" lon="13.5256617"><ele>688.0</ele><time>2026-04-26T08:05:11.518Z</time></trkpt><trkpt lat="42.3241125" lon="13.5259535"><ele>690.0</ele><time>2026-04-26T08:05:12.525Z</time></trkpt><trkpt lat="42.3241581" lon="13.5262403"><ele>692.0</ele><time>2026-04-26T08:05:13.507Z</time></trkpt><trkpt lat="42.3242026" lon="13.5265383"><ele>694.0</ele><time>2026-04-26T08:05:14.535Z</time></trkpt><trkpt lat="42.324243" lon="13.5268227"><ele>695.0</ele><time>2026-04-26T08:05:15.49Z</time></trkpt><trkpt lat="42.3242774" lon="13.5271218"><ele>696.0</ele><time>2026-04-26T08:05:16.501Z</time></trkpt><trkpt lat="42.3243088" lon="13.5274303"><ele>696.0</ele><time>2026-04-26T08:05:17.531Z</time></trkpt><trkpt lat="42.3243396" lon="13.5277287"><ele>696.0</ele><time>2026-04-26T08:05:18.522Z</time></trkpt><trkpt lat="42.3243712" lon="13.5280305"><ele>696.0</ele><time>2026-04-26T08:05:19.521Z</time></trkpt><trkpt lat="42.3244058" lon="13.5283314"><ele>698.5</ele><time>2026-04-26T08:05:20.51Z</time></trkpt><trkpt lat="42.3244438" lon="13.5286465"><ele>701.0</ele><time>2026-04-26T08:05:21.533Z</time></trkpt><trkpt lat="42.3244705" lon="13.5289402"><ele>701.6666666666666</ele><time>2026-04-26T08:05:22.534Z</time></trkpt><trkpt lat="42.3244793" lon="13.5292262"><ele>702.3333333333334</ele><time>2026-04-26T08:05:23.533Z</time></trkpt><trkpt lat="42.3244714" lon="13.5294976"><ele>703.0</ele><time>2026-04-26T08:05:24.492Z</time></trkpt><trkpt lat="42.3244451" lon="13.5297883"><ele>704.0</ele><time>2026-04-26T08:05:25.56Z</time></trkpt><trkpt lat="42.3244053" lon="13.5300449"><ele>705.0</ele><time>2026-04-26T08:05:26.533Z</time></trkpt><trkpt lat="42.3243495" lon="13.5302974"><ele>706.0</ele><time>2026-04-26T08:05:27.531Z</time></trkpt><trkpt lat="42.3242844" lon="13.5305339"><ele>708.3333333333334</ele><time>2026-04-26T08:05:28.489Z</time></trkpt><trkpt lat="42.3242061" lon="13.5307842"><ele>710.6666666666666</ele><time>2026-04-26T08:05:29.496Z</time></trkpt><trkpt lat="42.3241165" lon="13.5310468"><ele>713.0</ele><time>2026-04-26T08:05:30.499Z</time></trkpt><trkpt lat="42.3240201" lon="13.5313199"><ele>714.0</ele><time>2026-04-26T08:05:31.507Z</time></trkpt><trkpt lat="42.323918" lon="13.5316033"><ele>715.0</ele><time>2026-04-26T08:05:32.53Z</time></trkpt><trkpt lat="42.3238122" lon="13.5318915"><ele>719.0</ele><time>2026-04-26T08:05:33.536Z</time></trkpt><trkpt lat="42.3236925" lon="13.5321977"><ele>723.0</ele><time>2026-04-26T08:05:34.528Z</time></trkpt><trkpt lat="42.32357" lon="13.5324916"><ele>723.0</ele><time>2026-04-26T08:05:35.49Z</time></trkpt><trkpt lat="42.3234395" lon="13.5327809"><ele>723.0</ele><time>2026-04-26T08:05:36.534Z</time></trkpt><trkpt lat="42.3233294" lon="13.533034"><ele>724.0</ele><time>2026-04-26T08:05:37.503Z</time></trkpt><trkpt lat="42.3232254" lon="13.533277"><ele>725.0</ele><time>2026-04-26T08:05:38.472Z</time></trkpt><trkpt lat="42.3231186" lon="13.5335425"><ele>726.0</ele><time>2026-04-26T08:05:39.525Z</time></trkpt><trkpt lat="42.3230088" lon="13.5338239"><ele>726.0</ele><time>2026-04-26T08:05:40.632Z</time></trkpt><trkpt lat="42.3229192" lon="13.5340856"><ele>726.0</ele><time>2026-04-26T08:05:41.64Z</time></trkpt><trkpt lat="42.3228496" lon="13.5343265"><ele>726.0</ele><time>2026-04-26T08:05:42.539Z</time></trkpt><trkpt lat="42.3227792" lon="13.5345977"><ele>728.6666666666666</ele><time>2026-04-26T08:05:43.544Z</time></trkpt><trkpt lat="42.3227188" lon="13.5348622"><ele>731.3333333333333</ele><time>2026-04-26T08:05:44.514Z</time></trkpt><trkpt lat="42.3226667" lon="13.5351556"><ele>734.0</ele><time>2026-04-26T08:05:45.556Z</time></trkpt><trkpt lat="42.3226378" lon="13.5354468"><ele>735.3333333333333</ele><time>2026-04-26T08:05:46.568Z</time></trkpt><trkpt lat="42.3226314" lon="13.5357428"><ele>736.6666666666666</ele><time>2026-04-26T08:05:47.569Z</time></trkpt><trkpt lat="42.322641" lon="13.536044"><ele>738.0</ele><time>2026-04-26T08:05:48.551Z</time></trkpt><trkpt lat="42.3226583" lon="13.5363571"><ele>740.0</ele><time>2026-04-26T08:05:49.535Z</time></trkpt><trkpt lat="42.3226763" lon="13.5366868"><ele>742.0</ele><time>2026-04-26T08:05:50.547Z</time></trkpt><trkpt lat="42.3226859" lon="13.5370169"><ele>745.0</ele><time>2026-04-26T08:05:51.56Z</time></trkpt><trkpt lat="42.3226987" lon="13.537353"><ele>748.0</ele><time>2026-04-26T08:05:52.591Z</time></trkpt><trkpt lat="42.3227139" lon="13.5376547"><ele>748.6666666666667</ele><time>2026-04-26T08:05:53.531Z</time></trkpt><trkpt lat="42.3227319" lon="13.537967"><ele>749.3333333333334</ele><time>2026-04-26T08:05:54.535Z</time></trkpt><trkpt lat="42.322748" lon="13.5382498"><ele>750.0</ele><time>2026-04-26T08:05:55.53Z</time></trkpt><trkpt lat="42.3227621" lon="13.5385104"><ele>752.0</ele><time>2026-04-26T08:05:56.509Z</time></trkpt><trkpt lat="42.3227767" lon="13.5387724"><ele>754.0</ele><time>2026-04-26T08:05:57.523Z</time></trkpt><trkpt lat="42.3227906" lon="13.5390355"><ele>756.0</ele><time>2026-04-26T08:05:58.534Z</time></trkpt><trkpt lat="42.3228048" lon="13.5392863"><ele>757.6666666666666</ele><time>2026-04-26T08:05:59.501Z</time></trkpt><trkpt lat="42.3228189" lon="13.5395663"><ele>759.3333333333333</ele><time>2026-04-26T08:06:00.584Z</time></trkpt><trkpt lat="42.3228336" lon="13.539817"><ele>761.0</ele><time>2026-04-26T08:06:01.555Z</time></trkpt><trkpt lat="42.3228488" lon="13.5400667"><ele>761.0</ele><time>2026-04-26T08:06:02.533Z</time></trkpt><trkpt lat="42.322866" lon="13.5403218"><ele>761.0</ele><time>2026-04-26T08:06:03.537Z</time></trkpt><trkpt lat="42.3228825" lon="13.5405817"><ele>761.0</ele><time>2026-04-26T08:06:04.558Z</time></trkpt><trkpt lat="42.3228973" lon="13.5408261"><ele>759.3333333333333</ele><time>2026-04-26T08:06:05.516Z</time></trkpt><trkpt lat="42.3229128" lon="13.5410862"><ele>757.6666666666666</ele><time>2026-04-26T08:06:06.541Z</time></trkpt><trkpt lat="42.3229224" lon="13.5413387"><ele>756.0</ele><time>2026-04-26T08:06:07.536Z</time></trkpt><trkpt lat="42.3229233" lon="13.5415925"><ele>755.6666666666666</ele><time>2026-04-26T08:06:08.537Z</time></trkpt><trkpt lat="42.3229129" lon="13.5418672"><ele>755.3333333333333</ele><time>2026-04-26T08:06:09.619Z</time></trkpt><trkpt lat="42.3228992" lon="13.5421026"><ele>755.0</ele><time>2026-04-26T08:06:10.55Z</time></trkpt><trkpt lat="42.3228808" lon="13.5423639"><ele>755.0</ele><time>2026-04-26T08:06:11.582Z</time></trkpt><trkpt lat="42.3228612" lon="13.542608"><ele>755.0</ele><time>2026-04-26T08:06:12.55Z</time></trkpt><trkpt lat="42.3228362" lon="13.5428581"><ele>755.0</ele><time>2026-04-26T08:06:13.543Z</time></trkpt><trkpt lat="42.3228052" lon="13.543118"><ele>756.3333333333333</ele><time>2026-04-26T08:06:14.574Z</time></trkpt><trkpt lat="42.3227718" lon="13.543358"><ele>757.6666666666666</ele><time>2026-04-26T08:06:15.532Z</time></trkpt><trkpt lat="42.322733" lon="13.5436059"><ele>759.0</ele><time>2026-04-26T08:06:16.535Z</time></trkpt><trkpt lat="42.322696" lon="13.5438515"><ele>760.3333333333334</ele><time>2026-04-26T08:06:17.525Z</time></trkpt><trkpt lat="42.3226583" lon="13.5441074"><ele>761.6666666666667</ele><time>2026-04-26T08:06:18.549Z</time></trkpt><trkpt lat="42.3226215" lon="13.5443553"><ele>763.0</ele><time>2026-04-26T08:06:19.54Z</time></trkpt><trkpt lat="42.3225805" lon="13.5446192"><ele>764.0</ele><time>2026-04-26T08:06:20.586Z</time></trkpt><trkpt lat="42.3225466" lon="13.5448565"><ele>765.0</ele><time>2026-04-26T08:06:21.53Z</time></trkpt><trkpt lat="42.3225088" lon="13.5451118"><ele>766.0</ele><time>2026-04-26T08:06:22.548Z</time></trkpt><trkpt lat="42.3224677" lon="13.5453904"><ele>767.5</ele><time>2026-04-26T08:06:23.653Z</time></trkpt><trkpt lat="42.3223889" lon="13.5458746"><ele>769.0</ele><time>2026-04-26T08:06:25.569Z</time></trkpt><trkpt lat="42.3223495" lon="13.5461183"><ele>769.0</ele><time>2026-04-26T08:06:26.529Z</time></trkpt><trkpt lat="42.322309" lon="13.5463735"><ele>769.0</ele><time>2026-04-26T08:06:27.528Z</time></trkpt><trkpt lat="42.3222707" lon="13.5466304"><ele>769.0</ele><time>2026-04-26T08:06:28.538Z</time></trkpt><trkpt lat="42.3222313" lon="13.5468874"><ele>769.0</ele><time>2026-04-26T08:06:29.552Z</time></trkpt><trkpt lat="42.3221925" lon="13.5471444"><ele>769.0</ele><time>2026-04-26T08:06:30.564Z</time></trkpt><trkpt lat="42.3221465" lon="13.5473942"><ele>769.0</ele><time>2026-04-26T08:06:31.554Z</time></trkpt><trkpt lat="42.3220877" lon="13.5476318"><ele>769.0</ele><time>2026-04-26T08:06:32.524Z</time></trkpt><trkpt lat="42.3220145" lon="13.5478639"><ele>769.0</ele><time>2026-04-26T08:06:33.505Z</time></trkpt><trkpt lat="42.3219295" lon="13.5480893"><ele>769.0</ele><time>2026-04-26T08:06:34.502Z</time></trkpt><trkpt lat="42.3218319" lon="13.5483121"><ele>772.6666666666666</ele><time>2026-04-26T08:06:35.54Z</time></trkpt><trkpt lat="42.3217336" lon="13.5485061"><ele>776.3333333333333</ele><time>2026-04-26T08:06:36.5Z</time></trkpt><trkpt lat="42.321621" lon="13.5486995"><ele>780.0</ele><time>2026-04-26T08:06:37.518Z</time></trkpt><trkpt lat="42.3215054" lon="13.5488764"><ele>781.6666666666667</ele><time>2026-04-26T08:06:38.488Z</time></trkpt><trkpt lat="42.32137" lon="13.5490581"><ele>783.3333333333334</ele><time>2026-04-26T08:06:39.548Z</time></trkpt><trkpt lat="42.3212386" lon="13.5492232"><ele>785.0</ele><time>2026-04-26T08:06:40.514Z</time></trkpt><trkpt lat="42.3210971" lon="13.5494007"><ele>788.0</ele><time>2026-04-26T08:06:41.549Z</time></trkpt><trkpt lat="42.3209618" lon="13.5495783"><ele>791.0</ele><time>2026-04-26T08:06:42.541Z</time></trkpt><trkpt lat="42.3208275" lon="13.5497599"><ele>794.0</ele><time>2026-04-26T08:06:43.527Z</time></trkpt><trkpt lat="42.3206906" lon="13.549939"><ele>792.0</ele><time>2026-04-26T08:06:44.516Z</time></trkpt><trkpt lat="42.3205456" lon="13.5501204"><ele>790.0</ele><time>2026-04-26T08:06:45.535Z</time></trkpt><trkpt lat="42.3204066" lon="13.5502926"><ele>788.0</ele><time>2026-04-26T08:06:46.507Z</time></trkpt><trkpt lat="42.3202619" lon="13.5504754"><ele>794.0</ele><time>2026-04-26T08:06:47.533Z</time></trkpt><trkpt lat="42.3201049" lon="13.5506697"><ele>800.0</ele><time>2026-04-26T08:06:48.587Z</time></trkpt><trkpt lat="42.3198149" lon="13.5510473"><ele>802.0</ele><time>2026-04-26T08:06:50.612Z</time></trkpt><trkpt lat="42.3196771" lon="13.5512182"><ele>804.0</ele><time>2026-04-26T08:06:51.533Z</time></trkpt><trkpt lat="42.3195385" lon="13.5513934"><ele>806.0</ele><time>2026-04-26T08:06:52.484Z</time></trkpt><trkpt lat="42.3193886" lon="13.5515783"><ele>806.0</ele><time>2026-04-26T08:06:53.493Z</time></trkpt><trkpt lat="42.3192276" lon="13.5517719"><ele>806.0</ele><time>2026-04-26T08:06:54.56Z</time></trkpt><trkpt lat="42.3190928" lon="13.5519341"><ele>806.0</ele><time>2026-04-26T08:06:55.461Z</time></trkpt><trkpt lat="42.3189348" lon="13.5521275"><ele>809.6666666666667</ele><time>2026-04-26T08:06:56.522Z</time></trkpt><trkpt lat="42.3187725" lon="13.5523284"><ele>813.3333333333333</ele><time>2026-04-26T08:06:57.612Z</time></trkpt><trkpt lat="42.3186308" lon="13.5525058"><ele>817.0</ele><time>2026-04-26T08:06:58.571Z</time></trkpt><trkpt lat="42.3184837" lon="13.5526885"><ele>818.6666666666666</ele><time>2026-04-26T08:06:59.565Z</time></trkpt><trkpt lat="42.3183347" lon="13.5528742"><ele>820.3333333333333</ele><time>2026-04-26T08:07:00.569Z</time></trkpt><trkpt lat="42.3181908" lon="13.5530523"><ele>822.0</ele><time>2026-04-26T08:07:01.54Z</time></trkpt><trkpt lat="42.3180493" lon="13.553227"><ele>822.0</ele><time>2026-04-26T08:07:02.497Z</time></trkpt><trkpt lat="42.3178967" lon="13.5534178"><ele>822.0</ele><time>2026-04-26T08:07:03.54Z</time></trkpt><trkpt lat="42.3177488" lon="13.5536051"><ele>822.0</ele><time>2026-04-26T08:07:04.558Z</time></trkpt><trkpt lat="42.3176064" lon="13.5537844"><ele>823.3333333333333</ele><time>2026-04-26T08:07:05.54Z</time></trkpt><trkpt lat="42.3174636" lon="13.5539691"><ele>824.6666666666666</ele><time>2026-04-26T08:07:06.537Z</time></trkpt><trkpt lat="42.3173236" lon="13.5541547"><ele>826.0</ele><time>2026-04-26T08:07:07.528Z</time></trkpt><trkpt lat="42.317178" lon="13.5543431"><ele>826.0</ele><time>2026-04-26T08:07:08.548Z</time></trkpt><trkpt lat="42.3170363" lon="13.5545303"><ele>826.0</ele><time>2026-04-26T08:07:09.555Z</time></trkpt><trkpt lat="42.3169059" lon="13.5547086"><ele>826.0</ele><time>2026-04-26T08:07:10.51Z</time></trkpt><trkpt lat="42.3167726" lon="13.5548971"><ele>826.0</ele><time>2026-04-26T08:07:11.493Z</time></trkpt><trkpt lat="42.3166326" lon="13.5551099"><ele>826.0</ele><time>2026-04-26T08:07:12.558Z</time></trkpt><trkpt lat="42.3165086" lon="13.5553207"><ele>826.0</ele><time>2026-04-26T08:07:13.561Z</time></trkpt><trkpt lat="42.3163785" lon="13.555559"><ele>827.6666666666666</ele><time>2026-04-26T08:07:14.645Z</time></trkpt><trkpt lat="42.3162674" lon="13.5557744"><ele>829.3333333333333</ele><time>2026-04-26T08:07:15.599Z</time></trkpt><trkpt lat="42.3161511" lon="13.5560113"><ele>831.0</ele><time>2026-04-26T08:07:16.617Z</time></trkpt><trkpt lat="42.3160513" lon="13.556235"><ele>834.5</ele><time>2026-04-26T08:07:17.55Z</time></trkpt><trkpt lat="42.3159333" lon="13.5565193"><ele>838.0</ele><time>2026-04-26T08:07:18.699Z</time></trkpt><trkpt lat="42.3157515" lon="13.556965"><ele>837.0</ele><time>2026-04-26T08:07:20.474Z</time></trkpt><trkpt lat="42.3156472" lon="13.5572251"><ele>836.0</ele><time>2026-04-26T08:07:21.5Z</time></trkpt><trkpt lat="42.315435" lon="13.5577412"><ele>840.5</ele><time>2026-04-26T08:07:23.533Z</time></trkpt><trkpt lat="42.3153273" lon="13.5580048"><ele>845.0</ele><time>2026-04-26T08:07:24.563Z</time></trkpt><trkpt lat="42.3152184" lon="13.5582773"><ele>845.0</ele><time>2026-04-26T08:07:25.565Z</time></trkpt><trkpt lat="42.3151099" lon="13.5585599"><ele>845.0</ele><time>2026-04-26T08:07:26.566Z</time></trkpt><trkpt lat="42.315003" lon="13.558839"><ele>849.0</ele><time>2026-04-26T08:07:27.542Z</time></trkpt><trkpt lat="42.3148962" lon="13.5591155"><ele>853.0</ele><time>2026-04-26T08:07:28.536Z</time></trkpt><trkpt lat="42.3147856" lon="13.5594017"><ele>850.5</ele><time>2026-04-26T08:07:29.555Z</time></trkpt><trkpt lat="42.3146808" lon="13.5596829"><ele>848.0</ele><time>2026-04-26T08:07:30.529Z</time></trkpt><trkpt lat="42.314586" lon="13.5599751"><ele>848.0</ele><time>2026-04-26T08:07:31.505Z</time></trkpt><trkpt lat="42.314494" lon="13.5603107"><ele>848.0</ele><time>2026-04-26T08:07:32.559Z</time></trkpt><trkpt lat="42.3144244" lon="13.5606159"><ele>851.0</ele><time>2026-04-26T08:07:33.5Z</time></trkpt><trkpt lat="42.3143587" lon="13.560981"><ele>854.0</ele><time>2026-04-26T08:07:34.546Z</time></trkpt><trkpt lat="42.3142937" lon="13.5613297"><ele>857.0</ele><time>2026-04-26T08:07:35.554Z</time></trkpt><trkpt lat="42.3142332" lon="13.5616462"><ele>860.0</ele><time>2026-04-26T08:07:36.544Z</time></trkpt><trkpt lat="42.3141714" lon="13.5619802"><ele>861.3333333333334</ele><time>2026-04-26T08:07:37.663Z</time></trkpt><trkpt lat="42.3141208" lon="13.562242"><ele>862.6666666666667</ele><time>2026-04-26T08:07:38.573Z</time></trkpt><trkpt lat="42.3140732" lon="13.562501"><ele>864.0</ele><time>2026-04-26T08:07:39.555Z</time></trkpt><trkpt lat="42.3140311" lon="13.5627647"><ele>865.0</ele><time>2026-04-26T08:07:40.582Z</time></trkpt><trkpt lat="42.3140097" lon="13.5630242"><ele>866.0</ele><time>2026-04-26T08:07:41.565Z</time></trkpt><trkpt lat="42.3140131" lon="13.5632982"><ele>867.0</ele><time>2026-04-26T08:07:42.577Z</time></trkpt><trkpt lat="42.3140423" lon="13.5635915"><ele>866.0</ele><time>2026-04-26T08:07:43.59Z</time></trkpt><trkpt lat="42.3140677" lon="13.56389"><ele>865.0</ele><time>2026-04-26T08:07:44.572Z</time></trkpt><trkpt lat="42.314104" lon="13.5641953"><ele>865.0</ele><time>2026-04-26T08:07:45.559Z</time></trkpt><trkpt lat="42.3141512" lon="13.5645075"><ele>865.0</ele><time>2026-04-26T08:07:46.566Z</time></trkpt><trkpt lat="42.314203" lon="13.5648295"><ele>864.0</ele><time>2026-04-26T08:07:47.599Z</time></trkpt><trkpt lat="42.3142532" lon="13.565132"><ele>863.0</ele><time>2026-04-26T08:07:48.552Z</time></trkpt><trkpt lat="42.3143096" lon="13.5654602"><ele>862.5</ele><time>2026-04-26T08:07:49.562Z</time></trkpt><trkpt lat="42.3143688" lon="13.5657882"><ele>862.0</ele><time>2026-04-26T08:07:50.575Z</time></trkpt><trkpt lat="42.3144246" lon="13.566096"><ele>860.5</ele><time>2026-04-26T08:07:51.561Z</time></trkpt><trkpt lat="42.3144737" lon="13.5663935"><ele>859.0</ele><time>2026-04-26T08:07:52.555Z</time></trkpt><trkpt lat="42.3145323" lon="13.5667219"><ele>859.0</ele><time>2026-04-26T08:07:53.577Z</time></trkpt><trkpt lat="42.3145833" lon="13.5670264"><ele>859.0</ele><time>2026-04-26T08:07:54.52Z</time></trkpt><trkpt lat="42.314627" lon="13.5673405"><ele>858.6666666666666</ele><time>2026-04-26T08:07:55.561Z</time></trkpt><trkpt lat="42.3146682" lon="13.5676422"><ele>858.3333333333333</ele><time>2026-04-26T08:07:56.597Z</time></trkpt><trkpt lat="42.3147055" lon="13.5679104"><ele>858.0</ele><time>2026-04-26T08:07:57.565Z</time></trkpt><trkpt lat="42.3147447" lon="13.5681913"><ele>859.6666666666667</ele><time>2026-04-26T08:07:58.558Z</time></trkpt><trkpt lat="42.3147872" lon="13.5684802"><ele>861.3333333333334</ele><time>2026-04-26T08:07:59.568Z</time></trkpt><trkpt lat="42.314831" lon="13.5687741"><ele>863.0</ele><time>2026-04-26T08:08:00.569Z</time></trkpt><trkpt lat="42.314877" lon="13.5690781"><ele>863.0</ele><time>2026-04-26T08:08:01.555Z</time></trkpt><trkpt lat="42.314929" lon="13.5693884"><ele>863.0</ele><time>2026-04-26T08:08:02.553Z</time></trkpt><trkpt lat="42.314979" lon="13.5696944"><ele>863.0</ele><time>2026-04-26T08:08:03.545Z</time></trkpt><trkpt lat="42.3150297" lon="13.5700046"><ele>863.0</ele><time>2026-04-26T08:08:04.565Z</time></trkpt><trkpt lat="42.3150793" lon="13.5703113"><ele>864.0</ele><time>2026-04-26T08:08:05.604Z</time></trkpt><trkpt lat="42.3151255" lon="13.5705876"><ele>865.0</ele><time>2026-04-26T08:08:06.551Z</time></trkpt><trkpt lat="42.3151777" lon="13.5708887"><ele>866.0</ele><time>2026-04-26T08:08:07.574Z</time></trkpt><trkpt lat="42.3152229" lon="13.5711728"><ele>865.5</ele><time>2026-04-26T08:08:08.535Z</time></trkpt><trkpt lat="42.3152678" lon="13.5714654"><ele>865.0</ele><time>2026-04-26T08:08:09.516Z</time></trkpt><trkpt lat="42.315314" lon="13.5717708"><ele>865.3333333333333</ele><time>2026-04-26T08:08:10.539Z</time></trkpt><trkpt lat="42.3153621" lon="13.5720852"><ele>865.6666666666667</ele><time>2026-04-26T08:08:11.608Z</time></trkpt><trkpt lat="42.3154058" lon="13.5723645"><ele>866.0</ele><time>2026-04-26T08:08:12.57Z</time></trkpt><trkpt lat="42.3154521" lon="13.5726522"><ele>866.0</ele><time>2026-04-26T08:08:13.561Z</time></trkpt><trkpt lat="42.3154973" lon="13.5729376"><ele>866.0</ele><time>2026-04-26T08:08:14.555Z</time></trkpt><trkpt lat="42.3155476" lon="13.5732179"><ele>866.0</ele><time>2026-04-26T08:08:15.534Z</time></trkpt><trkpt lat="42.3156096" lon="13.5735343"><ele>867.5</ele><time>2026-04-26T08:08:16.58Z</time></trkpt><trkpt lat="42.3156588" lon="13.5738458"><ele>869.0</ele><time>2026-04-26T08:08:17.563Z</time></trkpt><trkpt lat="42.315708" lon="13.5741968"><ele>868.5</ele><time>2026-04-26T08:08:18.628Z</time></trkpt><trkpt lat="42.3157568" lon="13.5745234"><ele>868.0</ele><time>2026-04-26T08:08:19.583Z</time></trkpt><trkpt lat="42.3158113" lon="13.57487"><ele>868.0</ele><time>2026-04-26T08:08:20.568Z</time></trkpt><trkpt lat="42.3158679" lon="13.575232"><ele>868.0</ele><time>2026-04-26T08:08:21.563Z</time></trkpt><trkpt lat="42.3159266" lon="13.5756128"><ele>869.0</ele><time>2026-04-26T08:08:22.582Z</time></trkpt><trkpt lat="42.3159855" lon="13.5759831"><ele>870.0</ele><time>2026-04-26T08:08:23.557Z</time></trkpt><trkpt lat="42.3160479" lon="13.5763751"><ele>870.0</ele><time>2026-04-26T08:08:24.584Z</time></trkpt><trkpt lat="42.3161057" lon="13.5767506"><ele>870.0</ele><time>2026-04-26T08:08:25.572Z</time></trkpt><trkpt lat="42.3161569" lon="13.5771266"><ele>869.0</ele><time>2026-04-26T08:08:26.598Z</time></trkpt><trkpt lat="42.3161989" lon="13.5774482"><ele>868.0</ele><time>2026-04-26T08:08:27.529Z</time></trkpt><trkpt lat="42.316243" lon="13.5777782"><ele>868.0</ele><time>2026-04-26T08:08:28.544Z</time></trkpt><trkpt lat="42.3162884" lon="13.5780942"><ele>868.0</ele><time>2026-04-26T08:08:29.575Z</time></trkpt><trkpt lat="42.3163342" lon="13.5783803"><ele>868.0</ele><time>2026-04-26T08:08:30.564Z</time></trkpt><trkpt lat="42.3163803" lon="13.578693"><ele>868.0</ele><time>2026-04-26T08:08:31.682Z</time></trkpt><trkpt lat="42.316455" lon="13.5792092"><ele>871.0</ele><time>2026-04-26T08:08:33.537Z</time></trkpt><trkpt lat="42.3165017" lon="13.5794828"><ele>874.0</ele><time>2026-04-26T08:08:34.567Z</time></trkpt><trkpt lat="42.3165635" lon="13.5797396"><ele>877.0</ele><time>2026-04-26T08:08:35.565Z</time></trkpt><trkpt lat="42.3166488" lon="13.5799836"><ele>877.0</ele><time>2026-04-26T08:08:36.546Z</time></trkpt><trkpt lat="42.3167564" lon="13.5802471"><ele>877.0</ele><time>2026-04-26T08:08:37.587Z</time></trkpt><trkpt lat="42.3168533" lon="13.5805023"><ele>877.0</ele><time>2026-04-26T08:08:38.562Z</time></trkpt><trkpt lat="42.3169523" lon="13.5807717"><ele>877.0</ele><time>2026-04-26T08:08:39.568Z</time></trkpt><trkpt lat="42.3170558" lon="13.581036"><ele>877.0</ele><time>2026-04-26T08:08:40.564Z</time></trkpt><trkpt lat="42.3171618" lon="13.5813048"><ele>877.0</ele><time>2026-04-26T08:08:41.574Z</time></trkpt><trkpt lat="42.3172588" lon="13.581556"><ele>879.0</ele><time>2026-04-26T08:08:42.529Z</time></trkpt><trkpt lat="42.3173578" lon="13.5818128"><ele>881.0</ele><time>2026-04-26T08:08:43.594Z</time></trkpt><trkpt lat="42.3174426" lon="13.5820271"><ele>883.0</ele><time>2026-04-26T08:08:44.566Z</time></trkpt><trkpt lat="42.3175219" lon="13.5822309"><ele>883.0</ele><time>2026-04-26T08:08:45.547Z</time></trkpt><trkpt lat="42.3176071" lon="13.5824373"><ele>883.0</ele><time>2026-04-26T08:08:46.523Z</time></trkpt><trkpt lat="42.3176926" lon="13.5826456"><ele>883.0</ele><time>2026-04-26T08:08:47.553Z</time></trkpt><trkpt lat="42.3177669" lon="13.5828346"><ele>881.3333333333333</ele><time>2026-04-26T08:08:48.538Z</time></trkpt><trkpt lat="42.3178406" lon="13.5830187"><ele>879.6666666666667</ele><time>2026-04-26T08:08:49.546Z</time></trkpt><trkpt lat="42.3179184" lon="13.5832085"><ele>878.0</ele><time>2026-04-26T08:08:50.532Z</time></trkpt><trkpt lat="42.3180007" lon="13.5834109"><ele>881.0</ele><time>2026-04-26T08:08:51.556Z</time></trkpt><trkpt lat="42.3180752" lon="13.5835966"><ele>884.0</ele><time>2026-04-26T08:08:52.528Z</time></trkpt><trkpt lat="42.3181517" lon="13.583785"><ele>887.0</ele><time>2026-04-26T08:08:53.55Z</time></trkpt><trkpt lat="42.3182279" lon="13.5839774"><ele>887.0</ele><time>2026-04-26T08:08:54.574Z</time></trkpt><trkpt lat="42.3183077" lon="13.5841767"><ele>887.0</ele><time>2026-04-26T08:08:55.659Z</time></trkpt><trkpt lat="42.3184551" lon="13.584533"><ele>886.75</ele><time>2026-04-26T08:08:57.614Z</time></trkpt><trkpt lat="42.3185323" lon="13.5846962"><ele>886.5</ele><time>2026-04-26T08:08:58.574Z</time></trkpt><trkpt lat="42.3186218" lon="13.5848525"><ele>886.25</ele><time>2026-04-26T08:08:59.574Z</time></trkpt><trkpt lat="42.3187199" lon="13.5849964"><ele>886.0</ele><time>2026-04-26T08:09:00.554Z</time></trkpt><trkpt lat="42.3188242" lon="13.5851289"><ele>886.0</ele><time>2026-04-26T08:09:01.534Z</time></trkpt><trkpt lat="42.3189348" lon="13.5852522"><ele>886.0</ele><time>2026-04-26T08:09:02.523Z</time></trkpt><trkpt lat="42.3190529" lon="13.5853654"><ele>886.0</ele><time>2026-04-26T08:09:03.523Z</time></trkpt><trkpt lat="42.3191743" lon="13.5854764"><ele>886.0</ele><time>2026-04-26T08:09:04.55Z</time></trkpt><trkpt lat="42.3192891" lon="13.5855904"><ele>886.0</ele><time>2026-04-26T08:09:05.557Z</time></trkpt><trkpt lat="42.3193889" lon="13.5857193"><ele>886.0</ele><time>2026-04-26T08:09:06.54Z</time></trkpt><trkpt lat="42.3194758" lon="13.5858721"><ele>886.0</ele><time>2026-04-26T08:09:07.548Z</time></trkpt><trkpt lat="42.3195379" lon="13.5860419"><ele>886.0</ele><time>2026-04-26T08:09:08.555Z</time></trkpt><trkpt lat="42.3195804" lon="13.5862159"><ele>886.25</ele><time>2026-04-26T08:09:09.546Z</time></trkpt><trkpt lat="42.3196069" lon="13.5864011"><ele>886.5</ele><time>2026-04-26T08:09:10.589Z</time></trkpt><trkpt lat="42.3196277" lon="13.5865656"><ele>886.75</ele><time>2026-04-26T08:09:11.538Z</time></trkpt><trkpt lat="42.3196529" lon="13.586734"><ele>887.0</ele><time>2026-04-26T08:09:12.533Z</time></trkpt><trkpt lat="42.3196816" lon="13.5868964"><ele>887.75</ele><time>2026-04-26T08:09:13.57Z</time></trkpt><trkpt lat="42.3197101" lon="13.5870559"><ele>888.5</ele><time>2026-04-26T08:09:14.548Z</time></trkpt><trkpt lat="42.3197309" lon="13.5872229"><ele>889.25</ele><time>2026-04-26T08:09:15.54Z</time></trkpt><trkpt lat="42.3197452" lon="13.5874078"><ele>890.0</ele><time>2026-04-26T08:09:16.568Z</time></trkpt><trkpt lat="42.3197463" lon="13.5875967"><ele>890.0</ele><time>2026-04-26T08:09:17.555Z</time></trkpt><trkpt lat="42.3197242" lon="13.5877906"><ele>890.0</ele><time>2026-04-26T08:09:18.528Z</time></trkpt><trkpt lat="42.3196798" lon="13.5880014"><ele>890.0</ele><time>2026-04-26T08:09:19.554Z</time></trkpt><trkpt lat="42.3196126" lon="13.5882147"><ele>890.0</ele><time>2026-04-26T08:09:20.563Z</time></trkpt><trkpt lat="42.319518" lon="13.5884283"><ele>890.0</ele><time>2026-04-26T08:09:21.558Z</time></trkpt><trkpt lat="42.3194011" lon="13.588638"><ele>890.0</ele><time>2026-04-26T08:09:22.584Z</time></trkpt><trkpt lat="42.3192794" lon="13.5888439"><ele>890.0</ele><time>2026-04-26T08:09:23.558Z</time></trkpt><trkpt lat="42.3191591" lon="13.5890592"><ele>890.0</ele><time>2026-04-26T08:09:24.557Z</time></trkpt><trkpt lat="42.319043" lon="13.5892767"><ele>890.0</ele><time>2026-04-26T08:09:25.55Z</time></trkpt><trkpt lat="42.3189274" lon="13.5894801"><ele>889.0</ele><time>2026-04-26T08:09:26.584Z</time></trkpt><trkpt lat="42.3188215" lon="13.5896631"><ele>888.0</ele><time>2026-04-26T08:09:27.561Z</time></trkpt><trkpt lat="42.3187154" lon="13.5898614"><ele>887.0</ele><time>2026-04-26T08:09:28.572Z</time></trkpt><trkpt lat="42.3186082" lon="13.5900903"><ele>885.5</ele><time>2026-04-26T08:09:29.54Z</time></trkpt><trkpt lat="42.3184804" lon="13.5903576"><ele>884.0</ele><time>2026-04-26T08:09:30.569Z</time></trkpt><trkpt lat="42.3183354" lon="13.5906366"><ele>884.0</ele><time>2026-04-26T08:09:31.563Z</time></trkpt><trkpt lat="42.3181691" lon="13.5909518"><ele>884.0</ele><time>2026-04-26T08:09:32.554Z</time></trkpt><trkpt lat="42.3179876" lon="13.5912794"><ele>881.5</ele><time>2026-04-26T08:09:33.541Z</time></trkpt><trkpt lat="42.3177834" lon="13.5916328"><ele>879.0</ele><time>2026-04-26T08:09:34.566Z</time></trkpt><trkpt lat="42.3175922" lon="13.5919774"><ele>877.0</ele><time>2026-04-26T08:09:35.534Z</time></trkpt><trkpt lat="42.3174071" lon="13.5923174"><ele>875.0</ele><time>2026-04-26T08:09:36.562Z</time></trkpt><trkpt lat="42.3172402" lon="13.5926109"><ele>874.0</ele><time>2026-04-26T08:09:37.511Z</time></trkpt><trkpt lat="42.3170742" lon="13.5929168"><ele>873.0</ele><time>2026-04-26T08:09:38.538Z</time></trkpt><trkpt lat="42.3169314" lon="13.5931842"><ele>873.0</ele><time>2026-04-26T08:09:39.523Z</time></trkpt><trkpt lat="42.3167913" lon="13.5934526"><ele>873.0</ele><time>2026-04-26T08:09:40.555Z</time></trkpt><trkpt lat="42.3166506" lon="13.5937235"><ele>873.0</ele><time>2026-04-26T08:09:41.616Z</time></trkpt><trkpt lat="42.316526" lon="13.5939573"><ele>873.0</ele><time>2026-04-26T08:09:42.537Z</time></trkpt><trkpt lat="42.3163862" lon="13.5942168"><ele>873.0</ele><time>2026-04-26T08:09:43.542Z</time></trkpt><trkpt lat="42.3162404" lon="13.5944892"><ele>873.0</ele><time>2026-04-26T08:09:44.569Z</time></trkpt><trkpt lat="42.3160965" lon="13.5947599"><ele>872.5</ele><time>2026-04-26T08:09:45.566Z</time></trkpt><trkpt lat="42.3159544" lon="13.5950256"><ele>872.0</ele><time>2026-04-26T08:09:46.552Z</time></trkpt><trkpt lat="42.3158073" lon="13.5952927"><ele>870.5</ele><time>2026-04-26T08:09:47.562Z</time></trkpt><trkpt lat="42.3156643" lon="13.5955495"><ele>869.0</ele><time>2026-04-26T08:09:48.551Z</time></trkpt><trkpt lat="42.3155195" lon="13.5958178"><ele>869.0</ele><time>2026-04-26T08:09:49.574Z</time></trkpt><trkpt lat="42.3153747" lon="13.5960894"><ele>869.0</ele><time>2026-04-26T08:09:50.582Z</time></trkpt><trkpt lat="42.3152315" lon="13.5963618"><ele>867.0</ele><time>2026-04-26T08:09:51.556Z</time></trkpt><trkpt lat="42.3150758" lon="13.5966519"><ele>865.0</ele><time>2026-04-26T08:09:52.571Z</time></trkpt><trkpt lat="42.3149239" lon="13.5969323"><ele>863.5</ele><time>2026-04-26T08:09:53.554Z</time></trkpt><trkpt lat="42.3147689" lon="13.5972191"><ele>862.0</ele><time>2026-04-26T08:09:54.551Z</time></trkpt><trkpt lat="42.3146133" lon="13.597511"><ele>861.5</ele><time>2026-04-26T08:09:55.547Z</time></trkpt><trkpt lat="42.3144509" lon="13.597819"><ele>861.0</ele><time>2026-04-26T08:09:56.584Z</time></trkpt><trkpt lat="42.3142983" lon="13.5981061"><ele>860.0</ele><time>2026-04-26T08:09:57.54Z</time></trkpt><trkpt lat="42.3141398" lon="13.5984161"><ele>859.0</ele><time>2026-04-26T08:09:58.552Z</time></trkpt><trkpt lat="42.3139819" lon="13.5987316"><ele>857.0</ele><time>2026-04-26T08:09:59.556Z</time></trkpt><trkpt lat="42.3138229" lon="13.5990411"><ele>855.0</ele><time>2026-04-26T08:10:00.54Z</time></trkpt><trkpt lat="42.3136523" lon="13.5993597"><ele>855.0</ele><time>2026-04-26T08:10:01.554Z</time></trkpt><trkpt lat="42.3134738" lon="13.5996787"><ele>855.0</ele><time>2026-04-26T08:10:02.573Z</time></trkpt><trkpt lat="42.3132991" lon="13.6000004"><ele>855.0</ele><time>2026-04-26T08:10:03.581Z</time></trkpt><trkpt lat="42.3131335" lon="13.6003097"><ele>855.0</ele><time>2026-04-26T08:10:04.544Z</time></trkpt><trkpt lat="42.3129556" lon="13.6006358"><ele>854.5</ele><time>2026-04-26T08:10:05.56Z</time></trkpt><trkpt lat="42.3127706" lon="13.6009585"><ele>854.0</ele><time>2026-04-26T08:10:06.576Z</time></trkpt><trkpt lat="42.3125915" lon="13.6012725"><ele>854.0</ele><time>2026-04-26T08:10:07.563Z</time></trkpt><trkpt lat="42.3124044" lon="13.6016074"><ele>854.0</ele><time>2026-04-26T08:10:08.606Z</time></trkpt><trkpt lat="42.312235" lon="13.6019203"><ele>852.5</ele><time>2026-04-26T08:10:09.562Z</time></trkpt><trkpt lat="42.3120663" lon="13.6022378"><ele>851.0</ele><time>2026-04-26T08:10:10.533Z</time></trkpt><trkpt lat="42.311884" lon="13.6025712"><ele>851.5</ele><time>2026-04-26T08:10:11.559Z</time></trkpt><trkpt lat="42.3116885" lon="13.60293"><ele>852.0</ele><time>2026-04-26T08:10:12.663Z</time></trkpt><trkpt lat="42.3115229" lon="13.6032322"><ele>850.0</ele><time>2026-04-26T08:10:13.587Z</time></trkpt><trkpt lat="42.3113521" lon="13.6035449"><ele>848.0</ele><time>2026-04-26T08:10:14.544Z</time></trkpt><trkpt lat="42.3111743" lon="13.6038753"><ele>848.0</ele><time>2026-04-26T08:10:15.556Z</time></trkpt><trkpt lat="42.3109959" lon="13.6042049"><ele>848.0</ele><time>2026-04-26T08:10:16.568Z</time></trkpt><trkpt lat="42.3108259" lon="13.6045187"><ele>848.0</ele><time>2026-04-26T08:10:17.555Z</time></trkpt><trkpt lat="42.3106573" lon="13.6048356"><ele>848.0</ele><time>2026-04-26T08:10:18.563Z</time></trkpt><trkpt lat="42.3104939" lon="13.6051426"><ele>847.0</ele><time>2026-04-26T08:10:19.562Z</time></trkpt><trkpt lat="42.3103331" lon="13.6054467"><ele>846.0</ele><time>2026-04-26T08:10:20.563Z</time></trkpt><trkpt lat="42.3101615" lon="13.6057656"><ele>846.0</ele><time>2026-04-26T08:10:21.622Z</time></trkpt><trkpt lat="42.3100047" lon="13.6060531"><ele>846.0</ele><time>2026-04-26T08:10:22.595Z</time></trkpt><trkpt lat="42.3098566" lon="13.6063258"><ele>844.5</ele><time>2026-04-26T08:10:23.557Z</time></trkpt><trkpt lat="42.3097034" lon="13.6066112"><ele>843.0</ele><time>2026-04-26T08:10:24.578Z</time></trkpt><trkpt lat="42.3095606" lon="13.6068819"><ele>843.0</ele><time>2026-04-26T08:10:25.544Z</time></trkpt><trkpt lat="42.309408" lon="13.6071699"><ele>843.0</ele><time>2026-04-26T08:10:26.565Z</time></trkpt><trkpt lat="42.3092652" lon="13.6074343"><ele>843.0</ele><time>2026-04-26T08:10:27.531Z</time></trkpt><trkpt lat="42.3091139" lon="13.607709"><ele>843.0</ele><time>2026-04-26T08:10:28.566Z</time></trkpt><trkpt lat="42.3089692" lon="13.6079705"><ele>843.0</ele><time>2026-04-26T08:10:29.581Z</time></trkpt><trkpt lat="42.3088291" lon="13.6082297"><ele>843.0</ele><time>2026-04-26T08:10:30.586Z</time></trkpt><trkpt lat="42.3086952" lon="13.6084814"><ele>843.0</ele><time>2026-04-26T08:10:31.571Z</time></trkpt><trkpt lat="42.3085643" lon="13.6087281"><ele>843.0</ele><time>2026-04-26T08:10:32.533Z</time></trkpt><trkpt lat="42.3084277" lon="13.6089841"><ele>843.0</ele><time>2026-04-26T08:10:33.541Z</time></trkpt><trkpt lat="42.3082948" lon="13.6092383"><ele>843.0</ele><time>2026-04-26T08:10:34.556Z</time></trkpt><trkpt lat="42.3081629" lon="13.6095027"><ele>842.5</ele><time>2026-04-26T08:10:35.573Z</time></trkpt><trkpt lat="42.3080279" lon="13.6097668"><ele>842.0</ele><time>2026-04-26T08:10:36.571Z</time></trkpt><trkpt lat="42.3078847" lon="13.610037"><ele>842.0</ele><time>2026-04-26T08:10:37.58Z</time></trkpt><trkpt lat="42.3077413" lon="13.610309"><ele>842.0</ele><time>2026-04-26T08:10:38.553Z</time></trkpt><trkpt lat="42.3075654" lon="13.6106378"><ele>840.0</ele><time>2026-04-26T08:10:39.667Z</time></trkpt><trkpt lat="42.3074198" lon="13.6109038"><ele>838.0</ele><time>2026-04-26T08:10:40.571Z</time></trkpt><trkpt lat="42.3072543" lon="13.6111979"><ele>837.0</ele><time>2026-04-26T08:10:41.576Z</time></trkpt><trkpt lat="42.3070905" lon="13.611485"><ele>836.0</ele><time>2026-04-26T08:10:42.554Z</time></trkpt><trkpt lat="42.306923" lon="13.6117782"><ele>836.0</ele><time>2026-04-26T08:10:43.556Z</time></trkpt><trkpt lat="42.3067525" lon="13.6120816"><ele>836.0</ele><time>2026-04-26T08:10:44.577Z</time></trkpt><trkpt lat="42.3065895" lon="13.6123838"><ele>836.0</ele><time>2026-04-26T08:10:45.622Z</time></trkpt><trkpt lat="42.3064549" lon="13.6126399"><ele>836.0</ele><time>2026-04-26T08:10:46.551Z</time></trkpt><trkpt lat="42.3063145" lon="13.6128984"><ele>838.5</ele><time>2026-04-26T08:10:47.533Z</time></trkpt><trkpt lat="42.3061683" lon="13.6131676"><ele>841.0</ele><time>2026-04-26T08:10:48.57Z</time></trkpt><trkpt lat="42.3060373" lon="13.6134132"><ele>837.5</ele><time>2026-04-26T08:10:49.532Z</time></trkpt><trkpt lat="42.3059049" lon="13.6136639"><ele>834.0</ele><time>2026-04-26T08:10:50.533Z</time></trkpt><trkpt lat="42.3057742" lon="13.6139102"><ele>834.0</ele><time>2026-04-26T08:10:51.537Z</time></trkpt><trkpt lat="42.3056456" lon="13.6141525"><ele>834.0</ele><time>2026-04-26T08:10:52.508Z</time></trkpt><trkpt lat="42.3055122" lon="13.6144168"><ele>835.0</ele><time>2026-04-26T08:10:53.518Z</time></trkpt><trkpt lat="42.3053657" lon="13.6146993"><ele>836.0</ele><time>2026-04-26T08:10:54.534Z</time></trkpt><trkpt lat="42.3052087" lon="13.6149964"><ele>836.0</ele><time>2026-04-26T08:10:55.528Z</time></trkpt><trkpt lat="42.3050359" lon="13.6152924"><ele>836.0</ele><time>2026-04-26T08:10:56.532Z</time></trkpt><trkpt lat="42.304864" lon="13.6155872"><ele>836.5</ele><time>2026-04-26T08:10:57.533Z</time></trkpt><trkpt lat="42.3046967" lon="13.6158957"><ele>837.0</ele><time>2026-04-26T08:10:58.531Z</time></trkpt><trkpt lat="42.3044797" lon="13.6162946"><ele>837.0</ele><time>2026-04-26T08:10:59.822Z</time></trkpt><trkpt lat="42.3041929" lon="13.6168269"><ele>836.0</ele><time>2026-04-26T08:11:01.487Z</time></trkpt><trkpt lat="42.3040169" lon="13.6171548"><ele>835.0</ele><time>2026-04-26T08:11:02.502Z</time></trkpt><trkpt lat="42.3038411" lon="13.6174768"><ele>835.0</ele><time>2026-04-26T08:11:03.498Z</time></trkpt><trkpt lat="42.3036695" lon="13.6178004"><ele>835.0</ele><time>2026-04-26T08:11:04.493Z</time></trkpt><trkpt lat="42.3034892" lon="13.6181428"><ele>833.0</ele><time>2026-04-26T08:11:05.541Z</time></trkpt><trkpt lat="42.3033243" lon="13.6184542"><ele>831.0</ele><time>2026-04-26T08:11:06.511Z</time></trkpt><trkpt lat="42.3031541" lon="13.6187713"><ele>835.5</ele><time>2026-04-26T08:11:07.518Z</time></trkpt><trkpt lat="42.302996" lon="13.6190645"><ele>840.0</ele><time>2026-04-26T08:11:08.478Z</time></trkpt><trkpt lat="42.3028294" lon="13.6193737"><ele>835.0</ele><time>2026-04-26T08:11:09.489Z</time></trkpt><trkpt lat="42.3026702" lon="13.6196749"><ele>830.0</ele><time>2026-04-26T08:11:10.466Z</time></trkpt><trkpt lat="42.3025069" lon="13.6199865"><ele>830.0</ele><time>2026-04-26T08:11:11.472Z</time></trkpt><trkpt lat="42.3023391" lon="13.6203037"><ele>830.0</ele><time>2026-04-26T08:11:12.507Z</time></trkpt><trkpt lat="42.3021791" lon="13.6206005"><ele>829.5</ele><time>2026-04-26T08:11:13.473Z</time></trkpt><trkpt lat="42.3020119" lon="13.6209123"><ele>829.0</ele><time>2026-04-26T08:11:14.484Z</time></trkpt><trkpt lat="42.3018538" lon="13.6212058"><ele>829.0</ele><time>2026-04-26T08:11:15.464Z</time></trkpt><trkpt lat="42.3016934" lon="13.6215028"><ele>829.0</ele><time>2026-04-26T08:11:16.502Z</time></trkpt><trkpt lat="42.3015344" lon="13.6217915"><ele>826.5</ele><time>2026-04-26T08:11:17.553Z</time></trkpt><trkpt lat="42.3013962" lon="13.6220446"><ele>824.0</ele><time>2026-04-26T08:11:18.482Z</time></trkpt><trkpt lat="42.3012457" lon="13.6223193"><ele>824.0</ele><time>2026-04-26T08:11:19.488Z</time></trkpt><trkpt lat="42.3010936" lon="13.6225933"><ele>824.0</ele><time>2026-04-26T08:11:20.501Z</time></trkpt><trkpt lat="42.30094" lon="13.6228648"><ele>823.0</ele><time>2026-04-26T08:11:21.511Z</time></trkpt><trkpt lat="42.3007947" lon="13.6231252"><ele>822.0</ele><time>2026-04-26T08:11:22.499Z</time></trkpt><trkpt lat="42.3006538" lon="13.6233772"><ele>821.6666666666667</ele><time>2026-04-26T08:11:23.506Z</time></trkpt><trkpt lat="42.3005166" lon="13.6236227"><ele>821.3333333333334</ele><time>2026-04-26T08:11:24.507Z</time></trkpt><trkpt lat="42.3003859" lon="13.6238603"><ele>821.0</ele><time>2026-04-26T08:11:25.48Z</time></trkpt><trkpt lat="42.3002466" lon="13.6241101"><ele>821.0</ele><time>2026-04-26T08:11:26.507Z</time></trkpt><trkpt lat="42.3001162" lon="13.6243595"><ele>821.0</ele><time>2026-04-26T08:11:27.501Z</time></trkpt><trkpt lat="42.2999918" lon="13.6246114"><ele>821.0</ele><time>2026-04-26T08:11:28.502Z</time></trkpt><trkpt lat="42.2998718" lon="13.6248771"><ele>821.0</ele><time>2026-04-26T08:11:29.538Z</time></trkpt><trkpt lat="42.2997636" lon="13.6251268"><ele>821.0</ele><time>2026-04-26T08:11:30.509Z</time></trkpt><trkpt lat="42.2996594" lon="13.6253863"><ele>821.0</ele><time>2026-04-26T08:11:31.503Z</time></trkpt><trkpt lat="42.2995605" lon="13.6256516"><ele>821.0</ele><time>2026-04-26T08:11:32.51Z</time></trkpt><trkpt lat="42.299462" lon="13.6259424"><ele>820.0</ele><time>2026-04-26T08:11:33.601Z</time></trkpt><trkpt lat="42.2993135" lon="13.6264622"><ele>819.0</ele><time>2026-04-26T08:11:35.504Z</time></trkpt><trkpt lat="42.2992386" lon="13.6267461"><ele>817.6666666666667</ele><time>2026-04-26T08:11:36.561Z</time></trkpt><trkpt lat="42.2991774" lon="13.6269938"><ele>816.3333333333334</ele><time>2026-04-26T08:11:37.53Z</time></trkpt><trkpt lat="42.2991209" lon="13.6272114"><ele>815.0</ele><time>2026-04-26T08:11:38.518Z</time></trkpt><trkpt lat="42.2990697" lon="13.6274123"><ele>815.0</ele><time>2026-04-26T08:11:39.51Z</time></trkpt><trkpt lat="42.2990218" lon="13.6275986"><ele>815.0</ele><time>2026-04-26T08:11:40.499Z</time></trkpt><trkpt lat="42.2989806" lon="13.6277789"><ele>815.0</ele><time>2026-04-26T08:11:41.524Z</time></trkpt><trkpt lat="42.2989431" lon="13.6279379"><ele>815.0</ele><time>2026-04-26T08:11:42.538Z</time></trkpt><trkpt lat="42.2989078" lon="13.6280672"><ele>815.0</ele><time>2026-04-26T08:11:43.559Z</time></trkpt><trkpt lat="42.2988882" lon="13.6281634"><ele>815.0</ele><time>2026-04-26T08:11:44.545Z</time></trkpt><trkpt lat="42.298896" lon="13.6282524"><ele>815.0</ele><time>2026-04-26T08:11:45.566Z</time></trkpt><trkpt lat="42.299007" lon="13.6283473"><ele>815.0</ele><time>2026-04-26T08:11:47.507Z</time></trkpt><trkpt lat="42.2991011" lon="13.6283649"><ele>815.0</ele><time>2026-04-26T08:11:48.512Z</time></trkpt><trkpt lat="42.2992316" lon="13.6283781"><ele>815.0</ele><time>2026-04-26T08:11:49.525Z</time></trkpt><trkpt lat="42.2993907" lon="13.6284"><ele>815.0</ele><time>2026-04-26T08:11:50.475Z</time></trkpt><trkpt lat="42.2995943" lon="13.628429"><ele>815.0</ele><time>2026-04-26T08:11:51.452Z</time></trkpt><trkpt lat="42.2997872" lon="13.628457"><ele>815.3333333333334</ele><time>2026-04-26T08:11:52.388Z</time></trkpt><trkpt lat="42.2999719" lon="13.6284811"><ele>815.6666666666667</ele><time>2026-04-26T08:11:53.383Z</time></trkpt><trkpt lat="42.3001304" lon="13.62851"><ele>816.0</ele><time>2026-04-26T08:11:54.381Z</time></trkpt><trkpt lat="42.3002757" lon="13.6285456"><ele>816.0</ele><time>2026-04-26T08:11:55.38Z</time></trkpt><trkpt lat="42.3004212" lon="13.6286128"><ele>816.0</ele><time>2026-04-26T08:11:56.419Z</time></trkpt><trkpt lat="42.3005357" lon="13.6287206"><ele>816.0</ele><time>2026-04-26T08:11:57.397Z</time></trkpt><trkpt lat="42.3006312" lon="13.6288707"><ele>816.0</ele><time>2026-04-26T08:11:58.381Z</time></trkpt><trkpt lat="42.3006996" lon="13.629072"><ele>820.6666666666667</ele><time>2026-04-26T08:11:59.389Z</time></trkpt><trkpt lat="42.3007414" lon="13.6292974"><ele>825.3333333333334</ele><time>2026-04-26T08:12:00.38Z</time></trkpt><trkpt lat="42.3007577" lon="13.6295579"><ele>830.0</ele><time>2026-04-26T08:12:01.371Z</time></trkpt><trkpt lat="42.3007277" lon="13.6298433"><ele>832.0</ele><time>2026-04-26T08:12:02.374Z</time></trkpt><trkpt lat="42.3007125" lon="13.6300991"><ele>834.0</ele><time>2026-04-26T08:12:03.384Z</time></trkpt><trkpt lat="42.3007049" lon="13.6303406"><ele>836.0</ele><time>2026-04-26T08:12:04.375Z</time></trkpt><trkpt lat="42.3007002" lon="13.6306302"><ele>839.5</ele><time>2026-04-26T08:12:05.502Z</time></trkpt><trkpt lat="42.300689" lon="13.6311579"><ele>843.0</ele><time>2026-04-26T08:12:07.451Z</time></trkpt><trkpt lat="42.300683" lon="13.6314369"><ele>843.0</ele><time>2026-04-26T08:12:08.408Z</time></trkpt><trkpt lat="42.3006743" lon="13.631746"><ele>843.0</ele><time>2026-04-26T08:12:09.392Z</time></trkpt><trkpt lat="42.300665" lon="13.6320694"><ele>844.5</ele><time>2026-04-26T08:12:10.384Z</time></trkpt><trkpt lat="42.3006572" lon="13.6324"><ele>846.0</ele><time>2026-04-26T08:12:11.371Z</time></trkpt><trkpt lat="42.3006498" lon="13.6327487"><ele>847.0</ele><time>2026-04-26T08:12:12.393Z</time></trkpt><trkpt lat="42.3006435" lon="13.6331011"><ele>848.0</ele><time>2026-04-26T08:12:13.407Z</time></trkpt><trkpt lat="42.300633" lon="13.6334496"><ele>850.0</ele><time>2026-04-26T08:12:14.368Z</time></trkpt><trkpt lat="42.3006129" lon="13.6338583"><ele>852.0</ele><time>2026-04-26T08:12:15.454Z</time></trkpt><trkpt lat="42.3005877" lon="13.6341638"><ele>837.5</ele><time>2026-04-26T08:12:16.355Z</time></trkpt><trkpt lat="42.3005526" lon="13.6344987"><ele>823.0</ele><time>2026-04-26T08:12:17.369Z</time></trkpt><trkpt lat="42.300514" lon="13.6348122"><ele>823.0</ele><time>2026-04-26T08:12:18.351Z</time></trkpt><trkpt lat="42.300475" lon="13.6351303"><ele>823.0</ele><time>2026-04-26T08:12:19.354Z</time></trkpt><trkpt lat="42.3004359" lon="13.6354563"><ele>825.5</ele><time>2026-04-26T08:12:20.389Z</time></trkpt><trkpt lat="42.3003999" lon="13.6357558"><ele>828.0</ele><time>2026-04-26T08:12:21.361Z</time></trkpt><trkpt lat="42.3003673" lon="13.6360763"><ele>829.6666666666667</ele><time>2026-04-26T08:12:22.431Z</time></trkpt><trkpt lat="42.3003464" lon="13.6363437"><ele>831.3333333333334</ele><time>2026-04-26T08:12:23.362Z</time></trkpt><trkpt lat="42.3003319" lon="13.6366535"><ele>833.0</ele><time>2026-04-26T08:12:24.446Z</time></trkpt><trkpt lat="42.300317" lon="13.6369152"><ele>836.6666666666667</ele><time>2026-04-26T08:12:25.361Z</time></trkpt><trkpt lat="42.3002915" lon="13.6371807"><ele>840.3333333333333</ele><time>2026-04-26T08:12:26.356Z</time></trkpt><trkpt lat="42.3002436" lon="13.637454"><ele>844.0</ele><time>2026-04-26T08:12:27.356Z</time></trkpt><trkpt lat="42.3001758" lon="13.637725"><ele>848.6666666666666</ele><time>2026-04-26T08:12:28.37Z</time></trkpt><trkpt lat="42.3000846" lon="13.6379435"><ele>853.3333333333333</ele><time>2026-04-26T08:12:29.374Z</time></trkpt><trkpt lat="42.299966" lon="13.6381866"><ele>858.0</ele><time>2026-04-26T08:12:30.61Z</time></trkpt><trkpt lat="42.2997692" lon="13.6384727"><ele>852.3333333333333</ele><time>2026-04-26T08:12:32.387Z</time></trkpt><trkpt lat="42.2996689" lon="13.6386586"><ele>846.6666666666666</ele><time>2026-04-26T08:12:33.381Z</time></trkpt><trkpt lat="42.2995716" lon="13.6388585"><ele>841.0</ele><time>2026-04-26T08:12:34.373Z</time></trkpt><trkpt lat="42.2994799" lon="13.6390927"><ele>841.0</ele><time>2026-04-26T08:12:35.396Z</time></trkpt><trkpt lat="42.2994145" lon="13.6393366"><ele>841.0</ele><time>2026-04-26T08:12:36.358Z</time></trkpt><trkpt lat="42.2993918" lon="13.6395943"><ele>841.0</ele><time>2026-04-26T08:12:37.369Z</time></trkpt><trkpt lat="42.2993732" lon="13.6398453"><ele>842.0</ele><time>2026-04-26T08:12:38.366Z</time></trkpt><trkpt lat="42.2993688" lon="13.6401023"><ele>843.0</ele><time>2026-04-26T08:12:39.398Z</time></trkpt><trkpt lat="42.2993755" lon="13.640342"><ele>844.0</ele><time>2026-04-26T08:12:40.361Z</time></trkpt><trkpt lat="42.2994023" lon="13.6406195"><ele>846.5</ele><time>2026-04-26T08:12:41.366Z</time></trkpt><trkpt lat="42.2994448" lon="13.6409182"><ele>849.0</ele><time>2026-04-26T08:12:42.368Z</time></trkpt><trkpt lat="42.299506" lon="13.6412193"><ele>851.0</ele><time>2026-04-26T08:12:43.376Z</time></trkpt><trkpt lat="42.2995646" lon="13.6414834"><ele>853.0</ele><time>2026-04-26T08:12:44.374Z</time></trkpt><trkpt lat="42.2996177" lon="13.6417324"><ele>855.0</ele><time>2026-04-26T08:12:45.443Z</time></trkpt><trkpt lat="42.2996623" lon="13.6419377"><ele>856.0</ele><time>2026-04-26T08:12:46.409Z</time></trkpt><trkpt lat="42.2997077" lon="13.6421284"><ele>857.0</ele><time>2026-04-26T08:12:47.38Z</time></trkpt><trkpt lat="42.2997602" lon="13.6422989"><ele>858.0</ele><time>2026-04-26T08:12:48.369Z</time></trkpt><trkpt lat="42.2998156" lon="13.6424088"><ele>859.0</ele><time>2026-04-26T08:12:49.387Z</time></trkpt><trkpt lat="42.2999006" lon="13.6425441"><ele>864.6666666666666</ele><time>2026-04-26T08:12:50.393Z</time></trkpt><trkpt lat="42.2999695" lon="13.6426076"><ele>870.3333333333333</ele><time>2026-04-26T08:12:51.399Z</time></trkpt><trkpt lat="42.3001563" lon="13.6425735"><ele>876.0</ele><time>2026-04-26T08:12:53.371Z</time></trkpt><trkpt lat="42.3004528" lon="13.6424493"><ele>885.0</ele><time>2026-04-26T08:12:54.515Z</time></trkpt><trkpt lat="42.3009577" lon="13.6422375"><ele>885.0</ele><time>2026-04-26T08:12:56.362Z</time></trkpt><trkpt lat="42.3011911" lon="13.6421471"><ele>885.0</ele><time>2026-04-26T08:12:57.36Z</time></trkpt><trkpt lat="42.3014185" lon="13.642072"><ele>886.5</ele><time>2026-04-26T08:12:58.37Z</time></trkpt><trkpt lat="42.3016395" lon="13.6420353"><ele>888.0</ele><time>2026-04-26T08:12:59.378Z</time></trkpt><trkpt lat="42.3018729" lon="13.6420455"><ele>888.0</ele><time>2026-04-26T08:13:00.415Z</time></trkpt><trkpt lat="42.3020943" lon="13.6421093"><ele>888.0</ele><time>2026-04-26T08:13:01.36Z</time></trkpt><trkpt lat="42.3023201" lon="13.6421996"><ele>894.0</ele><time>2026-04-26T08:13:02.375Z</time></trkpt><trkpt lat="42.302553" lon="13.6422991"><ele>900.0</ele><time>2026-04-26T08:13:03.386Z</time></trkpt><trkpt lat="42.3027652" lon="13.6423747"><ele>900.0</ele><time>2026-04-26T08:13:04.355Z</time></trkpt><trkpt lat="42.3029836" lon="13.6424423"><ele>900.0</ele><time>2026-04-26T08:13:05.341Z</time></trkpt><trkpt lat="42.3031989" lon="13.6425101"><ele>900.0</ele><time>2026-04-26T08:13:06.39Z</time></trkpt><trkpt lat="42.3034227" lon="13.6425859"><ele>903.5</ele><time>2026-04-26T08:13:07.526Z</time></trkpt><trkpt lat="42.3036116" lon="13.6426424"><ele>907.0</ele><time>2026-04-26T08:13:08.621Z</time></trkpt><trkpt lat="42.3038908" lon="13.642775"><ele>912.3333333333333</ele><time>2026-04-26T08:13:10.354Z</time></trkpt><trkpt lat="42.3040244" lon="13.6428999"><ele>917.6666666666667</ele><time>2026-04-26T08:13:11.354Z</time></trkpt><trkpt lat="42.3041519" lon="13.643067"><ele>923.0</ele><time>2026-04-26T08:13:12.382Z</time></trkpt><trkpt lat="42.3042548" lon="13.6432684"><ele>923.0</ele><time>2026-04-26T08:13:13.366Z</time></trkpt><trkpt lat="42.3043416" lon="13.6434869"><ele>923.0</ele><time>2026-04-26T08:13:14.392Z</time></trkpt><trkpt lat="42.3044014" lon="13.643677"><ele>923.0</ele><time>2026-04-26T08:13:15.371Z</time></trkpt><trkpt lat="42.3044454" lon="13.6438563"><ele>923.2</ele><time>2026-04-26T08:13:16.363Z</time></trkpt><trkpt lat="42.3044702" lon="13.6440183"><ele>923.4</ele><time>2026-04-26T08:13:17.367Z</time></trkpt><trkpt lat="42.3045099" lon="13.6441658"><ele>923.6000000000001</ele><time>2026-04-26T08:13:18.376Z</time></trkpt><trkpt lat="42.3045695" lon="13.6442873"><ele>923.8000000000001</ele><time>2026-04-26T08:13:19.379Z</time></trkpt><trkpt lat="42.3046581" lon="13.6443528"><ele>924.0</ele><time>2026-04-26T08:13:20.368Z</time></trkpt><trkpt lat="42.3047722" lon="13.6443582"><ele>927.2</ele><time>2026-04-26T08:13:21.37Z</time></trkpt><trkpt lat="42.3048852" lon="13.6443174"><ele>930.4000000000001</ele><time>2026-04-26T08:13:22.374Z</time></trkpt><trkpt lat="42.3049668" lon="13.6442392"><ele>933.6</ele><time>2026-04-26T08:13:23.385Z</time></trkpt><trkpt lat="42.30503" lon="13.6441408"><ele>936.8</ele><time>2026-04-26T08:13:24.435Z</time></trkpt><trkpt lat="42.3050668" lon="13.6440097"><ele>940.0</ele><time>2026-04-26T08:13:25.379Z</time></trkpt><trkpt lat="42.3051151" lon="13.6438305"><ele>940.0</ele><time>2026-04-26T08:13:26.383Z</time></trkpt><trkpt lat="42.3051437" lon="13.6436146"><ele>940.0</ele><time>2026-04-26T08:13:27.345Z</time></trkpt><trkpt lat="42.3051271" lon="13.6433518"><ele>940.0</ele><time>2026-04-26T08:13:28.356Z</time></trkpt><trkpt lat="42.3051156" lon="13.643131"><ele>940.0</ele><time>2026-04-26T08:13:29.341Z</time></trkpt><trkpt lat="42.3051296" lon="13.6429522"><ele>940.0</ele><time>2026-04-26T08:13:30.356Z</time></trkpt><trkpt lat="42.3051633" lon="13.6427592"><ele>940.0</ele><time>2026-04-26T08:13:31.365Z</time></trkpt><trkpt lat="42.305218" lon="13.6426572"><ele>940.0</ele><time>2026-04-26T08:13:32.357Z</time></trkpt><trkpt lat="42.3052826" lon="13.6426274"><ele>940.0</ele><time>2026-04-26T08:13:33.377Z</time></trkpt><trkpt lat="42.3053467" lon="13.6426729"><ele>940.0</ele><time>2026-04-26T08:13:34.384Z</time></trkpt><trkpt lat="42.305415" lon="13.6428022"><ele>940.0</ele><time>2026-04-26T08:13:35.378Z</time></trkpt><trkpt lat="42.3054596" lon="13.6429852"><ele>940.0</ele><time>2026-04-26T08:13:36.398Z</time></trkpt><trkpt lat="42.3054881" lon="13.6432377"><ele>940.0</ele><time>2026-04-26T08:13:37.383Z</time></trkpt><trkpt lat="42.3055149" lon="13.643568"><ele>940.0</ele><time>2026-04-26T08:13:38.41Z</time></trkpt><trkpt lat="42.3055482" lon="13.6439561"><ele>940.0</ele><time>2026-04-26T08:13:39.489Z</time></trkpt><trkpt lat="42.3056119" lon="13.644738"><ele>951.0</ele><time>2026-04-26T08:13:41.403Z</time></trkpt><trkpt lat="42.3056539" lon="13.645166"><ele>962.0</ele><time>2026-04-26T08:13:42.357Z</time></trkpt><trkpt lat="42.3056979" lon="13.6456258"><ele>962.5</ele><time>2026-04-26T08:13:43.366Z</time></trkpt><trkpt lat="42.3057376" lon="13.6460409"><ele>963.0</ele><time>2026-04-26T08:13:44.382Z</time></trkpt><trkpt lat="42.3057723" lon="13.6464202"><ele>964.5</ele><time>2026-04-26T08:13:45.386Z</time></trkpt><trkpt lat="42.3057873" lon="13.6467985"><ele>966.0</ele><time>2026-04-26T08:13:46.46Z</time></trkpt><trkpt lat="42.3057844" lon="13.6470987"><ele>966.6666666666667</ele><time>2026-04-26T08:13:47.387Z</time></trkpt><trkpt lat="42.3057766" lon="13.6474008"><ele>967.3333333333334</ele><time>2026-04-26T08:13:48.378Z</time></trkpt><trkpt lat="42.3057608" lon="13.647693"><ele>968.0</ele><time>2026-04-26T08:13:49.344Z</time></trkpt><trkpt lat="42.3057335" lon="13.6479875"><ele>970.6666666666667</ele><time>2026-04-26T08:13:50.378Z</time></trkpt><trkpt lat="42.3056893" lon="13.6482374"><ele>973.3333333333333</ele><time>2026-04-26T08:13:51.354Z</time></trkpt><trkpt lat="42.3056428" lon="13.6484715"><ele>976.0</ele><time>2026-04-26T08:13:52.348Z</time></trkpt><trkpt lat="42.3055973" lon="13.6486927"><ele>969.75</ele><time>2026-04-26T08:13:53.363Z</time></trkpt><trkpt lat="42.3055572" lon="13.648912"><ele>963.5</ele><time>2026-04-26T08:13:54.48Z</time></trkpt><trkpt lat="42.3055323" lon="13.6490819"><ele>957.25</ele><time>2026-04-26T08:13:55.395Z</time></trkpt><trkpt lat="42.3055143" lon="13.6492654"><ele>951.0</ele><time>2026-04-26T08:13:56.393Z</time></trkpt><trkpt lat="42.3055058" lon="13.649441"><ele>952.1999999999999</ele><time>2026-04-26T08:13:57.39Z</time></trkpt><trkpt lat="42.3055041" lon="13.6496038"><ele>953.3999999999999</ele><time>2026-04-26T08:13:58.367Z</time></trkpt><trkpt lat="42.305504" lon="13.6497624"><ele>954.6</ele><time>2026-04-26T08:13:59.365Z</time></trkpt><trkpt lat="42.3055009" lon="13.6499093"><ele>955.8</ele><time>2026-04-26T08:14:00.37Z</time></trkpt><trkpt lat="42.3054876" lon="13.6500467"><ele>957.0</ele><time>2026-04-26T08:14:01.386Z</time></trkpt><trkpt lat="42.3054612" lon="13.6501691"><ele>957.0</ele><time>2026-04-26T08:14:02.388Z</time></trkpt><trkpt lat="42.305433" lon="13.6502814"><ele>957.0</ele><time>2026-04-26T08:14:03.381Z</time></trkpt><trkpt lat="42.3054081" lon="13.6504018"><ele>957.0</ele><time>2026-04-26T08:14:04.365Z</time></trkpt><trkpt lat="42.3053661" lon="13.6505125"><ele>957.0</ele><time>2026-04-26T08:14:05.361Z</time></trkpt><trkpt lat="42.3053115" lon="13.6505926"><ele>957.0</ele><time>2026-04-26T08:14:06.346Z</time></trkpt><trkpt lat="42.3052268" lon="13.6506759"><ele>961.25</ele><time>2026-04-26T08:14:07.343Z</time></trkpt><trkpt lat="42.3051225" lon="13.6507328"><ele>965.5</ele><time>2026-04-26T08:14:08.345Z</time></trkpt><trkpt lat="42.3050137" lon="13.6508355"><ele>969.75</ele><time>2026-04-26T08:14:09.362Z</time></trkpt><trkpt lat="42.3048974" lon="13.6509746"><ele>974.0</ele><time>2026-04-26T08:14:10.391Z</time></trkpt><trkpt lat="42.3047792" lon="13.6511247"><ele>974.6666666666667</ele><time>2026-04-26T08:14:11.365Z</time></trkpt><trkpt lat="42.3046407" lon="13.6513311"><ele>975.3333333333333</ele><time>2026-04-26T08:14:12.427Z</time></trkpt><trkpt lat="42.304523" lon="13.6515236"><ele>976.0</ele><time>2026-04-26T08:14:13.368Z</time></trkpt><trkpt lat="42.3044079" lon="13.6517035"><ele>976.0</ele><time>2026-04-26T08:14:14.373Z</time></trkpt><trkpt lat="42.3042948" lon="13.6518808"><ele>976.0</ele><time>2026-04-26T08:14:15.364Z</time></trkpt><trkpt lat="42.3041797" lon="13.652061"><ele>976.0</ele><time>2026-04-26T08:14:16.362Z</time></trkpt><trkpt lat="42.3040657" lon="13.6522436"><ele>974.0</ele><time>2026-04-26T08:14:17.364Z</time></trkpt><trkpt lat="42.3039455" lon="13.652432"><ele>972.0</ele><time>2026-04-26T08:14:18.384Z</time></trkpt><trkpt lat="42.3038269" lon="13.6526159"><ele>970.0</ele><time>2026-04-26T08:14:19.364Z</time></trkpt><trkpt lat="42.3037089" lon="13.6528123"><ele>977.3333333333333</ele><time>2026-04-26T08:14:20.369Z</time></trkpt><trkpt lat="42.3035903" lon="13.6530196"><ele>984.6666666666667</ele><time>2026-04-26T08:14:21.393Z</time></trkpt><trkpt lat="42.3034764" lon="13.6532132"><ele>992.0</ele><time>2026-04-26T08:14:22.343Z</time></trkpt><trkpt lat="42.3033492" lon="13.6534336"><ele>992.6666666666667</ele><time>2026-04-26T08:14:23.388Z</time></trkpt><trkpt lat="42.3032335" lon="13.6536362"><ele>993.3333333333333</ele><time>2026-04-26T08:14:24.371Z</time></trkpt><trkpt lat="42.3031303" lon="13.6538155"><ele>994.0</ele><time>2026-04-26T08:14:25.348Z</time></trkpt><trkpt lat="42.3030317" lon="13.6539895"><ele>994.0</ele><time>2026-04-26T08:14:26.354Z</time></trkpt><trkpt lat="42.302935" lon="13.654151"><ele>994.0</ele><time>2026-04-26T08:14:27.36Z</time></trkpt><trkpt lat="42.3028312" lon="13.6543042"><ele>994.0</ele><time>2026-04-26T08:14:28.358Z</time></trkpt><trkpt lat="42.302715" lon="13.6544458"><ele>1000.0</ele><time>2026-04-26T08:14:29.359Z</time></trkpt><trkpt lat="42.3025806" lon="13.6545709"><ele>1006.0</ele><time>2026-04-26T08:14:30.38Z</time></trkpt><trkpt lat="42.3024444" lon="13.6546778"><ele>1012.0</ele><time>2026-04-26T08:14:31.369Z</time></trkpt><trkpt lat="42.3022979" lon="13.6547838"><ele>1012.6666666666666</ele><time>2026-04-26T08:14:32.461Z</time></trkpt><trkpt lat="42.3020672" lon="13.6549229"><ele>1013.3333333333333</ele><time>2026-04-26T08:14:34.341Z</time></trkpt><trkpt lat="42.3019425" lon="13.6549339"><ele>1014.0</ele><time>2026-04-26T08:14:35.357Z</time></trkpt><trkpt lat="42.3018233" lon="13.6549104"><ele>1014.0</ele><time>2026-04-26T08:14:36.368Z</time></trkpt><trkpt lat="42.3017028" lon="13.6548569"><ele>1014.0</ele><time>2026-04-26T08:14:37.464Z</time></trkpt><trkpt lat="42.3016254" lon="13.6548445"><ele>1014.0</ele><time>2026-04-26T08:14:38.373Z</time></trkpt><trkpt lat="42.3015499" lon="13.6548438"><ele>1014.0</ele><time>2026-04-26T08:14:39.35Z</time></trkpt><trkpt lat="42.3014848" lon="13.6548206"><ele>1014.0</ele><time>2026-04-26T08:14:40.356Z</time></trkpt><trkpt lat="42.3015555" lon="13.654876"><ele>1014.0</ele><time>2026-04-26T08:14:42.373Z</time></trkpt><trkpt lat="42.3016655" lon="13.6549195"><ele>1014.0</ele><time>2026-04-26T08:14:43.359Z</time></trkpt><trkpt lat="42.3018083" lon="13.6549731"><ele>1014.0</ele><time>2026-04-26T08:14:44.356Z</time></trkpt><trkpt lat="42.3019665" lon="13.6550336"><ele>1014.0</ele><time>2026-04-26T08:14:45.355Z</time></trkpt><trkpt lat="42.3021232" lon="13.6550937"><ele>1013.3333333333333</ele><time>2026-04-26T08:14:46.357Z</time></trkpt><trkpt lat="42.3022693" lon="13.6551485"><ele>1012.6666666666666</ele><time>2026-04-26T08:14:47.347Z</time></trkpt><trkpt lat="42.3024269" lon="13.6551856"><ele>1012.0</ele><time>2026-04-26T08:14:48.385Z</time></trkpt><trkpt lat="42.3025691" lon="13.6551882"><ele>1012.0</ele><time>2026-04-26T08:14:49.363Z</time></trkpt><trkpt lat="42.3027052" lon="13.6551591"><ele>1012.0</ele><time>2026-04-26T08:14:50.366Z</time></trkpt><trkpt lat="42.3028223" lon="13.6551044"><ele>1012.0</ele><time>2026-04-26T08:14:51.367Z</time></trkpt><trkpt lat="42.3029212" lon="13.6550299"><ele>1012.0</ele><time>2026-04-26T08:14:52.387Z</time></trkpt><trkpt lat="42.3030058" lon="13.6549664"><ele>1013.9999999999999</ele><time>2026-04-26T08:14:53.373Z</time></trkpt><trkpt lat="42.3030875" lon="13.654928"><ele>1016.0</ele><time>2026-04-26T08:14:54.417Z</time></trkpt><trkpt lat="42.3031582" lon="13.6549286"><ele>1018.0</ele><time>2026-04-26T08:14:55.364Z</time></trkpt><trkpt lat="42.3032185" lon="13.6549748"><ele>1020.0</ele><time>2026-04-26T08:14:56.362Z</time></trkpt><trkpt lat="42.3032467" lon="13.6550552"><ele>1021.9999999999999</ele><time>2026-04-26T08:14:57.358Z</time></trkpt><trkpt lat="42.3032386" lon="13.6551613"><ele>1024.0</ele><time>2026-04-26T08:14:58.387Z</time></trkpt><trkpt lat="42.3032037" lon="13.6552855"><ele>1024.25</ele><time>2026-04-26T08:14:59.352Z</time></trkpt><trkpt lat="42.3031469" lon="13.6554481"><ele>1024.5</ele><time>2026-04-26T08:15:00.399Z</time></trkpt><trkpt lat="42.3030882" lon="13.6556083"><ele>1024.75</ele><time>2026-04-26T08:15:01.348Z</time></trkpt><trkpt lat="42.3030358" lon="13.6557906"><ele>1025.0</ele><time>2026-04-26T08:15:02.363Z</time></trkpt><trkpt lat="42.3029708" lon="13.6559712"><ele>1027.3333333333335</ele><time>2026-04-26T08:15:03.372Z</time></trkpt><trkpt lat="42.3028893" lon="13.6561466"><ele>1029.6666666666667</ele><time>2026-04-26T08:15:04.344Z</time></trkpt><trkpt lat="42.3027799" lon="13.6563543"><ele>1032.0</ele><time>2026-04-26T08:15:05.465Z</time></trkpt><trkpt lat="42.3027026" lon="13.6565382"><ele>1032.0</ele><time>2026-04-26T08:15:06.383Z</time></trkpt><trkpt lat="42.3026331" lon="13.6567522"><ele>1032.0</ele><time>2026-04-26T08:15:07.363Z</time></trkpt><trkpt lat="42.3025782" lon="13.6569942"><ele>1032.0</ele><time>2026-04-26T08:15:08.337Z</time></trkpt><trkpt lat="42.3025309" lon="13.6572652"><ele>1030.6666666666667</ele><time>2026-04-26T08:15:09.356Z</time></trkpt><trkpt lat="42.302493" lon="13.6575277"><ele>1029.3333333333335</ele><time>2026-04-26T08:15:10.337Z</time></trkpt><trkpt lat="42.3024514" lon="13.6578113"><ele>1028.0</ele><time>2026-04-26T08:15:11.373Z</time></trkpt><trkpt lat="42.3024215" lon="13.6580802"><ele>1026.3333333333335</ele><time>2026-04-26T08:15:12.335Z</time></trkpt><trkpt lat="42.3024029" lon="13.6583667"><ele>1024.6666666666667</ele><time>2026-04-26T08:15:13.361Z</time></trkpt><trkpt lat="42.3023942" lon="13.65865"><ele>1023.0</ele><time>2026-04-26T08:15:14.37Z</time></trkpt><trkpt lat="42.3023873" lon="13.6589282"><ele>1022.0</ele><time>2026-04-26T08:15:15.349Z</time></trkpt><trkpt lat="42.3023828" lon="13.6592152"><ele>1021.0</ele><time>2026-04-26T08:15:16.343Z</time></trkpt><trkpt lat="42.3023833" lon="13.6595068"><ele>1020.0</ele><time>2026-04-26T08:15:17.373Z</time></trkpt><trkpt lat="42.302385" lon="13.6597821"><ele>1019.6666666666667</ele><time>2026-04-26T08:15:18.353Z</time></trkpt><trkpt lat="42.3023857" lon="13.6600638"><ele>1019.3333333333334</ele><time>2026-04-26T08:15:19.359Z</time></trkpt><trkpt lat="42.302382" lon="13.6603377"><ele>1019.0</ele><time>2026-04-26T08:15:20.368Z</time></trkpt><trkpt lat="42.3023744" lon="13.6606083"><ele>1019.6666666666667</ele><time>2026-04-26T08:15:21.367Z</time></trkpt><trkpt lat="42.3023563" lon="13.6608696"><ele>1020.3333333333333</ele><time>2026-04-26T08:15:22.353Z</time></trkpt><trkpt lat="42.302329" lon="13.6611344"><ele>1021.0</ele><time>2026-04-26T08:15:23.351Z</time></trkpt><trkpt lat="42.3022934" lon="13.6614023"><ele>1026.6666666666665</ele><time>2026-04-26T08:15:24.362Z</time></trkpt><trkpt lat="42.3022476" lon="13.6616731"><ele>1032.3333333333333</ele><time>2026-04-26T08:15:25.364Z</time></trkpt><trkpt lat="42.3021881" lon="13.6619387"><ele>1038.0</ele><time>2026-04-26T08:15:26.361Z</time></trkpt><trkpt lat="42.302112" lon="13.6622081"><ele>1038.0</ele><time>2026-04-26T08:15:27.365Z</time></trkpt><trkpt lat="42.3020204" lon="13.6624723"><ele>1038.0</ele><time>2026-04-26T08:15:28.364Z</time></trkpt><trkpt lat="42.3019216" lon="13.6627227"><ele>1038.0</ele><time>2026-04-26T08:15:29.372Z</time></trkpt><trkpt lat="42.3018258" lon="13.6629483"><ele>1033.0</ele><time>2026-04-26T08:15:30.346Z</time></trkpt><trkpt lat="42.3017156" lon="13.6631918"><ele>1028.0</ele><time>2026-04-26T08:15:31.486Z</time></trkpt><trkpt lat="42.301528" lon="13.6635232"><ele>1027.0</ele><time>2026-04-26T08:15:33.356Z</time></trkpt><trkpt lat="42.3014202" lon="13.6636935"><ele>1026.0</ele><time>2026-04-26T08:15:34.459Z</time></trkpt><trkpt lat="42.3013447" lon="13.6638415"><ele>1025.0</ele><time>2026-04-26T08:15:35.373Z</time></trkpt><trkpt lat="42.3012873" lon="13.6640081"><ele>1024.0</ele><time>2026-04-26T08:15:36.362Z</time></trkpt><trkpt lat="42.3012605" lon="13.6641834"><ele>1025.5</ele><time>2026-04-26T08:15:37.347Z</time></trkpt><trkpt lat="42.3012771" lon="13.6643563"><ele>1027.0</ele><time>2026-04-26T08:15:38.358Z</time></trkpt><trkpt lat="42.3013439" lon="13.6645134"><ele>1028.5</ele><time>2026-04-26T08:15:39.359Z</time></trkpt><trkpt lat="42.3014261" lon="13.6646681"><ele>1030.0</ele><time>2026-04-26T08:15:40.384Z</time></trkpt><trkpt lat="42.3014744" lon="13.6648115"><ele>1030.0</ele><time>2026-04-26T08:15:41.369Z</time></trkpt><trkpt lat="42.3014859" lon="13.6649748"><ele>1030.0</ele><time>2026-04-26T08:15:42.352Z</time></trkpt><trkpt lat="42.3014356" lon="13.665202"><ele>1030.0</ele><time>2026-04-26T08:15:43.36Z</time></trkpt><trkpt lat="42.3013529" lon="13.6654099"><ele>1032.6666666666665</ele><time>2026-04-26T08:15:44.361Z</time></trkpt><trkpt lat="42.3012594" lon="13.6656367"><ele>1035.3333333333333</ele><time>2026-04-26T08:15:45.358Z</time></trkpt><trkpt lat="42.3011658" lon="13.6658821"><ele>1038.0</ele><time>2026-04-26T08:15:46.359Z</time></trkpt><trkpt lat="42.3010873" lon="13.6661093"><ele>1039.0</ele><time>2026-04-26T08:15:47.345Z</time></trkpt><trkpt lat="42.3010234" lon="13.6663494"><ele>1040.0</ele><time>2026-04-26T08:15:48.345Z</time></trkpt><trkpt lat="42.3009883" lon="13.6666464"><ele>1041.0</ele><time>2026-04-26T08:15:49.452Z</time></trkpt><trkpt lat="42.300976" lon="13.6669264"><ele>1043.0</ele><time>2026-04-26T08:15:50.36Z</time></trkpt><trkpt lat="42.3009716" lon="13.6672573"><ele>1045.0</ele><time>2026-04-26T08:15:51.369Z</time></trkpt><trkpt lat="42.3009692" lon="13.6675908"><ele>1046.0</ele><time>2026-04-26T08:15:52.353Z</time></trkpt><trkpt lat="42.3009677" lon="13.6679093"><ele>1047.0</ele><time>2026-04-26T08:15:53.319Z</time></trkpt><trkpt lat="42.3009533" lon="13.668205"><ele>1047.0</ele><time>2026-04-26T08:15:54.35Z</time></trkpt><trkpt lat="42.3009319" lon="13.6684748"><ele>1047.0</ele><time>2026-04-26T08:15:55.38Z</time></trkpt><trkpt lat="42.300915" lon="13.6687089"><ele>1047.0</ele><time>2026-04-26T08:15:56.328Z</time></trkpt><trkpt lat="42.300898" lon="13.6689599"><ele>1047.3333333333333</ele><time>2026-04-26T08:15:57.358Z</time></trkpt><trkpt lat="42.3008801" lon="13.669208"><ele>1047.6666666666665</ele><time>2026-04-26T08:15:58.352Z</time></trkpt><trkpt lat="42.3008518" lon="13.6694502"><ele>1048.0</ele><time>2026-04-26T08:15:59.332Z</time></trkpt><trkpt lat="42.300806" lon="13.6697032"><ele>1049.3333333333333</ele><time>2026-04-26T08:16:00.342Z</time></trkpt><trkpt lat="42.3007526" lon="13.6699511"><ele>1050.6666666666667</ele><time>2026-04-26T08:16:01.34Z</time></trkpt><trkpt lat="42.3006969" lon="13.6702097"><ele>1052.0</ele><time>2026-04-26T08:16:02.352Z</time></trkpt><trkpt lat="42.300641" lon="13.6704644"><ele>1053.3333333333335</ele><time>2026-04-26T08:16:03.333Z</time></trkpt><trkpt lat="42.3005841" lon="13.6707179"><ele>1054.6666666666667</ele><time>2026-04-26T08:16:04.339Z</time></trkpt><trkpt lat="42.3005334" lon="13.6709525"><ele>1056.0</ele><time>2026-04-26T08:16:05.346Z</time></trkpt><trkpt lat="42.3004842" lon="13.6711935"><ele>1057.5</ele><time>2026-04-26T08:16:06.428Z</time></trkpt><trkpt lat="42.3004147" lon="13.6716242"><ele>1059.0</ele><time>2026-04-26T08:16:08.353Z</time></trkpt><trkpt lat="42.3004067" lon="13.6718672"><ele>1053.3333333333333</ele><time>2026-04-26T08:16:09.376Z</time></trkpt><trkpt lat="42.3004241" lon="13.6721049"><ele>1047.6666666666665</ele><time>2026-04-26T08:16:10.352Z</time></trkpt><trkpt lat="42.3004698" lon="13.6723539"><ele>1042.0</ele><time>2026-04-26T08:16:11.38Z</time></trkpt><trkpt lat="42.3005226" lon="13.6725705"><ele>1041.0</ele><time>2026-04-26T08:16:12.342Z</time></trkpt><trkpt lat="42.3005749" lon="13.6727897"><ele>1040.0</ele><time>2026-04-26T08:16:13.366Z</time></trkpt><trkpt lat="42.3006265" lon="13.6729988"><ele>1039.0</ele><time>2026-04-26T08:16:14.382Z</time></trkpt><trkpt lat="42.3006864" lon="13.6731878"><ele>1039.0</ele><time>2026-04-26T08:16:15.348Z</time></trkpt><trkpt lat="42.3007717" lon="13.6733816"><ele>1039.0</ele><time>2026-04-26T08:16:16.408Z</time></trkpt><trkpt lat="42.3008643" lon="13.6735524"><ele>1039.0</ele><time>2026-04-26T08:16:17.355Z</time></trkpt><trkpt lat="42.3009839" lon="13.6737191"><ele>1033.6666666666665</ele><time>2026-04-26T08:16:18.386Z</time></trkpt><trkpt lat="42.3011061" lon="13.6738759"><ele>1028.3333333333333</ele><time>2026-04-26T08:16:19.38Z</time></trkpt><trkpt lat="42.3012275" lon="13.6740279"><ele>1023.0</ele><time>2026-04-26T08:16:20.389Z</time></trkpt><trkpt lat="42.3013561" lon="13.6741906"><ele>1022.3333333333333</ele><time>2026-04-26T08:16:21.475Z</time></trkpt><trkpt lat="42.3014594" lon="13.6743303"><ele>1021.6666666666666</ele><time>2026-04-26T08:16:22.383Z</time></trkpt><trkpt lat="42.3015605" lon="13.674487"><ele>1021.0</ele><time>2026-04-26T08:16:23.373Z</time></trkpt><trkpt lat="42.3016541" lon="13.6746808"><ele>1021.0</ele><time>2026-04-26T08:16:24.495Z</time></trkpt><trkpt lat="42.3017778" lon="13.6750251"><ele>1021.0</ele><time>2026-04-26T08:16:26.399Z</time></trkpt><trkpt lat="42.3018559" lon="13.6751946"><ele>1021.0</ele><time>2026-04-26T08:16:27.38Z</time></trkpt><trkpt lat="42.3019504" lon="13.6753482"><ele>1020.25</ele><time>2026-04-26T08:16:28.378Z</time></trkpt><trkpt lat="42.3020537" lon="13.6754802"><ele>1019.5</ele><time>2026-04-26T08:16:29.364Z</time></trkpt><trkpt lat="42.3021689" lon="13.6755976"><ele>1018.75</ele><time>2026-04-26T08:16:30.355Z</time></trkpt><trkpt lat="42.3023063" lon="13.6757153"><ele>1018.0</ele><time>2026-04-26T08:16:31.427Z</time></trkpt><trkpt lat="42.3024339" lon="13.6758055"><ele>1018.0</ele><time>2026-04-26T08:16:32.354Z</time></trkpt><trkpt lat="42.3025747" lon="13.6758947"><ele>1018.0</ele><time>2026-04-26T08:16:33.359Z</time></trkpt><trkpt lat="42.3027213" lon="13.6759748"><ele>1018.0</ele><time>2026-04-26T08:16:34.392Z</time></trkpt><trkpt lat="42.3028634" lon="13.676032"><ele>1018.0</ele><time>2026-04-26T08:16:35.404Z</time></trkpt><trkpt lat="42.3029987" lon="13.6760572"><ele>1018.0</ele><time>2026-04-26T08:16:36.382Z</time></trkpt><trkpt lat="42.3031312" lon="13.6760537"><ele>1018.0</ele><time>2026-04-26T08:16:37.372Z</time></trkpt><trkpt lat="42.3032565" lon="13.6760566"><ele>1018.0</ele><time>2026-04-26T08:16:38.409Z</time></trkpt><trkpt lat="42.3033688" lon="13.6760974"><ele>1015.0</ele><time>2026-04-26T08:16:39.376Z</time></trkpt><trkpt lat="42.3034782" lon="13.6761962"><ele>1012.0</ele><time>2026-04-26T08:16:40.571Z</time></trkpt><trkpt lat="42.3035342" lon="13.6762993"><ele>1009.0</ele><time>2026-04-26T08:16:41.49Z</time></trkpt><trkpt lat="42.3035806" lon="13.6764353"><ele>1006.0</ele><time>2026-04-26T08:16:42.451Z</time></trkpt><trkpt lat="42.303626" lon="13.6765949"><ele>1006.0</ele><time>2026-04-26T08:16:43.454Z</time></trkpt><trkpt lat="42.3036958" lon="13.6767544"><ele>1006.0</ele><time>2026-04-26T08:16:44.438Z</time></trkpt><trkpt lat="42.30379" lon="13.6769266"><ele>1006.0</ele><time>2026-04-26T08:16:45.453Z</time></trkpt><trkpt lat="42.3038823" lon="13.6771021"><ele>1008.5</ele><time>2026-04-26T08:16:46.411Z</time></trkpt><trkpt lat="42.3039791" lon="13.6772811"><ele>1011.0</ele><time>2026-04-26T08:16:47.446Z</time></trkpt><trkpt lat="42.3040697" lon="13.6774367"><ele>1013.5</ele><time>2026-04-26T08:16:48.457Z</time></trkpt><trkpt lat="42.3041493" lon="13.6775771"><ele>1016.0</ele><time>2026-04-26T08:16:49.435Z</time></trkpt><trkpt lat="42.3042261" lon="13.6777087"><ele>1016.0</ele><time>2026-04-26T08:16:50.453Z</time></trkpt><trkpt lat="42.3043067" lon="13.677809"><ele>1016.0</ele><time>2026-04-26T08:16:51.465Z</time></trkpt><trkpt lat="42.304402" lon="13.6778674"><ele>1016.0</ele><time>2026-04-26T08:16:52.57Z</time></trkpt><trkpt lat="42.304574" lon="13.6778173"><ele>1016.0</ele><time>2026-04-26T08:16:54.569Z</time></trkpt><trkpt lat="42.3047295" lon="13.677612"><ele>1016.0</ele><time>2026-04-26T08:16:56.47Z</time></trkpt><trkpt lat="42.3048333" lon="13.6774933"><ele>1016.0</ele><time>2026-04-26T08:16:57.477Z</time></trkpt><trkpt lat="42.3049375" lon="13.6773675"><ele>1016.0</ele><time>2026-04-26T08:16:58.435Z</time></trkpt><trkpt lat="42.3050376" lon="13.6772411"><ele>1016.0</ele><time>2026-04-26T08:16:59.462Z</time></trkpt><trkpt lat="42.3051317" lon="13.6771347"><ele>1016.0</ele><time>2026-04-26T08:17:00.447Z</time></trkpt><trkpt lat="42.3052424" lon="13.6770458"><ele>1016.0</ele><time>2026-04-26T08:17:01.448Z</time></trkpt><trkpt lat="42.3053629" lon="13.6769721"><ele>1016.0</ele><time>2026-04-26T08:17:02.437Z</time></trkpt><trkpt lat="42.3054907" lon="13.6769119"><ele>1016.0</ele><time>2026-04-26T08:17:03.443Z</time></trkpt><trkpt lat="42.3056302" lon="13.6768684"><ele>1022.0</ele><time>2026-04-26T08:17:04.434Z</time></trkpt><trkpt lat="42.3057834" lon="13.676855"><ele>1028.0</ele><time>2026-04-26T08:17:05.428Z</time></trkpt><trkpt lat="42.3059409" lon="13.6768515"><ele>1034.0</ele><time>2026-04-26T08:17:06.441Z</time></trkpt><trkpt lat="42.3060791" lon="13.6768476"><ele>1040.0</ele><time>2026-04-26T08:17:07.413Z</time></trkpt><trkpt lat="42.3062183" lon="13.6768456"><ele>1040.0</ele><time>2026-04-26T08:17:08.421Z</time></trkpt><trkpt lat="42.3063445" lon="13.6768423"><ele>1040.0</ele><time>2026-04-26T08:17:09.439Z</time></trkpt><trkpt lat="42.3064754" lon="13.676831"><ele>1040.0</ele><time>2026-04-26T08:17:10.42Z</time></trkpt><trkpt lat="42.3066113" lon="13.6768059"><ele>1040.0</ele><time>2026-04-26T08:17:11.417Z</time></trkpt><trkpt lat="42.3067526" lon="13.6767585"><ele>1038.0</ele><time>2026-04-26T08:17:12.439Z</time></trkpt><trkpt lat="42.3068882" lon="13.6766917"><ele>1036.0</ele><time>2026-04-26T08:17:13.44Z</time></trkpt><trkpt lat="42.3070108" lon="13.6766214"><ele>1034.0</ele><time>2026-04-26T08:17:14.457Z</time></trkpt><trkpt lat="42.3071256" lon="13.6765605"><ele>1032.0</ele><time>2026-04-26T08:17:15.418Z</time></trkpt><trkpt lat="42.3072552" lon="13.6765046"><ele>1030.0</ele><time>2026-04-26T08:17:16.491Z</time></trkpt><trkpt lat="42.3073818" lon="13.6764716"><ele>1028.0</ele><time>2026-04-26T08:17:17.452Z</time></trkpt><trkpt lat="42.3075178" lon="13.676472"><ele>1026.0</ele><time>2026-04-26T08:17:18.439Z</time></trkpt><trkpt lat="42.3076357" lon="13.6765296"><ele>1024.0</ele><time>2026-04-26T08:17:19.447Z</time></trkpt><trkpt lat="42.307741" lon="13.676593"><ele>1024.0</ele><time>2026-04-26T08:17:20.469Z</time></trkpt><trkpt lat="42.307835" lon="13.6766587"><ele>1024.0</ele><time>2026-04-26T08:17:21.46Z</time></trkpt><trkpt lat="42.3079193" lon="13.6766991"><ele>1024.0</ele><time>2026-04-26T08:17:22.462Z</time></trkpt><trkpt lat="42.3079877" lon="13.6767065"><ele>1024.0</ele><time>2026-04-26T08:17:23.466Z</time></trkpt><trkpt lat="42.3080601" lon="13.6766598"><ele>1024.0</ele><time>2026-04-26T08:17:24.494Z</time></trkpt><trkpt lat="42.3081899" lon="13.6765351"><ele>1024.75</ele><time>2026-04-26T08:17:25.445Z</time></trkpt><trkpt lat="42.3082996" lon="13.6764692"><ele>1025.5</ele><time>2026-04-26T08:17:26.464Z</time></trkpt><trkpt lat="42.3084053" lon="13.6765023"><ele>1026.25</ele><time>2026-04-26T08:17:27.441Z</time></trkpt><trkpt lat="42.3084936" lon="13.6766308"><ele>1027.0</ele><time>2026-04-26T08:17:28.458Z</time></trkpt><trkpt lat="42.3085717" lon="13.6767722"><ele>1027.0</ele><time>2026-04-26T08:17:29.46Z</time></trkpt><trkpt lat="42.3086529" lon="13.6768972"><ele>1027.0</ele><time>2026-04-26T08:17:30.46Z</time></trkpt><trkpt lat="42.308747" lon="13.6770042"><ele>1027.0</ele><time>2026-04-26T08:17:31.465Z</time></trkpt><trkpt lat="42.308851" lon="13.6770878"><ele>1027.0</ele><time>2026-04-26T08:17:32.478Z</time></trkpt><trkpt lat="42.3089559" lon="13.6771596"><ele>1026.75</ele><time>2026-04-26T08:17:33.434Z</time></trkpt><trkpt lat="42.3090678" lon="13.6772403"><ele>1026.5</ele><time>2026-04-26T08:17:34.445Z</time></trkpt><trkpt lat="42.3091769" lon="13.6773288"><ele>1026.25</ele><time>2026-04-26T08:17:35.467Z</time></trkpt><trkpt lat="42.3092719" lon="13.6774303"><ele>1026.0</ele><time>2026-04-26T08:17:36.452Z</time></trkpt><trkpt lat="42.3093524" lon="13.677552"><ele>1026.0</ele><time>2026-04-26T08:17:37.473Z</time></trkpt><trkpt lat="42.3094158" lon="13.6776731"><ele>1026.0</ele><time>2026-04-26T08:17:38.467Z</time></trkpt><trkpt lat="42.3094771" lon="13.6777935"><ele>1026.0</ele><time>2026-04-26T08:17:39.471Z</time></trkpt><trkpt lat="42.3095318" lon="13.6779074"><ele>1026.0</ele><time>2026-04-26T08:17:40.488Z</time></trkpt><trkpt lat="42.3095788" lon="13.6780098"><ele>1026.0</ele><time>2026-04-26T08:17:41.467Z</time></trkpt><trkpt lat="42.3096217" lon="13.678126"><ele>1024.3999999999999</ele><time>2026-04-26T08:17:42.562Z</time></trkpt><trkpt lat="42.3096573" lon="13.6782242"><ele>1022.8</ele><time>2026-04-26T08:17:43.482Z</time></trkpt><trkpt lat="42.3096961" lon="13.6783276"><ele>1021.1999999999999</ele><time>2026-04-26T08:17:44.472Z</time></trkpt><trkpt lat="42.3097387" lon="13.6784412"><ele>1019.5999999999999</ele><time>2026-04-26T08:17:45.458Z</time></trkpt><trkpt lat="42.309793" lon="13.6785686"><ele>1018.0</ele><time>2026-04-26T08:17:46.475Z</time></trkpt><trkpt lat="42.3098538" lon="13.6786962"><ele>1018.0</ele><time>2026-04-26T08:17:47.479Z</time></trkpt><trkpt lat="42.3099251" lon="13.678835"><ele>1018.0</ele><time>2026-04-26T08:17:48.529Z</time></trkpt><trkpt lat="42.309993" lon="13.6789643"><ele>1018.0</ele><time>2026-04-26T08:17:49.486Z</time></trkpt><trkpt lat="42.3100687" lon="13.6791096"><ele>1018.0</ele><time>2026-04-26T08:17:50.498Z</time></trkpt><trkpt lat="42.3101528" lon="13.6792655"><ele>1018.0</ele><time>2026-04-26T08:17:51.506Z</time></trkpt><trkpt lat="42.31023" lon="13.6794218"><ele>1018.0</ele><time>2026-04-26T08:17:52.494Z</time></trkpt><trkpt lat="42.3103045" lon="13.6795838"><ele>1018.0</ele><time>2026-04-26T08:17:53.497Z</time></trkpt><trkpt lat="42.3103749" lon="13.679743"><ele>1018.0</ele><time>2026-04-26T08:17:54.491Z</time></trkpt><trkpt lat="42.3104478" lon="13.6799084"><ele>1015.3333333333333</ele><time>2026-04-26T08:17:55.51Z</time></trkpt><trkpt lat="42.3105244" lon="13.6800884"><ele>1012.6666666666667</ele><time>2026-04-26T08:17:56.6Z</time></trkpt><trkpt lat="42.3106442" lon="13.680454"><ele>1010.0</ele><time>2026-04-26T08:17:58.597Z</time></trkpt><trkpt lat="42.3106656" lon="13.6809376"><ele>1007.0</ele><time>2026-04-26T08:18:00.515Z</time></trkpt><trkpt lat="42.3106492" lon="13.6812386"><ele>1004.0</ele><time>2026-04-26T08:18:01.486Z</time></trkpt><trkpt lat="42.3106179" lon="13.6815758"><ele>1004.0</ele><time>2026-04-26T08:18:02.495Z</time></trkpt><trkpt lat="42.3105856" lon="13.6818907"><ele>1004.0</ele><time>2026-04-26T08:18:03.495Z</time></trkpt><trkpt lat="42.3105452" lon="13.6821779"><ele>997.0</ele><time>2026-04-26T08:18:04.479Z</time></trkpt><trkpt lat="42.3105007" lon="13.682453"><ele>990.0</ele><time>2026-04-26T08:18:05.486Z</time></trkpt><trkpt lat="42.3104404" lon="13.6827143"><ele>983.0</ele><time>2026-04-26T08:18:06.5Z</time></trkpt><trkpt lat="42.3103665" lon="13.6829698"><ele>983.0</ele><time>2026-04-26T08:18:07.512Z</time></trkpt><trkpt lat="42.3102877" lon="13.6832263"><ele>983.0</ele><time>2026-04-26T08:18:08.515Z</time></trkpt><trkpt lat="42.3102091" lon="13.683482"><ele>983.0</ele><time>2026-04-26T08:18:09.536Z</time></trkpt><trkpt lat="42.3101345" lon="13.6837218"><ele>986.5</ele><time>2026-04-26T08:18:10.509Z</time></trkpt><trkpt lat="42.3100445" lon="13.6840039"><ele>990.0</ele><time>2026-04-26T08:18:11.651Z</time></trkpt><trkpt lat="42.309903" lon="13.6844584"><ele>992.6666666666667</ele><time>2026-04-26T08:18:13.53Z</time></trkpt><trkpt lat="42.3098273" lon="13.6846933"><ele>995.3333333333334</ele><time>2026-04-26T08:18:14.502Z</time></trkpt><trkpt lat="42.3097432" lon="13.6849402"><ele>998.0</ele><time>2026-04-26T08:18:15.522Z</time></trkpt><trkpt lat="42.3096613" lon="13.6851771"><ele>994.3333333333334</ele><time>2026-04-26T08:18:16.522Z</time></trkpt><trkpt lat="42.309585" lon="13.6854107"><ele>990.6666666666667</ele><time>2026-04-26T08:18:17.514Z</time></trkpt><trkpt lat="42.309505" lon="13.6856615"><ele>987.0</ele><time>2026-04-26T08:18:18.569Z</time></trkpt><trkpt lat="42.3094354" lon="13.6858886"><ele>988.0</ele><time>2026-04-26T08:18:19.509Z</time></trkpt><trkpt lat="42.309358" lon="13.6861441"><ele>989.0</ele><time>2026-04-26T08:18:20.558Z</time></trkpt><trkpt lat="42.3092806" lon="13.6863892"><ele>990.0</ele><time>2026-04-26T08:18:21.557Z</time></trkpt><trkpt lat="42.3092003" lon="13.6866318"><ele>990.0</ele><time>2026-04-26T08:18:22.54Z</time></trkpt><trkpt lat="42.3091178" lon="13.6868719"><ele>990.0</ele><time>2026-04-26T08:18:23.508Z</time></trkpt><trkpt lat="42.3090322" lon="13.6871299"><ele>990.0</ele><time>2026-04-26T08:18:24.528Z</time></trkpt><trkpt lat="42.3089526" lon="13.6873749"><ele>985.6666666666667</ele><time>2026-04-26T08:18:25.488Z</time></trkpt><trkpt lat="42.3088677" lon="13.6876392"><ele>981.3333333333334</ele><time>2026-04-26T08:18:26.541Z</time></trkpt><trkpt lat="42.3087895" lon="13.6878717"><ele>977.0</ele><time>2026-04-26T08:18:27.513Z</time></trkpt><trkpt lat="42.3087125" lon="13.6881009"><ele>977.0</ele><time>2026-04-26T08:18:28.512Z</time></trkpt><trkpt lat="42.3086406" lon="13.6883206"><ele>977.0</ele><time>2026-04-26T08:18:29.498Z</time></trkpt><trkpt lat="42.3085771" lon="13.6885374"><ele>977.0</ele><time>2026-04-26T08:18:30.493Z</time></trkpt><trkpt lat="42.3084896" lon="13.6889561"><ele>979.0</ele><time>2026-04-26T08:18:32.401Z</time></trkpt><trkpt lat="42.3084676" lon="13.6891771"><ele>981.0</ele><time>2026-04-26T08:18:33.4Z</time></trkpt><trkpt lat="42.3084695" lon="13.689406"><ele>983.0</ele><time>2026-04-26T08:18:34.409Z</time></trkpt><trkpt lat="42.3084928" lon="13.6896354"><ele>983.0</ele><time>2026-04-26T08:18:35.382Z</time></trkpt><trkpt lat="42.3085287" lon="13.6898917"><ele>983.0</ele><time>2026-04-26T08:18:36.409Z</time></trkpt><trkpt lat="42.3085598" lon="13.6901422"><ele>983.0</ele><time>2026-04-26T08:18:37.401Z</time></trkpt><trkpt lat="42.3085828" lon="13.6903923"><ele>982.0</ele><time>2026-04-26T08:18:38.388Z</time></trkpt><trkpt lat="42.3085994" lon="13.6906434"><ele>981.0</ele><time>2026-04-26T08:18:39.405Z</time></trkpt><trkpt lat="42.3086177" lon="13.6908832"><ele>980.0</ele><time>2026-04-26T08:18:40.408Z</time></trkpt><trkpt lat="42.3086381" lon="13.6911172"><ele>979.3333333333334</ele><time>2026-04-26T08:18:41.393Z</time></trkpt><trkpt lat="42.3086695" lon="13.6913647"><ele>978.6666666666667</ele><time>2026-04-26T08:18:42.476Z</time></trkpt><trkpt lat="42.3086986" lon="13.6915623"><ele>978.0</ele><time>2026-04-26T08:18:43.405Z</time></trkpt><trkpt lat="42.3087304" lon="13.691763"><ele>977.6666666666667</ele><time>2026-04-26T08:18:44.42Z</time></trkpt><trkpt lat="42.3087694" lon="13.6919736"><ele>977.3333333333334</ele><time>2026-04-26T08:18:45.554Z</time></trkpt><trkpt lat="42.3088458" lon="13.6922466"><ele>977.0</ele><time>2026-04-26T08:18:47.41Z</time></trkpt><trkpt lat="42.3089237" lon="13.6923808"><ele>981.0</ele><time>2026-04-26T08:18:48.544Z</time></trkpt><trkpt lat="42.3091106" lon="13.6925411"><ele>985.0</ele><time>2026-04-26T08:18:50.424Z</time></trkpt><trkpt lat="42.309233" lon="13.6926045"><ele>989.0</ele><time>2026-04-26T08:18:51.405Z</time></trkpt><trkpt lat="42.3093651" lon="13.692658"><ele>989.0</ele><time>2026-04-26T08:18:52.415Z</time></trkpt><trkpt lat="42.3094905" lon="13.6927021"><ele>989.0</ele><time>2026-04-26T08:18:53.396Z</time></trkpt><trkpt lat="42.3096182" lon="13.6927419"><ele>989.0</ele><time>2026-04-26T08:18:54.416Z</time></trkpt><trkpt lat="42.3097327" lon="13.6927484"><ele>989.0</ele><time>2026-04-26T08:18:55.398Z</time></trkpt><trkpt lat="42.3098428" lon="13.6927201"><ele>986.3333333333334</ele><time>2026-04-26T08:18:56.407Z</time></trkpt><trkpt lat="42.3099712" lon="13.6926344"><ele>983.6666666666667</ele><time>2026-04-26T08:18:57.436Z</time></trkpt><trkpt lat="42.3100878" lon="13.6925048"><ele>981.0</ele><time>2026-04-26T08:18:58.408Z</time></trkpt><trkpt lat="42.3102051" lon="13.6923298"><ele>981.0</ele><time>2026-04-26T08:18:59.417Z</time></trkpt><trkpt lat="42.3103132" lon="13.692178"><ele>981.0</ele><time>2026-04-26T08:19:00.381Z</time></trkpt><trkpt lat="42.310443" lon="13.6920355"><ele>981.0</ele><time>2026-04-26T08:19:01.386Z</time></trkpt><trkpt lat="42.3105832" lon="13.6919008"><ele>980.6666666666667</ele><time>2026-04-26T08:19:02.42Z</time></trkpt><trkpt lat="42.3107158" lon="13.6917745"><ele>980.3333333333334</ele><time>2026-04-26T08:19:03.398Z</time></trkpt><trkpt lat="42.3108553" lon="13.6916447"><ele>980.0</ele><time>2026-04-26T08:19:04.426Z</time></trkpt><trkpt lat="42.3110028" lon="13.6915081"><ele>980.0</ele><time>2026-04-26T08:19:05.527Z</time></trkpt><trkpt lat="42.3112402" lon="13.6912875"><ele>980.0</ele><time>2026-04-26T08:19:07.404Z</time></trkpt><trkpt lat="42.3113617" lon="13.6911871"><ele>980.0</ele><time>2026-04-26T08:19:08.392Z</time></trkpt><trkpt lat="42.3114869" lon="13.691104"><ele>979.25</ele><time>2026-04-26T08:19:09.399Z</time></trkpt><trkpt lat="42.3116142" lon="13.6910433"><ele>978.5</ele><time>2026-04-26T08:19:10.38Z</time></trkpt><trkpt lat="42.3117553" lon="13.6909952"><ele>977.75</ele><time>2026-04-26T08:19:11.428Z</time></trkpt><trkpt lat="42.3118939" lon="13.6909456"><ele>977.0</ele><time>2026-04-26T08:19:12.418Z</time></trkpt><trkpt lat="42.3120259" lon="13.6908872"><ele>977.0</ele><time>2026-04-26T08:19:13.395Z</time></trkpt><trkpt lat="42.3121542" lon="13.6908205"><ele>977.0</ele><time>2026-04-26T08:19:14.382Z</time></trkpt><trkpt lat="42.3122827" lon="13.6907456"><ele>977.0</ele><time>2026-04-26T08:19:15.406Z</time></trkpt><trkpt lat="42.3124067" lon="13.6906613"><ele>977.0</ele><time>2026-04-26T08:19:16.43Z</time></trkpt><trkpt lat="42.3125167" lon="13.6905907"><ele>972.75</ele><time>2026-04-26T08:19:17.382Z</time></trkpt><trkpt lat="42.3126325" lon="13.6905451"><ele>968.5</ele><time>2026-04-26T08:19:18.401Z</time></trkpt><trkpt lat="42.3127495" lon="13.6905341"><ele>964.25</ele><time>2026-04-26T08:19:19.39Z</time></trkpt><trkpt lat="42.3128697" lon="13.69057"><ele>960.0</ele><time>2026-04-26T08:19:20.403Z</time></trkpt><trkpt lat="42.3129884" lon="13.6906511"><ele>960.0</ele><time>2026-04-26T08:19:21.401Z</time></trkpt><trkpt lat="42.3131075" lon="13.6907625"><ele>960.0</ele><time>2026-04-26T08:19:22.399Z</time></trkpt><trkpt lat="42.3132177" lon="13.690905"><ele>960.0</ele><time>2026-04-26T08:19:23.402Z</time></trkpt><trkpt lat="42.3133169" lon="13.6910953"><ele>961.0</ele><time>2026-04-26T08:19:24.525Z</time></trkpt><trkpt lat="42.3134364" lon="13.6914638"><ele>962.0</ele><time>2026-04-26T08:19:26.4Z</time></trkpt><trkpt lat="42.3135026" lon="13.6916699"><ele>962.0</ele><time>2026-04-26T08:19:27.406Z</time></trkpt><trkpt lat="42.3135813" lon="13.6918814"><ele>962.0</ele><time>2026-04-26T08:19:28.39Z</time></trkpt><trkpt lat="42.3136678" lon="13.6921299"><ele>962.0</ele><time>2026-04-26T08:19:29.506Z</time></trkpt><trkpt lat="42.3137417" lon="13.6925143"><ele>963.3333333333334</ele><time>2026-04-26T08:19:31.39Z</time></trkpt><trkpt lat="42.313806" lon="13.6927021"><ele>964.6666666666667</ele><time>2026-04-26T08:19:32.394Z</time></trkpt><trkpt lat="42.3139018" lon="13.6928758"><ele>966.0</ele><time>2026-04-26T08:19:33.381Z</time></trkpt><trkpt lat="42.3140249" lon="13.6930415"><ele>966.0</ele><time>2026-04-26T08:19:34.401Z</time></trkpt><trkpt lat="42.3141462" lon="13.6931984"><ele>966.0</ele><time>2026-04-26T08:19:35.389Z</time></trkpt><trkpt lat="42.3142608" lon="13.6933586"><ele>966.0</ele><time>2026-04-26T08:19:36.397Z</time></trkpt><trkpt lat="42.3143695" lon="13.6935084"><ele>970.6666666666667</ele><time>2026-04-26T08:19:37.38Z</time></trkpt><trkpt lat="42.3144707" lon="13.6936643"><ele>975.3333333333334</ele><time>2026-04-26T08:19:38.379Z</time></trkpt><trkpt lat="42.3145617" lon="13.6938414"><ele>980.0</ele><time>2026-04-26T08:19:39.401Z</time></trkpt><trkpt lat="42.3146472" lon="13.6940244"><ele>980.0</ele><time>2026-04-26T08:19:40.44Z</time></trkpt><trkpt lat="42.3147369" lon="13.6941811"><ele>980.0</ele><time>2026-04-26T08:19:41.478Z</time></trkpt><trkpt lat="42.314943" lon="13.6943808"><ele>980.0</ele><time>2026-04-26T08:19:43.432Z</time></trkpt><trkpt lat="42.3150391" lon="13.6944575"><ele>978.0</ele><time>2026-04-26T08:19:44.384Z</time></trkpt><trkpt lat="42.3151282" lon="13.6945425"><ele>976.0</ele><time>2026-04-26T08:19:45.403Z</time></trkpt><trkpt lat="42.3151938" lon="13.6946301"><ele>974.0</ele><time>2026-04-26T08:19:46.39Z</time></trkpt><trkpt lat="42.315229" lon="13.6947346"><ele>972.0</ele><time>2026-04-26T08:19:47.384Z</time></trkpt><trkpt lat="42.3152337" lon="13.6948697"><ele>970.0</ele><time>2026-04-26T08:19:48.483Z</time></trkpt><trkpt lat="42.315187" lon="13.695175"><ele>969.0</ele><time>2026-04-26T08:19:50.43Z</time></trkpt><trkpt lat="42.3151537" lon="13.6953452"><ele>968.0</ele><time>2026-04-26T08:19:51.375Z</time></trkpt><trkpt lat="42.315114" lon="13.6955526"><ele>967.0</ele><time>2026-04-26T08:19:52.402Z</time></trkpt><trkpt lat="42.3150662" lon="13.6958038"><ele>967.0</ele><time>2026-04-26T08:19:53.492Z</time></trkpt><trkpt lat="42.315014" lon="13.69603"><ele>967.0</ele><time>2026-04-26T08:19:54.412Z</time></trkpt><trkpt lat="42.3149639" lon="13.6962526"><ele>967.0</ele><time>2026-04-26T08:19:55.403Z</time></trkpt><trkpt lat="42.3149225" lon="13.6964901"><ele>966.6666666666666</ele><time>2026-04-26T08:19:56.452Z</time></trkpt><trkpt lat="42.3149044" lon="13.6967103"><ele>966.3333333333333</ele><time>2026-04-26T08:19:57.395Z</time></trkpt><trkpt lat="42.3148987" lon="13.6969534"><ele>966.0</ele><time>2026-04-26T08:19:58.399Z</time></trkpt><trkpt lat="42.3148997" lon="13.69719"><ele>966.0</ele><time>2026-04-26T08:19:59.401Z</time></trkpt><trkpt lat="42.314896" lon="13.6974159"><ele>966.0</ele><time>2026-04-26T08:20:00.389Z</time></trkpt><trkpt lat="42.3148933" lon="13.697626"><ele>966.0</ele><time>2026-04-26T08:20:01.381Z</time></trkpt><trkpt lat="42.3149106" lon="13.6978407"><ele>966.0</ele><time>2026-04-26T08:20:02.422Z</time></trkpt><trkpt lat="42.314959" lon="13.6980216"><ele>966.0</ele><time>2026-04-26T08:20:03.415Z</time></trkpt><trkpt lat="42.315049" lon="13.6981763"><ele>966.0</ele><time>2026-04-26T08:20:04.387Z</time></trkpt><trkpt lat="42.3151601" lon="13.6983182"><ele>966.0</ele><time>2026-04-26T08:20:05.406Z</time></trkpt><trkpt lat="42.3152494" lon="13.6984782"><ele>966.3333333333333</ele><time>2026-04-26T08:20:06.409Z</time></trkpt><trkpt lat="42.315306" lon="13.6986871"><ele>966.6666666666666</ele><time>2026-04-26T08:20:07.475Z</time></trkpt><trkpt lat="42.3153098" lon="13.6989016"><ele>967.0</ele><time>2026-04-26T08:20:08.379Z</time></trkpt><trkpt lat="42.3153068" lon="13.6991419"><ele>967.0</ele><time>2026-04-26T08:20:09.413Z</time></trkpt><trkpt lat="42.3152827" lon="13.6993647"><ele>967.0</ele><time>2026-04-26T08:20:10.369Z</time></trkpt><trkpt lat="42.3152378" lon="13.699596"><ele>967.0</ele><time>2026-04-26T08:20:11.391Z</time></trkpt><trkpt lat="42.3151938" lon="13.6998323"><ele>969.0</ele><time>2026-04-26T08:20:12.377Z</time></trkpt><trkpt lat="42.315146" lon="13.7000858"><ele>971.0</ele><time>2026-04-26T08:20:13.402Z</time></trkpt><trkpt lat="42.3150999" lon="13.7003359"><ele>973.0</ele><time>2026-04-26T08:20:14.387Z</time></trkpt><trkpt lat="42.315053" lon="13.7005937"><ele>975.0</ele><time>2026-04-26T08:20:15.377Z</time></trkpt><trkpt lat="42.3150054" lon="13.7008702"><ele>977.0</ele><time>2026-04-26T08:20:16.405Z</time></trkpt><trkpt lat="42.3149574" lon="13.7011428"><ele>979.0</ele><time>2026-04-26T08:20:17.393Z</time></trkpt><trkpt lat="42.3149079" lon="13.7014193"><ele>979.3333333333333</ele><time>2026-04-26T08:20:18.393Z</time></trkpt><trkpt lat="42.31486" lon="13.7016778"><ele>979.6666666666667</ele><time>2026-04-26T08:20:19.357Z</time></trkpt><trkpt lat="42.3147891" lon="13.7019938"><ele>980.0</ele><time>2026-04-26T08:20:20.571Z</time></trkpt><trkpt lat="42.3146509" lon="13.7024427"><ele>980.0</ele><time>2026-04-26T08:20:22.372Z</time></trkpt><trkpt lat="42.3145749" lon="13.7026974"><ele>980.0</ele><time>2026-04-26T08:20:23.398Z</time></trkpt><trkpt lat="42.3145042" lon="13.7029327"><ele>980.0</ele><time>2026-04-26T08:20:24.363Z</time></trkpt><trkpt lat="42.3144319" lon="13.7031696"><ele>983.3333333333334</ele><time>2026-04-26T08:20:25.405Z</time></trkpt><trkpt lat="42.3143638" lon="13.7033703"><ele>986.6666666666667</ele><time>2026-04-26T08:20:26.395Z</time></trkpt><trkpt lat="42.3143009" lon="13.703561"><ele>990.0</ele><time>2026-04-26T08:20:27.41Z</time></trkpt><trkpt lat="42.3142441" lon="13.7037315"><ele>991.4</ele><time>2026-04-26T08:20:28.396Z</time></trkpt><trkpt lat="42.3141887" lon="13.70389"><ele>992.8</ele><time>2026-04-26T08:20:29.415Z</time></trkpt><trkpt lat="42.3141387" lon="13.7040313"><ele>994.2</ele><time>2026-04-26T08:20:30.441Z</time></trkpt><trkpt lat="42.3140966" lon="13.7041425"><ele>995.6</ele><time>2026-04-26T08:20:31.407Z</time></trkpt><trkpt lat="42.3140779" lon="13.7042548"><ele>997.0</ele><time>2026-04-26T08:20:32.405Z</time></trkpt><trkpt lat="42.3140969" lon="13.7043551"><ele>997.0</ele><time>2026-04-26T08:20:33.533Z</time></trkpt><trkpt lat="42.3142235" lon="13.7043808"><ele>997.0</ele><time>2026-04-26T08:20:35.415Z</time></trkpt><trkpt lat="42.3142987" lon="13.7043035"><ele>997.0</ele><time>2026-04-26T08:20:36.42Z</time></trkpt><trkpt lat="42.3143584" lon="13.7041767"><ele>997.0</ele><time>2026-04-26T08:20:37.406Z</time></trkpt><trkpt lat="42.3144213" lon="13.7040323"><ele>997.0</ele><time>2026-04-26T08:20:38.406Z</time></trkpt><trkpt lat="42.3144946" lon="13.7038763"><ele>997.0</ele><time>2026-04-26T08:20:39.376Z</time></trkpt><trkpt lat="42.3145999" lon="13.7036647"><ele>997.0</ele><time>2026-04-26T08:20:40.364Z</time></trkpt><trkpt lat="42.3147264" lon="13.7034229"><ele>1005.5</ele><time>2026-04-26T08:20:41.372Z</time></trkpt><trkpt lat="42.3148752" lon="13.7031506"><ele>1014.0</ele><time>2026-04-26T08:20:42.413Z</time></trkpt><trkpt lat="42.315037" lon="13.7028808"><ele>1007.0</ele><time>2026-04-26T08:20:43.418Z</time></trkpt><trkpt lat="42.3151789" lon="13.702643"><ele>1000.0</ele><time>2026-04-26T08:20:44.376Z</time></trkpt><trkpt lat="42.3153291" lon="13.7023897"><ele>1000.0</ele><time>2026-04-26T08:20:45.39Z</time></trkpt><trkpt lat="42.3154781" lon="13.7021276"><ele>1000.0</ele><time>2026-04-26T08:20:46.378Z</time></trkpt><trkpt lat="42.3156316" lon="13.7018349"><ele>1010.0</ele><time>2026-04-26T08:20:47.377Z</time></trkpt><trkpt lat="42.3158039" lon="13.7014745"><ele>1020.0</ele><time>2026-04-26T08:20:48.475Z</time></trkpt><trkpt lat="42.3159322" lon="13.7011936"><ele>1014.5</ele><time>2026-04-26T08:20:49.398Z</time></trkpt><trkpt lat="42.3160585" lon="13.7009118"><ele>1009.0</ele><time>2026-04-26T08:20:50.395Z</time></trkpt><trkpt lat="42.3161692" lon="13.7006607"><ele>1009.0</ele><time>2026-04-26T08:20:51.389Z</time></trkpt><trkpt lat="42.3162657" lon="13.7004412"><ele>1009.0</ele><time>2026-04-26T08:20:52.368Z</time></trkpt><trkpt lat="42.3163491" lon="13.7002435"><ele>1009.0</ele><time>2026-04-26T08:20:53.399Z</time></trkpt><trkpt lat="42.3164154" lon="13.7000759"><ele>1013.4000000000001</ele><time>2026-04-26T08:20:54.363Z</time></trkpt><trkpt lat="42.316478" lon="13.6999152"><ele>1017.8000000000001</ele><time>2026-04-26T08:20:55.415Z</time></trkpt><trkpt lat="42.3165289" lon="13.6997898"><ele>1022.1999999999999</ele><time>2026-04-26T08:20:56.375Z</time></trkpt><trkpt lat="42.3165835" lon="13.6996958"><ele>1026.6</ele><time>2026-04-26T08:20:57.393Z</time></trkpt><trkpt lat="42.3166405" lon="13.6996564"><ele>1031.0</ele><time>2026-04-26T08:20:58.365Z</time></trkpt><trkpt lat="42.3167198" lon="13.6997419"><ele>1031.0</ele><time>2026-04-26T08:21:00.403Z</time></trkpt><trkpt lat="42.316708" lon="13.6998269"><ele>1031.0</ele><time>2026-04-26T08:21:01.395Z</time></trkpt><trkpt lat="42.3166617" lon="13.6999226"><ele>1031.0</ele><time>2026-04-26T08:21:02.386Z</time></trkpt><trkpt lat="42.3165961" lon="13.7000681"><ele>1031.0</ele><time>2026-04-26T08:21:03.421Z</time></trkpt><trkpt lat="42.3165225" lon="13.7002856"><ele>1027.3333333333335</ele><time>2026-04-26T08:21:04.468Z</time></trkpt><trkpt lat="42.3164526" lon="13.7005268"><ele>1023.6666666666667</ele><time>2026-04-26T08:21:05.383Z</time></trkpt><trkpt lat="42.3163731" lon="13.7008341"><ele>1020.0</ele><time>2026-04-26T08:21:06.384Z</time></trkpt><trkpt lat="42.3162914" lon="13.7011701"><ele>1020.0</ele><time>2026-04-26T08:21:07.383Z</time></trkpt><trkpt lat="42.3162179" lon="13.7014815"><ele>1020.0</ele><time>2026-04-26T08:21:08.417Z</time></trkpt><trkpt lat="42.3161477" lon="13.7017461"><ele>1025.6666666666667</ele><time>2026-04-26T08:21:09.388Z</time></trkpt><trkpt lat="42.3160768" lon="13.7019995"><ele>1031.3333333333335</ele><time>2026-04-26T08:21:10.405Z</time></trkpt><trkpt lat="42.3160053" lon="13.7022488"><ele>1037.0</ele><time>2026-04-26T08:21:11.494Z</time></trkpt><trkpt lat="42.3159506" lon="13.7024478"><ele>1037.0</ele><time>2026-04-26T08:21:12.414Z</time></trkpt><trkpt lat="42.31589" lon="13.7026766"><ele>1037.0</ele><time>2026-04-26T08:21:13.389Z</time></trkpt><trkpt lat="42.3158227" lon="13.7029331"><ele>1037.0</ele><time>2026-04-26T08:21:14.418Z</time></trkpt><trkpt lat="42.3157525" lon="13.7032005"><ele>1040.6666666666667</ele><time>2026-04-26T08:21:15.481Z</time></trkpt><trkpt lat="42.3156874" lon="13.7034382"><ele>1044.3333333333333</ele><time>2026-04-26T08:21:16.388Z</time></trkpt><trkpt lat="42.3156137" lon="13.7036989"><ele>1048.0</ele><time>2026-04-26T08:21:17.384Z</time></trkpt><trkpt lat="42.3155466" lon="13.7039385"><ele>1043.6666666666665</ele><time>2026-04-26T08:21:18.363Z</time></trkpt><trkpt lat="42.3154849" lon="13.7041733"><ele>1039.3333333333333</ele><time>2026-04-26T08:21:19.376Z</time></trkpt><trkpt lat="42.3154239" lon="13.7044053"><ele>1035.0</ele><time>2026-04-26T08:21:20.375Z</time></trkpt><trkpt lat="42.3153622" lon="13.7046409"><ele>1035.0</ele><time>2026-04-26T08:21:21.384Z</time></trkpt><trkpt lat="42.3153023" lon="13.7048801"><ele>1035.0</ele><time>2026-04-26T08:21:22.377Z</time></trkpt><trkpt lat="42.3152429" lon="13.7051441"><ele>1035.0</ele><time>2026-04-26T08:21:23.465Z</time></trkpt><trkpt lat="42.3152032" lon="13.7053743"><ele>1038.0</ele><time>2026-04-26T08:21:24.377Z</time></trkpt><trkpt lat="42.3151695" lon="13.7056757"><ele>1041.0</ele><time>2026-04-26T08:21:25.457Z</time></trkpt><trkpt lat="42.3151488" lon="13.7059242"><ele>1044.0</ele><time>2026-04-26T08:21:26.396Z</time></trkpt><trkpt lat="42.3151324" lon="13.7061567"><ele>1045.3333333333333</ele><time>2026-04-26T08:21:27.377Z</time></trkpt><trkpt lat="42.315115" lon="13.7063828"><ele>1046.6666666666665</ele><time>2026-04-26T08:21:28.404Z</time></trkpt><trkpt lat="42.3151186" lon="13.7065823"><ele>1048.0</ele><time>2026-04-26T08:21:29.394Z</time></trkpt><trkpt lat="42.3151154" lon="13.7067773"><ele>1048.0</ele><time>2026-04-26T08:21:30.427Z</time></trkpt><trkpt lat="42.3150607" lon="13.7068777"><ele>1048.0</ele><time>2026-04-26T08:21:31.414Z</time></trkpt><trkpt lat="42.3150565" lon="13.7069988"><ele>1048.0</ele><time>2026-04-26T08:21:32.413Z</time></trkpt><trkpt lat="42.3150558" lon="13.7071604"><ele>1048.0</ele><time>2026-04-26T08:21:33.402Z</time></trkpt><trkpt lat="42.3150639" lon="13.7072845"><ele>1048.0</ele><time>2026-04-26T08:21:34.422Z</time></trkpt><trkpt lat="42.315106" lon="13.7073707"><ele>1048.0</ele><time>2026-04-26T08:21:35.404Z</time></trkpt><trkpt lat="42.3151736" lon="13.7073982"><ele>1048.0</ele><time>2026-04-26T08:21:36.39Z</time></trkpt><trkpt lat="42.3152338" lon="13.7073591"><ele>1048.0</ele><time>2026-04-26T08:21:37.393Z</time></trkpt><trkpt lat="42.3152723" lon="13.7072666"><ele>1048.0</ele><time>2026-04-26T08:21:38.527Z</time></trkpt><trkpt lat="42.315282" lon="13.7069975"><ele>1048.0</ele><time>2026-04-26T08:21:40.394Z</time></trkpt><trkpt lat="42.3152923" lon="13.706808"><ele>1048.0</ele><time>2026-04-26T08:21:41.378Z</time></trkpt><trkpt lat="42.3153142" lon="13.7065916"><ele>1048.0</ele><time>2026-04-26T08:21:42.387Z</time></trkpt><trkpt lat="42.3153442" lon="13.7063666"><ele>1048.0</ele><time>2026-04-26T08:21:43.386Z</time></trkpt><trkpt lat="42.3153917" lon="13.7061185"><ele>1046.6666666666665</ele><time>2026-04-26T08:21:44.38Z</time></trkpt><trkpt lat="42.3154657" lon="13.7058584"><ele>1045.3333333333333</ele><time>2026-04-26T08:21:45.391Z</time></trkpt><trkpt lat="42.3155491" lon="13.7056074"><ele>1044.0</ele><time>2026-04-26T08:21:46.386Z</time></trkpt><trkpt lat="42.3156541" lon="13.7053418"><ele>1057.5</ele><time>2026-04-26T08:21:47.399Z</time></trkpt><trkpt lat="42.3157689" lon="13.705081"><ele>1071.0</ele><time>2026-04-26T08:21:48.38Z</time></trkpt><trkpt lat="42.3158924" lon="13.7048025"><ele>1071.0</ele><time>2026-04-26T08:21:49.395Z</time></trkpt><trkpt lat="42.3160151" lon="13.704522"><ele>1071.0</ele><time>2026-04-26T08:21:50.396Z</time></trkpt><trkpt lat="42.3161423" lon="13.7042447"><ele>1064.5</ele><time>2026-04-26T08:21:51.39Z</time></trkpt><trkpt lat="42.3162829" lon="13.7039389"><ele>1058.0</ele><time>2026-04-26T08:21:52.483Z</time></trkpt><trkpt lat="42.3163956" lon="13.7036948"><ele>1067.6666666666667</ele><time>2026-04-26T08:21:53.397Z</time></trkpt><trkpt lat="42.3165085" lon="13.7034587"><ele>1077.3333333333333</ele><time>2026-04-26T08:21:54.393Z</time></trkpt><trkpt lat="42.3166195" lon="13.7032362"><ele>1087.0</ele><time>2026-04-26T08:21:55.429Z</time></trkpt><trkpt lat="42.316722" lon="13.7030342"><ele>1087.0</ele><time>2026-04-26T08:21:56.383Z</time></trkpt><trkpt lat="42.3168224" lon="13.7028172"><ele>1087.0</ele><time>2026-04-26T08:21:57.382Z</time></trkpt><trkpt lat="42.3169219" lon="13.7025959"><ele>1087.0</ele><time>2026-04-26T08:21:58.408Z</time></trkpt><trkpt lat="42.317012" lon="13.7023914"><ele>1082.3333333333333</ele><time>2026-04-26T08:21:59.378Z</time></trkpt><trkpt lat="42.3171047" lon="13.7021853"><ele>1077.6666666666667</ele><time>2026-04-26T08:22:00.389Z</time></trkpt><trkpt lat="42.3171893" lon="13.7019897"><ele>1073.0</ele><time>2026-04-26T08:22:01.375Z</time></trkpt><trkpt lat="42.3172792" lon="13.7017885"><ele>1082.3333333333335</ele><time>2026-04-26T08:22:02.399Z</time></trkpt><trkpt lat="42.31737" lon="13.7015935"><ele>1091.6666666666667</ele><time>2026-04-26T08:22:03.394Z</time></trkpt><trkpt lat="42.3174637" lon="13.7013958"><ele>1101.0</ele><time>2026-04-26T08:22:04.374Z</time></trkpt><trkpt lat="42.3175671" lon="13.7011865"><ele>1096.0</ele><time>2026-04-26T08:22:05.377Z</time></trkpt><trkpt lat="42.3176817" lon="13.7009687"><ele>1091.0</ele><time>2026-04-26T08:22:06.402Z</time></trkpt><trkpt lat="42.317799" lon="13.7007599"><ele>1086.0</ele><time>2026-04-26T08:22:07.376Z</time></trkpt><trkpt lat="42.3179293" lon="13.700543"><ele>1086.0</ele><time>2026-04-26T08:22:08.409Z</time></trkpt><trkpt lat="42.3180549" lon="13.7003371"><ele>1086.0</ele><time>2026-04-26T08:22:09.382Z</time></trkpt><trkpt lat="42.3181752" lon="13.7001041"><ele>1086.0</ele><time>2026-04-26T08:22:10.386Z</time></trkpt><trkpt lat="42.3182906" lon="13.6998612"><ele>1088.3333333333333</ele><time>2026-04-26T08:22:11.377Z</time></trkpt><trkpt lat="42.3184131" lon="13.6996205"><ele>1090.6666666666665</ele><time>2026-04-26T08:22:12.382Z</time></trkpt><trkpt lat="42.3185447" lon="13.6993921"><ele>1093.0</ele><time>2026-04-26T08:22:13.39Z</time></trkpt><trkpt lat="42.3186725" lon="13.6991821"><ele>1093.0</ele><time>2026-04-26T08:22:14.385Z</time></trkpt><trkpt lat="42.3187913" lon="13.6989924"><ele>1093.0</ele><time>2026-04-26T08:22:15.376Z</time></trkpt><trkpt lat="42.3189029" lon="13.6988024"><ele>1093.0</ele><time>2026-04-26T08:22:16.385Z</time></trkpt><trkpt lat="42.3190142" lon="13.6986044"><ele>1100.3333333333333</ele><time>2026-04-26T08:22:17.435Z</time></trkpt><trkpt lat="42.3191103" lon="13.6984298"><ele>1107.6666666666667</ele><time>2026-04-26T08:22:18.37Z</time></trkpt><trkpt lat="42.3192168" lon="13.6982415"><ele>1115.0</ele><time>2026-04-26T08:22:19.389Z</time></trkpt><trkpt lat="42.3193193" lon="13.6980582"><ele>1115.0</ele><time>2026-04-26T08:22:20.381Z</time></trkpt><trkpt lat="42.3194257" lon="13.6978631"><ele>1115.0</ele><time>2026-04-26T08:22:21.45Z</time></trkpt><trkpt lat="42.3195103" lon="13.6977154"><ele>1115.0</ele><time>2026-04-26T08:22:22.377Z</time></trkpt><trkpt lat="42.3196021" lon="13.6975692"><ele>1110.75</ele><time>2026-04-26T08:22:23.389Z</time></trkpt><trkpt lat="42.319694" lon="13.6974347"><ele>1106.5</ele><time>2026-04-26T08:22:24.389Z</time></trkpt><trkpt lat="42.3197889" lon="13.6973081"><ele>1102.25</ele><time>2026-04-26T08:22:25.361Z</time></trkpt><trkpt lat="42.3198948" lon="13.6971763"><ele>1098.0</ele><time>2026-04-26T08:22:26.391Z</time></trkpt><trkpt lat="42.3200032" lon="13.6970549"><ele>1102.6666666666667</ele><time>2026-04-26T08:22:27.391Z</time></trkpt><trkpt lat="42.3201294" lon="13.6969278"><ele>1107.3333333333335</ele><time>2026-04-26T08:22:28.496Z</time></trkpt><trkpt lat="42.3203536" lon="13.6967261"><ele>1112.0</ele><time>2026-04-26T08:22:30.354Z</time></trkpt><trkpt lat="42.3204828" lon="13.696619"><ele>1119.6666666666667</ele><time>2026-04-26T08:22:31.391Z</time></trkpt><trkpt lat="42.320627" lon="13.6965273"><ele>1127.3333333333333</ele><time>2026-04-26T08:22:32.516Z</time></trkpt><trkpt lat="42.3208895" lon="13.6964587"><ele>1135.0</ele><time>2026-04-26T08:22:34.411Z</time></trkpt><trkpt lat="42.3210317" lon="13.6964533"><ele>1135.0</ele><time>2026-04-26T08:22:35.398Z</time></trkpt><trkpt lat="42.3211797" lon="13.6964578"><ele>1135.0</ele><time>2026-04-26T08:22:36.413Z</time></trkpt><trkpt lat="42.3213239" lon="13.6964721"><ele>1135.0</ele><time>2026-04-26T08:22:37.393Z</time></trkpt><trkpt lat="42.3214891" lon="13.6965083"><ele>1137.0</ele><time>2026-04-26T08:22:38.517Z</time></trkpt><trkpt lat="42.3217674" lon="13.6965852"><ele>1139.0</ele><time>2026-04-26T08:22:40.397Z</time></trkpt><trkpt lat="42.3219257" lon="13.6966238"><ele>1141.0</ele><time>2026-04-26T08:22:41.433Z</time></trkpt><trkpt lat="42.3220769" lon="13.6966598"><ele>1141.0</ele><time>2026-04-26T08:22:42.407Z</time></trkpt><trkpt lat="42.3222249" lon="13.6967032"><ele>1141.0</ele><time>2026-04-26T08:22:43.399Z</time></trkpt><trkpt lat="42.3223755" lon="13.6967718"><ele>1141.0</ele><time>2026-04-26T08:22:44.411Z</time></trkpt><trkpt lat="42.3225521" lon="13.6969011"><ele>1149.5</ele><time>2026-04-26T08:22:45.649Z</time></trkpt><trkpt lat="42.3228285" lon="13.697153"><ele>1158.0</ele><time>2026-04-26T08:22:47.494Z</time></trkpt><trkpt lat="42.3229705" lon="13.6972745"><ele>1157.25</ele><time>2026-04-26T08:22:48.486Z</time></trkpt><trkpt lat="42.3230997" lon="13.6973812"><ele>1156.5</ele><time>2026-04-26T08:22:49.493Z</time></trkpt><trkpt lat="42.3232192" lon="13.6974777"><ele>1155.75</ele><time>2026-04-26T08:22:50.471Z</time></trkpt><trkpt lat="42.3233456" lon="13.697583"><ele>1155.0</ele><time>2026-04-26T08:22:51.479Z</time></trkpt><trkpt lat="42.3234663" lon="13.6977094"><ele>1162.0</ele><time>2026-04-26T08:22:52.503Z</time></trkpt><trkpt lat="42.3235949" lon="13.6978687"><ele>1169.0</ele><time>2026-04-26T08:22:53.621Z</time></trkpt><trkpt lat="42.323808" lon="13.6981727"><ele>1169.6666666666667</ele><time>2026-04-26T08:22:55.48Z</time></trkpt><trkpt lat="42.3239171" lon="13.6983365"><ele>1170.3333333333333</ele><time>2026-04-26T08:22:56.482Z</time></trkpt><trkpt lat="42.32402" lon="13.6985003"><ele>1171.0</ele><time>2026-04-26T08:22:57.491Z</time></trkpt><trkpt lat="42.3240944" lon="13.6986495"><ele>1171.0</ele><time>2026-04-26T08:22:58.465Z</time></trkpt><trkpt lat="42.3241608" lon="13.6987992"><ele>1171.0</ele><time>2026-04-26T08:22:59.46Z</time></trkpt><trkpt lat="42.324238" lon="13.6989415"><ele>1171.0</ele><time>2026-04-26T08:23:00.475Z</time></trkpt><trkpt lat="42.3243375" lon="13.699064"><ele>1171.0</ele><time>2026-04-26T08:23:01.482Z</time></trkpt><trkpt lat="42.3244507" lon="13.6991493"><ele>1171.0</ele><time>2026-04-26T08:23:02.492Z</time></trkpt><trkpt lat="42.3245522" lon="13.6992177"><ele>1171.0</ele><time>2026-04-26T08:23:03.469Z</time></trkpt><trkpt lat="42.3246637" lon="13.6992932"><ele>1171.0</ele><time>2026-04-26T08:23:04.482Z</time></trkpt><trkpt lat="42.3247793" lon="13.699372"><ele>1171.0</ele><time>2026-04-26T08:23:05.479Z</time></trkpt><trkpt lat="42.3248972" lon="13.6994591"><ele>1174.5</ele><time>2026-04-26T08:23:06.472Z</time></trkpt><trkpt lat="42.3250178" lon="13.699561"><ele>1178.0</ele><time>2026-04-26T08:23:07.495Z</time></trkpt><trkpt lat="42.3251396" lon="13.6996756"><ele>1181.5</ele><time>2026-04-26T08:23:08.504Z</time></trkpt><trkpt lat="42.3252564" lon="13.6997974"><ele>1185.0</ele><time>2026-04-26T08:23:09.488Z</time></trkpt><trkpt lat="42.3253771" lon="13.6999254"><ele>1185.0</ele><time>2026-04-26T08:23:10.495Z</time></trkpt><trkpt lat="42.3254964" lon="13.70005"><ele>1185.0</ele><time>2026-04-26T08:23:11.486Z</time></trkpt><trkpt lat="42.3256129" lon="13.7001687"><ele>1185.0</ele><time>2026-04-26T08:23:12.479Z</time></trkpt><trkpt lat="42.3257163" lon="13.700271"><ele>1185.0</ele><time>2026-04-26T08:23:13.51Z</time></trkpt><trkpt lat="42.3257931" lon="13.7003449"><ele>1187.0</ele><time>2026-04-26T08:23:14.486Z</time></trkpt><trkpt lat="42.3258442" lon="13.7004097"><ele>1189.0</ele><time>2026-04-26T08:23:15.499Z</time></trkpt><trkpt lat="42.3258309" lon="13.7005419"><ele>1191.0</ele><time>2026-04-26T08:23:17.501Z</time></trkpt><trkpt lat="42.3257124" lon="13.7005445"><ele>1193.0</ele><time>2026-04-26T08:23:19.493Z</time></trkpt><trkpt lat="42.3256464" lon="13.7004812"><ele>1195.0</ele><time>2026-04-26T08:23:20.493Z</time></trkpt><trkpt lat="42.3255766" lon="13.7003869"><ele>1195.0</ele><time>2026-04-26T08:23:21.484Z</time></trkpt><trkpt lat="42.3255109" lon="13.7003092"><ele>1195.0</ele><time>2026-04-26T08:23:22.508Z</time></trkpt><trkpt lat="42.3254355" lon="13.7002524"><ele>1195.0</ele><time>2026-04-26T08:23:23.496Z</time></trkpt><trkpt lat="42.325352" lon="13.700225"><ele>1195.0</ele><time>2026-04-26T08:23:24.509Z</time></trkpt><trkpt lat="42.3252679" lon="13.7002445"><ele>1195.0</ele><time>2026-04-26T08:23:25.608Z</time></trkpt><trkpt lat="42.3252168" lon="13.7003956"><ele>1195.0</ele><time>2026-04-26T08:23:27.526Z</time></trkpt><trkpt lat="42.3252474" lon="13.7004706"><ele>1195.0</ele><time>2026-04-26T08:23:28.482Z</time></trkpt><trkpt lat="42.3253081" lon="13.7005276"><ele>1195.0</ele><time>2026-04-26T08:23:29.511Z</time></trkpt><trkpt lat="42.3253788" lon="13.7005839"><ele>1195.0</ele><time>2026-04-26T08:23:30.497Z</time></trkpt><trkpt lat="42.3254631" lon="13.7006617"><ele>1195.0</ele><time>2026-04-26T08:23:31.533Z</time></trkpt><trkpt lat="42.3255487" lon="13.7007502"><ele>1195.0</ele><time>2026-04-26T08:23:32.495Z</time></trkpt><trkpt lat="42.3256371" lon="13.7008479"><ele>1195.0</ele><time>2026-04-26T08:23:33.507Z</time></trkpt><trkpt lat="42.3257073" lon="13.7009304"><ele>1195.0</ele><time>2026-04-26T08:23:34.503Z</time></trkpt><trkpt lat="42.3257577" lon="13.7010154"><ele>1195.0</ele><time>2026-04-26T08:23:35.511Z</time></trkpt><trkpt lat="42.3258329" lon="13.7011465"><ele>1195.0</ele><time>2026-04-26T08:23:37.504Z</time></trkpt><trkpt lat="42.3258716" lon="13.701215"><ele>1195.0</ele><time>2026-04-26T08:23:38.494Z</time></trkpt><trkpt lat="42.3259485" lon="13.7013205"><ele>1196.5</ele><time>2026-04-26T08:23:40.508Z</time></trkpt><trkpt lat="42.3260134" lon="13.7014093"><ele>1198.0</ele><time>2026-04-26T08:23:42.525Z</time></trkpt><trkpt lat="42.3260977" lon="13.7015203"><ele>1199.5</ele><time>2026-04-26T08:23:44.494Z</time></trkpt><trkpt lat="42.3261517" lon="13.7015978"><ele>1201.0</ele><time>2026-04-26T08:23:45.579Z</time></trkpt><trkpt lat="42.3262101" lon="13.7016754"><ele>1202.5</ele><time>2026-04-26T08:23:46.587Z</time></trkpt><trkpt lat="42.3262639" lon="13.7017505"><ele>1204.0</ele><time>2026-04-26T08:23:47.515Z</time></trkpt><trkpt lat="42.3263294" lon="13.7018448"><ele>1206.0</ele><time>2026-04-26T08:23:48.633Z</time></trkpt><trkpt lat="42.326429" lon="13.7019938"><ele>1208.0</ele><time>2026-04-26T08:23:50.509Z</time></trkpt><trkpt lat="42.3264933" lon="13.7020575"><ele>1210.0</ele><time>2026-04-26T08:23:51.548Z</time></trkpt><trkpt lat="42.3265715" lon="13.7020978"><ele>1212.0</ele><time>2026-04-26T08:23:52.544Z</time></trkpt><trkpt lat="42.326652" lon="13.7021315"><ele>1214.0</ele><time>2026-04-26T08:23:53.515Z</time></trkpt><trkpt lat="42.3267302" lon="13.7021612"><ele>1213.9999999999998</ele><time>2026-04-26T08:23:54.513Z</time></trkpt><trkpt lat="42.3268039" lon="13.7021885"><ele>1214.0</ele><time>2026-04-26T08:23:55.52Z</time></trkpt><trkpt lat="42.3268743" lon="13.7022082"><ele>1214.0</ele><time>2026-04-26T08:23:56.503Z</time></trkpt><trkpt lat="42.3269426" lon="13.7022235"><ele>1214.0</ele><time>2026-04-26T08:23:57.52Z</time></trkpt><trkpt lat="42.327016" lon="13.7022444"><ele>1214.0</ele><time>2026-04-26T08:23:58.544Z</time></trkpt><trkpt lat="42.3270919" lon="13.7022733"><ele>1213.9999999999998</ele><time>2026-04-26T08:23:59.544Z</time></trkpt><trkpt lat="42.3271656" lon="13.7023015"><ele>1214.0</ele><time>2026-04-26T08:24:00.524Z</time></trkpt><trkpt lat="42.3272504" lon="13.7023176"><ele>1214.4</ele><time>2026-04-26T08:24:01.644Z</time></trkpt><trkpt lat="42.3274016" lon="13.702356"><ele>1214.8000000000002</ele><time>2026-04-26T08:24:03.64Z</time></trkpt><trkpt lat="42.3275152" lon="13.702374"><ele>1215.1999999999998</ele><time>2026-04-26T08:24:05.497Z</time></trkpt><trkpt lat="42.3276079" lon="13.7024069"><ele>1215.6</ele><time>2026-04-26T08:24:07.516Z</time></trkpt><trkpt lat="42.3276676" lon="13.7024366"><ele>1216.0</ele><time>2026-04-26T08:24:09.557Z</time></trkpt><trkpt lat="42.3277339" lon="13.702464"><ele>1216.0</ele><time>2026-04-26T08:24:11.557Z</time></trkpt><trkpt lat="42.3278269" lon="13.7025315"><ele>1216.0</ele><time>2026-04-26T08:24:13.539Z</time></trkpt><trkpt lat="42.3278758" lon="13.7025902"><ele>1216.0</ele><time>2026-04-26T08:24:14.51Z</time></trkpt><trkpt lat="42.3279306" lon="13.7026722"><ele>1216.0</ele><time>2026-04-26T08:24:15.517Z</time></trkpt><trkpt lat="42.327985" lon="13.7027727"><ele>1216.0</ele><time>2026-04-26T08:24:16.513Z</time></trkpt><trkpt lat="42.32805" lon="13.7028942"><ele>1214.0</ele><time>2026-04-26T08:24:17.554Z</time></trkpt><trkpt lat="42.3281139" lon="13.7030069"><ele>1212.0</ele><time>2026-04-26T08:24:18.51Z</time></trkpt><trkpt lat="42.3281882" lon="13.7031282"><ele>1210.0</ele><time>2026-04-26T08:24:19.555Z</time></trkpt><trkpt lat="42.3282495" lon="13.7032546"><ele>1208.0</ele><time>2026-04-26T08:24:20.534Z</time></trkpt><trkpt lat="42.328296" lon="13.7033909"><ele>1206.0</ele><time>2026-04-26T08:24:21.511Z</time></trkpt><trkpt lat="42.3283311" lon="13.7035517"><ele>1205.5</ele><time>2026-04-26T08:24:22.567Z</time></trkpt><trkpt lat="42.3283466" lon="13.7037078"><ele>1205.0</ele><time>2026-04-26T08:24:23.516Z</time></trkpt><trkpt lat="42.3283539" lon="13.703904"><ele>1204.5</ele><time>2026-04-26T08:24:24.57Z</time></trkpt><trkpt lat="42.3283526" lon="13.7040866"><ele>1204.0</ele><time>2026-04-26T08:24:25.518Z</time></trkpt><trkpt lat="42.3283566" lon="13.7042801"><ele>1203.0</ele><time>2026-04-26T08:24:26.53Z</time></trkpt><trkpt lat="42.3283592" lon="13.7044626"><ele>1202.0</ele><time>2026-04-26T08:24:27.491Z</time></trkpt><trkpt lat="42.3283662" lon="13.7046647"><ele>1201.0</ele><time>2026-04-26T08:24:28.515Z</time></trkpt><trkpt lat="42.3283697" lon="13.7048688"><ele>1200.0</ele><time>2026-04-26T08:24:29.515Z</time></trkpt><trkpt lat="42.3283726" lon="13.7050746"><ele>1198.6666666666667</ele><time>2026-04-26T08:24:30.507Z</time></trkpt><trkpt lat="42.3283769" lon="13.7052987"><ele>1197.3333333333335</ele><time>2026-04-26T08:24:31.513Z</time></trkpt><trkpt lat="42.3283787" lon="13.7055224"><ele>1196.0</ele><time>2026-04-26T08:24:32.493Z</time></trkpt><trkpt lat="42.3283773" lon="13.705756"><ele>1196.0</ele><time>2026-04-26T08:24:33.505Z</time></trkpt><trkpt lat="42.3283724" lon="13.7059861"><ele>1196.0</ele><time>2026-04-26T08:24:34.518Z</time></trkpt><trkpt lat="42.3283607" lon="13.7062089"><ele>1196.0</ele><time>2026-04-26T08:24:35.491Z</time></trkpt><trkpt lat="42.3283422" lon="13.7064399"><ele>1194.3333333333335</ele><time>2026-04-26T08:24:36.518Z</time></trkpt><trkpt lat="42.3283282" lon="13.7066561"><ele>1192.6666666666667</ele><time>2026-04-26T08:24:37.491Z</time></trkpt><trkpt lat="42.3283248" lon="13.7068765"><ele>1191.0</ele><time>2026-04-26T08:24:38.503Z</time></trkpt><trkpt lat="42.328324" lon="13.7070797"><ele>1190.75</ele><time>2026-04-26T08:24:39.476Z</time></trkpt><trkpt lat="42.328327" lon="13.7072924"><ele>1190.5</ele><time>2026-04-26T08:24:40.499Z</time></trkpt><trkpt lat="42.3283324" lon="13.7074865"><ele>1190.25</ele><time>2026-04-26T08:24:41.488Z</time></trkpt><trkpt lat="42.328338" lon="13.7076747"><ele>1190.0</ele><time>2026-04-26T08:24:42.481Z</time></trkpt><trkpt lat="42.3283415" lon="13.7078605"><ele>1189.75</ele><time>2026-04-26T08:24:43.491Z</time></trkpt><trkpt lat="42.3283408" lon="13.7080356"><ele>1189.5</ele><time>2026-04-26T08:24:44.478Z</time></trkpt><trkpt lat="42.3283318" lon="13.7082155"><ele>1189.25</ele><time>2026-04-26T08:24:45.517Z</time></trkpt><trkpt lat="42.3283165" lon="13.7083788"><ele>1189.0</ele><time>2026-04-26T08:24:46.468Z</time></trkpt><trkpt lat="42.3283102" lon="13.7085608"><ele>1189.25</ele><time>2026-04-26T08:24:47.481Z</time></trkpt><trkpt lat="42.3283179" lon="13.7087525"><ele>1189.5</ele><time>2026-04-26T08:24:48.506Z</time></trkpt><trkpt lat="42.328332" lon="13.7089449"><ele>1189.75</ele><time>2026-04-26T08:24:49.504Z</time></trkpt><trkpt lat="42.3283496" lon="13.7091523"><ele>1190.0</ele><time>2026-04-26T08:24:50.526Z</time></trkpt><trkpt lat="42.3283649" lon="13.7093491"><ele>1188.75</ele><time>2026-04-26T08:24:51.505Z</time></trkpt><trkpt lat="42.3283788" lon="13.709544"><ele>1187.5</ele><time>2026-04-26T08:24:52.505Z</time></trkpt><trkpt lat="42.3283908" lon="13.709738"><ele>1186.25</ele><time>2026-04-26T08:24:53.519Z</time></trkpt><trkpt lat="42.3284029" lon="13.7099205"><ele>1185.0</ele><time>2026-04-26T08:24:54.515Z</time></trkpt><trkpt lat="42.3284171" lon="13.7101036"><ele>1184.5</ele><time>2026-04-26T08:24:55.517Z</time></trkpt><trkpt lat="42.3284301" lon="13.7102877"><ele>1184.0</ele><time>2026-04-26T08:24:56.515Z</time></trkpt><trkpt lat="42.3284385" lon="13.7104744"><ele>1183.5</ele><time>2026-04-26T08:24:57.521Z</time></trkpt><trkpt lat="42.3284378" lon="13.7106533"><ele>1183.0</ele><time>2026-04-26T08:24:58.505Z</time></trkpt><trkpt lat="42.328419" lon="13.7108473"><ele>1183.0</ele><time>2026-04-26T08:24:59.553Z</time></trkpt><trkpt lat="42.3283914" lon="13.711021"><ele>1183.0</ele><time>2026-04-26T08:25:00.492Z</time></trkpt><trkpt lat="42.3283536" lon="13.7112148"><ele>1183.0</ele><time>2026-04-26T08:25:01.544Z</time></trkpt><trkpt lat="42.3283152" lon="13.7113969"><ele>1183.0</ele><time>2026-04-26T08:25:02.533Z</time></trkpt><trkpt lat="42.3282705" lon="13.711576"><ele>1181.75</ele><time>2026-04-26T08:25:03.552Z</time></trkpt><trkpt lat="42.3282302" lon="13.711737"><ele>1180.5</ele><time>2026-04-26T08:25:04.486Z</time></trkpt><trkpt lat="42.3282002" lon="13.7119039"><ele>1179.25</ele><time>2026-04-26T08:25:05.503Z</time></trkpt><trkpt lat="42.3281928" lon="13.7120453"><ele>1178.0</ele><time>2026-04-26T08:25:06.46Z</time></trkpt><trkpt lat="42.3282015" lon="13.7121903"><ele>1177.8</ele><time>2026-04-26T08:25:07.505Z</time></trkpt><trkpt lat="42.3282428" lon="13.7123315"><ele>1177.6</ele><time>2026-04-26T08:25:08.52Z</time></trkpt><trkpt lat="42.3283175" lon="13.7124669"><ele>1177.4</ele><time>2026-04-26T08:25:09.488Z</time></trkpt><trkpt lat="42.3284017" lon="13.712569"><ele>1177.2</ele><time>2026-04-26T08:25:10.52Z</time></trkpt><trkpt lat="42.3284721" lon="13.7126241"><ele>1177.0</ele><time>2026-04-26T08:25:11.524Z</time></trkpt><trkpt lat="42.3285509" lon="13.7126253"><ele>1177.0</ele><time>2026-04-26T08:25:12.542Z</time></trkpt><trkpt lat="42.3286243" lon="13.7125726"><ele>1177.0</ele><time>2026-04-26T08:25:13.516Z</time></trkpt><trkpt lat="42.3287279" lon="13.7124329"><ele>1177.0</ele><time>2026-04-26T08:25:14.564Z</time></trkpt><trkpt lat="42.328761" lon="13.7122473"><ele>1177.0</ele><time>2026-04-26T08:25:15.533Z</time></trkpt><trkpt lat="42.3288145" lon="13.7121039"><ele>1177.0</ele><time>2026-04-26T08:25:16.49Z</time></trkpt><trkpt lat="42.3288623" lon="13.7119506"><ele>1177.0</ele><time>2026-04-26T08:25:17.5Z</time></trkpt><trkpt lat="42.3289184" lon="13.711799"><ele>1177.0</ele><time>2026-04-26T08:25:18.525Z</time></trkpt><trkpt lat="42.3289938" lon="13.7116652"><ele>1177.0</ele><time>2026-04-26T08:25:19.516Z</time></trkpt><trkpt lat="42.3290916" lon="13.7115466"><ele>1175.5</ele><time>2026-04-26T08:25:20.546Z</time></trkpt><trkpt lat="42.329206" lon="13.7114536"><ele>1174.0</ele><time>2026-04-26T08:25:21.516Z</time></trkpt><trkpt lat="42.3293379" lon="13.7113751"><ele>1172.5</ele><time>2026-04-26T08:25:22.503Z</time></trkpt><trkpt lat="42.3294942" lon="13.7113018"><ele>1171.0</ele><time>2026-04-26T08:25:23.558Z</time></trkpt><trkpt lat="42.3296648" lon="13.7112278"><ele>1175.5</ele><time>2026-04-26T08:25:24.649Z</time></trkpt><trkpt lat="42.3299721" lon="13.7111163"><ele>1180.0</ele><time>2026-04-26T08:25:26.549Z</time></trkpt><trkpt lat="42.3301177" lon="13.7110718"><ele>1174.0</ele><time>2026-04-26T08:25:27.51Z</time></trkpt><trkpt lat="42.3302607" lon="13.7110323"><ele>1168.0</ele><time>2026-04-26T08:25:28.516Z</time></trkpt><trkpt lat="42.3303996" lon="13.7109905"><ele>1162.0</ele><time>2026-04-26T08:25:29.513Z</time></trkpt><trkpt lat="42.330552" lon="13.7109144"><ele>1163.6666666666665</ele><time>2026-04-26T08:25:30.535Z</time></trkpt><trkpt lat="42.3307086" lon="13.7108096"><ele>1165.3333333333333</ele><time>2026-04-26T08:25:31.522Z</time></trkpt><trkpt lat="42.3308698" lon="13.7106973"><ele>1167.0</ele><time>2026-04-26T08:25:32.536Z</time></trkpt><trkpt lat="42.3310308" lon="13.7106014"><ele>1167.0</ele><time>2026-04-26T08:25:33.517Z</time></trkpt><trkpt lat="42.3311826" lon="13.7105167"><ele>1167.0</ele><time>2026-04-26T08:25:34.494Z</time></trkpt><trkpt lat="42.3313361" lon="13.71043"><ele>1167.0</ele><time>2026-04-26T08:25:35.525Z</time></trkpt><trkpt lat="42.3314852" lon="13.7103576"><ele>1169.3333333333333</ele><time>2026-04-26T08:25:36.521Z</time></trkpt><trkpt lat="42.3316444" lon="13.7103264"><ele>1171.6666666666665</ele><time>2026-04-26T08:25:37.524Z</time></trkpt><trkpt lat="42.3318128" lon="13.7103242"><ele>1174.0</ele><time>2026-04-26T08:25:38.53Z</time></trkpt><trkpt lat="42.3319938" lon="13.710342"><ele>1174.0</ele><time>2026-04-26T08:25:39.559Z</time></trkpt><trkpt lat="42.3321714" lon="13.7103807"><ele>1174.0</ele><time>2026-04-26T08:25:40.544Z</time></trkpt><trkpt lat="42.3323641" lon="13.7104281"><ele>1174.0</ele><time>2026-04-26T08:25:41.569Z</time></trkpt><trkpt lat="42.3325501" lon="13.7104707"><ele>1173.3333333333333</ele><time>2026-04-26T08:25:42.541Z</time></trkpt><trkpt lat="42.3327395" lon="13.7105061"><ele>1172.6666666666667</ele><time>2026-04-26T08:25:43.555Z</time></trkpt><trkpt lat="42.3329248" lon="13.7105506"><ele>1172.0</ele><time>2026-04-26T08:25:44.566Z</time></trkpt><trkpt lat="42.3330879" lon="13.7106031"><ele>1169.0</ele><time>2026-04-26T08:25:45.475Z</time></trkpt><trkpt lat="42.3332689" lon="13.7106751"><ele>1166.0</ele><time>2026-04-26T08:25:46.524Z</time></trkpt><trkpt lat="42.3334346" lon="13.7107553"><ele>1163.0</ele><time>2026-04-26T08:25:47.541Z</time></trkpt><trkpt lat="42.3335866" lon="13.7108225"><ele>1163.0</ele><time>2026-04-26T08:25:48.52Z</time></trkpt><trkpt lat="42.3337348" lon="13.710853"><ele>1163.0</ele><time>2026-04-26T08:25:49.498Z</time></trkpt><trkpt lat="42.3338968" lon="13.7108337"><ele>1163.0</ele><time>2026-04-26T08:25:50.525Z</time></trkpt><trkpt lat="42.3340581" lon="13.7107791"><ele>1162.3333333333335</ele><time>2026-04-26T08:25:51.527Z</time></trkpt><trkpt lat="42.3342182" lon="13.7106936"><ele>1161.6666666666667</ele><time>2026-04-26T08:25:52.534Z</time></trkpt><trkpt lat="42.3343817" lon="13.7106122"><ele>1161.0</ele><time>2026-04-26T08:25:53.526Z</time></trkpt><trkpt lat="42.3345539" lon="13.7105387"><ele>1162.3333333333333</ele><time>2026-04-26T08:25:54.516Z</time></trkpt><trkpt lat="42.3347273" lon="13.7104666"><ele>1163.6666666666665</ele><time>2026-04-26T08:25:55.496Z</time></trkpt><trkpt lat="42.3349146" lon="13.710395"><ele>1165.0</ele><time>2026-04-26T08:25:56.554Z</time></trkpt><trkpt lat="42.3350926" lon="13.7103431"><ele>1165.0</ele><time>2026-04-26T08:25:57.528Z</time></trkpt><trkpt lat="42.3352868" lon="13.7102942"><ele>1165.0</ele><time>2026-04-26T08:25:58.578Z</time></trkpt><trkpt lat="42.3354566" lon="13.710252"><ele>1165.0</ele><time>2026-04-26T08:25:59.497Z</time></trkpt><trkpt lat="42.3356531" lon="13.7102043"><ele>1162.6666666666665</ele><time>2026-04-26T08:26:00.551Z</time></trkpt><trkpt lat="42.3358408" lon="13.7101353"><ele>1160.3333333333333</ele><time>2026-04-26T08:26:01.509Z</time></trkpt><trkpt lat="42.3360273" lon="13.7100204"><ele>1158.0</ele><time>2026-04-26T08:26:02.519Z</time></trkpt><trkpt lat="42.3362134" lon="13.7098945"><ele>1155.0</ele><time>2026-04-26T08:26:03.521Z</time></trkpt><trkpt lat="42.3363897" lon="13.7097899"><ele>1152.0</ele><time>2026-04-26T08:26:04.524Z</time></trkpt><trkpt lat="42.3365546" lon="13.7096945"><ele>1149.0</ele><time>2026-04-26T08:26:05.499Z</time></trkpt><trkpt lat="42.3367227" lon="13.7096038"><ele>1149.0</ele><time>2026-04-26T08:26:06.518Z</time></trkpt><trkpt lat="42.3368883" lon="13.709532"><ele>1149.0</ele><time>2026-04-26T08:26:07.553Z</time></trkpt><trkpt lat="42.3370354" lon="13.7094637"><ele>1149.0</ele><time>2026-04-26T08:26:08.535Z</time></trkpt><trkpt lat="42.3371868" lon="13.7093967"><ele>1151.6666666666667</ele><time>2026-04-26T08:26:09.567Z</time></trkpt><trkpt lat="42.3373428" lon="13.7093657"><ele>1154.3333333333335</ele><time>2026-04-26T08:26:10.586Z</time></trkpt><trkpt lat="42.3375094" lon="13.7093719"><ele>1157.0</ele><time>2026-04-26T08:26:11.595Z</time></trkpt><trkpt lat="42.3376673" lon="13.7094079"><ele>1152.3333333333335</ele><time>2026-04-26T08:26:12.567Z</time></trkpt><trkpt lat="42.3378191" lon="13.7094488"><ele>1147.6666666666667</ele><time>2026-04-26T08:26:13.515Z</time></trkpt><trkpt lat="42.3379898" lon="13.7095155"><ele>1143.0</ele><time>2026-04-26T08:26:14.55Z</time></trkpt><trkpt lat="42.3381465" lon="13.7095904"><ele>1141.3333333333333</ele><time>2026-04-26T08:26:15.508Z</time></trkpt><trkpt lat="42.3383162" lon="13.7096789"><ele>1139.6666666666665</ele><time>2026-04-26T08:26:16.532Z</time></trkpt><trkpt lat="42.3384839" lon="13.7097815"><ele>1138.0</ele><time>2026-04-26T08:26:17.566Z</time></trkpt><trkpt lat="42.3386462" lon="13.7098988"><ele>1138.0</ele><time>2026-04-26T08:26:18.61Z</time></trkpt><trkpt lat="42.3387788" lon="13.7099945"><ele>1138.0</ele><time>2026-04-26T08:26:19.531Z</time></trkpt><trkpt lat="42.3389264" lon="13.710094"><ele>1138.0</ele><time>2026-04-26T08:26:20.567Z</time></trkpt><trkpt lat="42.3390724" lon="13.7101687"><ele>1140.3333333333333</ele><time>2026-04-26T08:26:21.534Z</time></trkpt><trkpt lat="42.3392508" lon="13.7102299"><ele>1142.6666666666667</ele><time>2026-04-26T08:26:22.633Z</time></trkpt><trkpt lat="42.3394113" lon="13.7102529"><ele>1145.0</ele><time>2026-04-26T08:26:23.562Z</time></trkpt><trkpt lat="42.3395778" lon="13.710266"><ele>1137.0</ele><time>2026-04-26T08:26:24.529Z</time></trkpt><trkpt lat="42.3397462" lon="13.7102836"><ele>1129.0</ele><time>2026-04-26T08:26:25.548Z</time></trkpt><trkpt lat="42.3398997" lon="13.7103034"><ele>1121.0</ele><time>2026-04-26T08:26:26.574Z</time></trkpt><trkpt lat="42.3400405" lon="13.7102927"><ele>1128.3333333333335</ele><time>2026-04-26T08:26:27.565Z</time></trkpt><trkpt lat="42.3401734" lon="13.7102276"><ele>1135.6666666666667</ele><time>2026-04-26T08:26:28.561Z</time></trkpt><trkpt lat="42.3403037" lon="13.710121"><ele>1143.0</ele><time>2026-04-26T08:26:29.561Z</time></trkpt><trkpt lat="42.3404305" lon="13.7099786"><ele>1136.3333333333333</ele><time>2026-04-26T08:26:30.607Z</time></trkpt><trkpt lat="42.3405511" lon="13.7098281"><ele>1129.6666666666665</ele><time>2026-04-26T08:26:31.595Z</time></trkpt><trkpt lat="42.3406699" lon="13.7096828"><ele>1123.0</ele><time>2026-04-26T08:26:32.549Z</time></trkpt><trkpt lat="42.3408075" lon="13.7095465"><ele>1123.0</ele><time>2026-04-26T08:26:33.608Z</time></trkpt><trkpt lat="42.3409387" lon="13.709462"><ele>1123.0</ele><time>2026-04-26T08:26:34.562Z</time></trkpt><trkpt lat="42.3410819" lon="13.709385"><ele>1123.0</ele><time>2026-04-26T08:26:35.571Z</time></trkpt><trkpt lat="42.3412179" lon="13.7093056"><ele>1123.0</ele><time>2026-04-26T08:26:36.565Z</time></trkpt><trkpt lat="42.3413443" lon="13.7091931"><ele>1122.3333333333333</ele><time>2026-04-26T08:26:37.557Z</time></trkpt><trkpt lat="42.3414568" lon="13.7090485"><ele>1121.6666666666667</ele><time>2026-04-26T08:26:38.555Z</time></trkpt><trkpt lat="42.3415454" lon="13.7088697"><ele>1121.0</ele><time>2026-04-26T08:26:39.565Z</time></trkpt><trkpt lat="42.3416222" lon="13.7086818"><ele>1123.75</ele><time>2026-04-26T08:26:40.559Z</time></trkpt><trkpt lat="42.3417044" lon="13.7085075"><ele>1126.5</ele><time>2026-04-26T08:26:41.575Z</time></trkpt><trkpt lat="42.3417916" lon="13.7083587"><ele>1129.25</ele><time>2026-04-26T08:26:42.561Z</time></trkpt><trkpt lat="42.3418895" lon="13.7082216"><ele>1132.0</ele><time>2026-04-26T08:26:43.57Z</time></trkpt><trkpt lat="42.3419827" lon="13.7081056"><ele>1132.0</ele><time>2026-04-26T08:26:44.546Z</time></trkpt><trkpt lat="42.3420817" lon="13.7079821"><ele>1132.0</ele><time>2026-04-26T08:26:45.65Z</time></trkpt><trkpt lat="42.3421611" lon="13.707899"><ele>1132.0</ele><time>2026-04-26T08:26:46.57Z</time></trkpt><trkpt lat="42.3422525" lon="13.7078355"><ele>1132.0</ele><time>2026-04-26T08:26:47.698Z</time></trkpt><trkpt lat="42.3424085" lon="13.707875"><ele>1129.25</ele><time>2026-04-26T08:26:49.567Z</time></trkpt><trkpt lat="42.3424751" lon="13.7079736"><ele>1126.5</ele><time>2026-04-26T08:26:50.56Z</time></trkpt><trkpt lat="42.3425483" lon="13.7081055"><ele>1123.75</ele><time>2026-04-26T08:26:51.598Z</time></trkpt><trkpt lat="42.3426318" lon="13.7082596"><ele>1121.0</ele><time>2026-04-26T08:26:52.546Z</time></trkpt><trkpt lat="42.3427279" lon="13.7084416"><ele>1123.6666666666667</ele><time>2026-04-26T08:26:53.574Z</time></trkpt><trkpt lat="42.3428436" lon="13.7086564"><ele>1126.3333333333333</ele><time>2026-04-26T08:26:54.533Z</time></trkpt><trkpt lat="42.3429834" lon="13.7089246"><ele>1129.0</ele><time>2026-04-26T08:26:55.542Z</time></trkpt><trkpt lat="42.3431507" lon="13.7092369"><ele>1114.0</ele><time>2026-04-26T08:26:56.567Z</time></trkpt><trkpt lat="42.3434474" lon="13.7097958"><ele>1114.0</ele><time>2026-04-26T08:26:58.427Z</time></trkpt><trkpt lat="42.343591" lon="13.7100748"><ele>1114.0</ele><time>2026-04-26T08:26:59.416Z</time></trkpt><trkpt lat="42.3437249" lon="13.7103489"><ele>1117.0</ele><time>2026-04-26T08:27:00.429Z</time></trkpt><trkpt lat="42.3438461" lon="13.7106"><ele>1120.0</ele><time>2026-04-26T08:27:01.406Z</time></trkpt><trkpt lat="42.3439749" lon="13.7108371"><ele>1123.0</ele><time>2026-04-26T08:27:02.423Z</time></trkpt><trkpt lat="42.3440955" lon="13.7110467"><ele>1117.3333333333333</ele><time>2026-04-26T08:27:03.406Z</time></trkpt><trkpt lat="42.3442126" lon="13.7112527"><ele>1111.6666666666667</ele><time>2026-04-26T08:27:04.418Z</time></trkpt><trkpt lat="42.3443214" lon="13.7114445"><ele>1106.0</ele><time>2026-04-26T08:27:05.404Z</time></trkpt><trkpt lat="42.344423" lon="13.7116213"><ele>1106.0</ele><time>2026-04-26T08:27:06.41Z</time></trkpt><trkpt lat="42.3445114" lon="13.7117761"><ele>1106.0</ele><time>2026-04-26T08:27:07.413Z</time></trkpt><trkpt lat="42.3445916" lon="13.711905"><ele>1106.0</ele><time>2026-04-26T08:27:08.426Z</time></trkpt><trkpt lat="42.3446842" lon="13.7120021"><ele>1106.0</ele><time>2026-04-26T08:27:09.424Z</time></trkpt><trkpt lat="42.3447947" lon="13.7120473"><ele>1109.3333333333335</ele><time>2026-04-26T08:27:10.376Z</time></trkpt><trkpt lat="42.3449278" lon="13.7120448"><ele>1112.6666666666667</ele><time>2026-04-26T08:27:11.401Z</time></trkpt><trkpt lat="42.3451157" lon="13.711981"><ele>1116.0</ele><time>2026-04-26T08:27:12.669Z</time></trkpt><trkpt lat="42.3453723" lon="13.7118572"><ele>1116.0</ele><time>2026-04-26T08:27:14.455Z</time></trkpt><trkpt lat="42.3454888" lon="13.7117626"><ele>1116.0</ele><time>2026-04-26T08:27:15.442Z</time></trkpt><trkpt lat="42.3455851" lon="13.7116529"><ele>1116.0</ele><time>2026-04-26T08:27:16.435Z</time></trkpt><trkpt lat="42.3456758" lon="13.7115571"><ele>1116.0</ele><time>2026-04-26T08:27:17.404Z</time></trkpt><trkpt lat="42.3457827" lon="13.7114897"><ele>1114.0</ele><time>2026-04-26T08:27:18.447Z</time></trkpt><trkpt lat="42.3458953" lon="13.7114873"><ele>1112.0</ele><time>2026-04-26T08:27:19.43Z</time></trkpt><trkpt lat="42.3460139" lon="13.7115551"><ele>1110.0</ele><time>2026-04-26T08:27:20.459Z</time></trkpt><trkpt lat="42.3461232" lon="13.7116826"><ele>1108.0</ele><time>2026-04-26T08:27:21.436Z</time></trkpt><trkpt lat="42.3462335" lon="13.7118407"><ele>1106.6666666666665</ele><time>2026-04-26T08:27:22.417Z</time></trkpt><trkpt lat="42.3463714" lon="13.7119905"><ele>1105.3333333333333</ele><time>2026-04-26T08:27:23.465Z</time></trkpt><trkpt lat="42.3465143" lon="13.7120995"><ele>1104.0</ele><time>2026-04-26T08:27:24.507Z</time></trkpt><trkpt lat="42.3466402" lon="13.7122029"><ele>1104.0</ele><time>2026-04-26T08:27:25.439Z</time></trkpt><trkpt lat="42.346782" lon="13.7123206"><ele>1104.0</ele><time>2026-04-26T08:27:26.483Z</time></trkpt><trkpt lat="42.3469125" lon="13.712443"><ele>1104.0</ele><time>2026-04-26T08:27:27.438Z</time></trkpt><trkpt lat="42.3470528" lon="13.7126131"><ele>1106.5</ele><time>2026-04-26T08:27:28.553Z</time></trkpt><trkpt lat="42.3472532" lon="13.7129407"><ele>1109.0</ele><time>2026-04-26T08:27:30.417Z</time></trkpt><trkpt lat="42.3473431" lon="13.7131277"><ele>1109.0</ele><time>2026-04-26T08:27:31.434Z</time></trkpt><trkpt lat="42.3474163" lon="13.7133028"><ele>1109.0</ele><time>2026-04-26T08:27:32.41Z</time></trkpt><trkpt lat="42.3474987" lon="13.7134906"><ele>1109.0</ele><time>2026-04-26T08:27:33.446Z</time></trkpt><trkpt lat="42.3475929" lon="13.7136598"><ele>1104.6666666666667</ele><time>2026-04-26T08:27:34.424Z</time></trkpt><trkpt lat="42.3477067" lon="13.7138276"><ele>1100.3333333333333</ele><time>2026-04-26T08:27:35.424Z</time></trkpt><trkpt lat="42.3478281" lon="13.713982"><ele>1096.0</ele><time>2026-04-26T08:27:36.426Z</time></trkpt><trkpt lat="42.3479624" lon="13.7141483"><ele>1095.75</ele><time>2026-04-26T08:27:37.542Z</time></trkpt><trkpt lat="42.3480638" lon="13.7142782"><ele>1095.5</ele><time>2026-04-26T08:27:38.447Z</time></trkpt><trkpt lat="42.3481656" lon="13.7144022"><ele>1095.25</ele><time>2026-04-26T08:27:39.404Z</time></trkpt><trkpt lat="42.3482874" lon="13.7145163"><ele>1095.0</ele><time>2026-04-26T08:27:40.417Z</time></trkpt><trkpt lat="42.3484148" lon="13.7146062"><ele>1095.0</ele><time>2026-04-26T08:27:41.388Z</time></trkpt><trkpt lat="42.3485887" lon="13.7146574"><ele>1095.0</ele><time>2026-04-26T08:27:42.419Z</time></trkpt><trkpt lat="42.3487432" lon="13.7147242"><ele>1095.0</ele><time>2026-04-26T08:27:43.419Z</time></trkpt><trkpt lat="42.3489086" lon="13.7147953"><ele>1095.25</ele><time>2026-04-26T08:27:44.544Z</time></trkpt><trkpt lat="42.3490483" lon="13.7148362"><ele>1095.5</ele><time>2026-04-26T08:27:45.495Z</time></trkpt><trkpt lat="42.3491831" lon="13.7148464"><ele>1095.75</ele><time>2026-04-26T08:27:46.442Z</time></trkpt><trkpt lat="42.3493242" lon="13.7148172"><ele>1096.0</ele><time>2026-04-26T08:27:47.395Z</time></trkpt><trkpt lat="42.3494821" lon="13.7147483"><ele>1096.0</ele><time>2026-04-26T08:27:48.423Z</time></trkpt><trkpt lat="42.349636" lon="13.7146361"><ele>1096.0</ele><time>2026-04-26T08:27:49.411Z</time></trkpt><trkpt lat="42.3497962" lon="13.7145093"><ele>1096.0</ele><time>2026-04-26T08:27:50.417Z</time></trkpt><trkpt lat="42.3499593" lon="13.7143879"><ele>1096.6666666666665</ele><time>2026-04-26T08:27:51.437Z</time></trkpt><trkpt lat="42.3501105" lon="13.7142774"><ele>1097.3333333333333</ele><time>2026-04-26T08:27:52.395Z</time></trkpt><trkpt lat="42.3502667" lon="13.714161"><ele>1098.0</ele><time>2026-04-26T08:27:53.394Z</time></trkpt><trkpt lat="42.3504261" lon="13.7140503"><ele>1097.3333333333333</ele><time>2026-04-26T08:27:54.401Z</time></trkpt><trkpt lat="42.3505869" lon="13.7139422"><ele>1096.6666666666665</ele><time>2026-04-26T08:27:55.427Z</time></trkpt><trkpt lat="42.350736" lon="13.7138336"><ele>1096.0</ele><time>2026-04-26T08:27:56.408Z</time></trkpt><trkpt lat="42.3508849" lon="13.7137201"><ele>1096.0</ele><time>2026-04-26T08:27:57.414Z</time></trkpt><trkpt lat="42.3510323" lon="13.7136095"><ele>1096.0</ele><time>2026-04-26T08:27:58.419Z</time></trkpt><trkpt lat="42.351179" lon="13.7135067"><ele>1096.0</ele><time>2026-04-26T08:27:59.414Z</time></trkpt><trkpt lat="42.3513237" lon="13.7134061"><ele>1097.5</ele><time>2026-04-26T08:28:00.411Z</time></trkpt><trkpt lat="42.3514618" lon="13.7133054"><ele>1099.0</ele><time>2026-04-26T08:28:01.415Z</time></trkpt><trkpt lat="42.3515893" lon="13.7132175"><ele>1100.5</ele><time>2026-04-26T08:28:02.396Z</time></trkpt><trkpt lat="42.3517217" lon="13.7131553"><ele>1102.0</ele><time>2026-04-26T08:28:03.416Z</time></trkpt><trkpt lat="42.3518492" lon="13.7131298"><ele>1102.0</ele><time>2026-04-26T08:28:04.394Z</time></trkpt><trkpt lat="42.3519983" lon="13.7131583"><ele>1102.0</ele><time>2026-04-26T08:28:05.39Z</time></trkpt><trkpt lat="42.3521391" lon="13.7132209"><ele>1102.0</ele><time>2026-04-26T08:28:06.393Z</time></trkpt><trkpt lat="42.352289" lon="13.7132811"><ele>1102.3333333333333</ele><time>2026-04-26T08:28:07.403Z</time></trkpt><trkpt lat="42.3524597" lon="13.7133453"><ele>1102.6666666666667</ele><time>2026-04-26T08:28:08.5Z</time></trkpt><trkpt lat="42.3526176" lon="13.7134059"><ele>1103.0</ele><time>2026-04-26T08:28:09.437Z</time></trkpt><trkpt lat="42.3527979" lon="13.7134781"><ele>1103.0</ele><time>2026-04-26T08:28:10.446Z</time></trkpt><trkpt lat="42.3529735" lon="13.7135479"><ele>1103.0</ele><time>2026-04-26T08:28:11.414Z</time></trkpt><trkpt lat="42.3531341" lon="13.7136278"><ele>1103.0</ele><time>2026-04-26T08:28:12.419Z</time></trkpt><trkpt lat="42.3532747" lon="13.7137352"><ele>1104.6</ele><time>2026-04-26T08:28:13.405Z</time></trkpt><trkpt lat="42.353396" lon="13.7138667"><ele>1106.1999999999998</ele><time>2026-04-26T08:28:14.464Z</time></trkpt><trkpt lat="42.3534825" lon="13.713981"><ele>1107.8</ele><time>2026-04-26T08:28:15.428Z</time></trkpt><trkpt lat="42.3535485" lon="13.7140767"><ele>1109.3999999999999</ele><time>2026-04-26T08:28:16.437Z</time></trkpt><trkpt lat="42.353593" lon="13.7141447"><ele>1111.0</ele><time>2026-04-26T08:28:17.417Z</time></trkpt><trkpt lat="42.3536423" lon="13.714222"><ele>1111.0</ele><time>2026-04-26T08:28:19.456Z</time></trkpt><trkpt lat="42.3536923" lon="13.7142949"><ele>1111.0</ele><time>2026-04-26T08:28:22.415Z</time></trkpt><trkpt lat="42.353749" lon="13.7143631"><ele>1111.0</ele><time>2026-04-26T08:28:25.476Z</time></trkpt><trkpt lat="42.3538071" lon="13.7144029"><ele>1111.0</ele><time>2026-04-26T08:28:28.458Z</time></trkpt><trkpt lat="42.3538506" lon="13.714466"><ele>1111.0</ele><time>2026-04-26T08:29:05.422Z</time></trkpt><trkpt lat="42.3539117" lon="13.7145154"><ele>1111.0</ele><time>2026-04-26T08:29:07.412Z</time></trkpt><trkpt lat="42.3539793" lon="13.7145606"><ele>1111.0</ele><time>2026-04-26T08:29:09.408Z</time></trkpt><trkpt lat="42.3540741" lon="13.7146112"><ele>1111.6666666666665</ele><time>2026-04-26T08:29:11.404Z</time></trkpt><trkpt lat="42.3541684" lon="13.7146698"><ele>1112.3333333333333</ele><time>2026-04-26T08:29:13.444Z</time></trkpt><trkpt lat="42.3542237" lon="13.7147108"><ele>1113.0</ele><time>2026-04-26T08:29:14.407Z</time></trkpt><trkpt lat="42.3542904" lon="13.714763"><ele>1113.6666666666667</ele><time>2026-04-26T08:29:15.396Z</time></trkpt><trkpt lat="42.3543673" lon="13.7148323"><ele>1114.3333333333335</ele><time>2026-04-26T08:29:16.408Z</time></trkpt><trkpt lat="42.3544529" lon="13.7149127"><ele>1115.0</ele><time>2026-04-26T08:29:17.404Z</time></trkpt><trkpt lat="42.3545416" lon="13.7149948"><ele>1115.0</ele><time>2026-04-26T08:29:18.427Z</time></trkpt><trkpt lat="42.3546204" lon="13.7150675"><ele>1115.0</ele><time>2026-04-26T08:29:19.432Z</time></trkpt><trkpt lat="42.3546919" lon="13.7151266"><ele>1115.0</ele><time>2026-04-26T08:29:20.402Z</time></trkpt><trkpt lat="42.3547774" lon="13.7151536"><ele>1115.0</ele><time>2026-04-26T08:29:21.49Z</time></trkpt><trkpt lat="42.3548584" lon="13.7151324"><ele>1115.0</ele><time>2026-04-26T08:29:22.429Z</time></trkpt><trkpt lat="42.3549412" lon="13.7150661"><ele>1115.0</ele><time>2026-04-26T08:29:23.425Z</time></trkpt><trkpt lat="42.3550206" lon="13.7149641"><ele>1116.5</ele><time>2026-04-26T08:29:24.477Z</time></trkpt><trkpt lat="42.3550874" lon="13.7148628"><ele>1118.0</ele><time>2026-04-26T08:29:25.396Z</time></trkpt><trkpt lat="42.3551732" lon="13.7147341"><ele>1119.5</ele><time>2026-04-26T08:29:26.547Z</time></trkpt><trkpt lat="42.355308" lon="13.7145289"><ele>1121.0</ele><time>2026-04-26T08:29:28.443Z</time></trkpt><trkpt lat="42.3553774" lon="13.7144356"><ele>1123.2</ele><time>2026-04-26T08:29:29.404Z</time></trkpt><trkpt lat="42.3554543" lon="13.7143535"><ele>1125.3999999999999</ele><time>2026-04-26T08:29:30.398Z</time></trkpt><trkpt lat="42.3555465" lon="13.7142926"><ele>1127.6</ele><time>2026-04-26T08:29:31.42Z</time></trkpt><trkpt lat="42.3556533" lon="13.7142555"><ele>1129.8</ele><time>2026-04-26T08:29:32.423Z</time></trkpt><trkpt lat="42.3557913" lon="13.7142543"><ele>1132.0</ele><time>2026-04-26T08:29:33.41Z</time></trkpt><trkpt lat="42.3559394" lon="13.7142749"><ele>1132.0</ele><time>2026-04-26T08:29:34.452Z</time></trkpt><trkpt lat="42.3560695" lon="13.7143132"><ele>1132.0</ele><time>2026-04-26T08:29:35.472Z</time></trkpt><trkpt lat="42.3561915" lon="13.7143771"><ele>1132.0</ele><time>2026-04-26T08:29:36.402Z</time></trkpt><trkpt lat="42.3563166" lon="13.7144967"><ele>1132.0</ele><time>2026-04-26T08:29:37.414Z</time></trkpt><trkpt lat="42.3564235" lon="13.7146497"><ele>1134.0</ele><time>2026-04-26T08:29:38.425Z</time></trkpt><trkpt lat="42.356541" lon="13.714823"><ele>1136.0</ele><time>2026-04-26T08:29:39.454Z</time></trkpt><trkpt lat="42.3566543" lon="13.7149844"><ele>1138.0</ele><time>2026-04-26T08:29:40.42Z</time></trkpt><trkpt lat="42.3567582" lon="13.7151349"><ele>1136.25</ele><time>2026-04-26T08:29:41.396Z</time></trkpt><trkpt lat="42.3568624" lon="13.7152831"><ele>1134.5</ele><time>2026-04-26T08:29:42.423Z</time></trkpt><trkpt lat="42.3569525" lon="13.715414"><ele>1132.75</ele><time>2026-04-26T08:29:43.39Z</time></trkpt><trkpt lat="42.3570638" lon="13.7155674"><ele>1131.0</ele><time>2026-04-26T08:29:44.542Z</time></trkpt><trkpt lat="42.3572001" lon="13.7158375"><ele>1130.25</ele><time>2026-04-26T08:29:46.466Z</time></trkpt><trkpt lat="42.3572471" lon="13.7160099"><ele>1129.5</ele><time>2026-04-26T08:29:47.533Z</time></trkpt><trkpt lat="42.3572488" lon="13.7161765"><ele>1128.75</ele><time>2026-04-26T08:29:48.452Z</time></trkpt><trkpt lat="42.3572106" lon="13.7163853"><ele>1128.0</ele><time>2026-04-26T08:29:49.46Z</time></trkpt><trkpt lat="42.3571944" lon="13.7165743"><ele>1128.0</ele><time>2026-04-26T08:29:50.44Z</time></trkpt><trkpt lat="42.357191" lon="13.7167725"><ele>1128.0</ele><time>2026-04-26T08:29:51.413Z</time></trkpt><trkpt lat="42.3571985" lon="13.7169618"><ele>1128.0</ele><time>2026-04-26T08:29:52.43Z</time></trkpt><trkpt lat="42.3572315" lon="13.7171771"><ele>1128.0</ele><time>2026-04-26T08:29:53.53Z</time></trkpt><trkpt lat="42.3573661" lon="13.7176003"><ele>1132.3333333333333</ele><time>2026-04-26T08:29:55.536Z</time></trkpt><trkpt lat="42.3575208" lon="13.7179174"><ele>1136.6666666666665</ele><time>2026-04-26T08:29:57.394Z</time></trkpt><trkpt lat="42.3576212" lon="13.7180707"><ele>1141.0</ele><time>2026-04-26T08:29:58.413Z</time></trkpt><trkpt lat="42.357721" lon="13.7181636"><ele>1141.0</ele><time>2026-04-26T08:29:59.425Z</time></trkpt><trkpt lat="42.3578909" lon="13.7182379"><ele>1141.0</ele><time>2026-04-26T08:30:00.437Z</time></trkpt><trkpt lat="42.3580224" lon="13.718333"><ele>1141.0</ele><time>2026-04-26T08:30:01.432Z</time></trkpt><trkpt lat="42.3581745" lon="13.7184445"><ele>1147.0</ele><time>2026-04-26T08:30:02.574Z</time></trkpt><trkpt lat="42.3583611" lon="13.7186987"><ele>1153.0</ele><time>2026-04-26T08:30:04.446Z</time></trkpt><trkpt lat="42.3584296" lon="13.7188835"><ele>1159.0</ele><time>2026-04-26T08:30:05.426Z</time></trkpt><trkpt lat="42.3584751" lon="13.7191122"><ele>1159.0</ele><time>2026-04-26T08:30:06.452Z</time></trkpt><trkpt lat="42.3585255" lon="13.7193373"><ele>1159.0</ele><time>2026-04-26T08:30:07.415Z</time></trkpt><trkpt lat="42.3585802" lon="13.7195658"><ele>1159.0</ele><time>2026-04-26T08:30:08.419Z</time></trkpt><trkpt lat="42.3586275" lon="13.7198011"><ele>1157.3333333333333</ele><time>2026-04-26T08:30:09.434Z</time></trkpt><trkpt lat="42.358672" lon="13.720026"><ele>1155.6666666666667</ele><time>2026-04-26T08:30:10.411Z</time></trkpt><trkpt lat="42.3587219" lon="13.7202529"><ele>1154.0</ele><time>2026-04-26T08:30:11.413Z</time></trkpt><trkpt lat="42.358777" lon="13.7204744"><ele>1151.3333333333335</ele><time>2026-04-26T08:30:12.421Z</time></trkpt><trkpt lat="42.358845" lon="13.7207088"><ele>1148.6666666666667</ele><time>2026-04-26T08:30:13.513Z</time></trkpt><trkpt lat="42.3589058" lon="13.7208991"><ele>1146.0</ele><time>2026-04-26T08:30:14.424Z</time></trkpt><trkpt lat="42.3589722" lon="13.7211081"><ele>1156.0</ele><time>2026-04-26T08:30:15.417Z</time></trkpt><trkpt lat="42.3590367" lon="13.7213226"><ele>1166.0</ele><time>2026-04-26T08:30:16.44Z</time></trkpt><trkpt lat="42.3590993" lon="13.72153"><ele>1176.0</ele><time>2026-04-26T08:30:17.422Z</time></trkpt><trkpt lat="42.3591682" lon="13.7217407"><ele>1173.6666666666667</ele><time>2026-04-26T08:30:18.449Z</time></trkpt><trkpt lat="42.3592374" lon="13.7219362"><ele>1171.3333333333335</ele><time>2026-04-26T08:30:19.428Z</time></trkpt><trkpt lat="42.3593109" lon="13.7221306"><ele>1169.0</ele><time>2026-04-26T08:30:20.435Z</time></trkpt><trkpt lat="42.3593757" lon="13.7223053"><ele>1169.0</ele><time>2026-04-26T08:30:21.416Z</time></trkpt><trkpt lat="42.3594366" lon="13.7224929"><ele>1169.0</ele><time>2026-04-26T08:30:22.533Z</time></trkpt><trkpt lat="42.3594756" lon="13.722639"><ele>1169.0</ele><time>2026-04-26T08:30:23.434Z</time></trkpt><trkpt lat="42.3595088" lon="13.7227952"><ele>1169.0</ele><time>2026-04-26T08:30:24.419Z</time></trkpt><trkpt lat="42.3595312" lon="13.7229371"><ele>1170.1666666666667</ele><time>2026-04-26T08:30:25.395Z</time></trkpt><trkpt lat="42.3595398" lon="13.7230738"><ele>1171.3333333333335</ele><time>2026-04-26T08:30:26.407Z</time></trkpt><trkpt lat="42.359538" lon="13.7232015"><ele>1172.5</ele><time>2026-04-26T08:30:27.481Z</time></trkpt><trkpt lat="42.3595408" lon="13.7233065"><ele>1173.6666666666667</ele><time>2026-04-26T08:30:28.406Z</time></trkpt><trkpt lat="42.3595598" lon="13.7234105"><ele>1174.8333333333333</ele><time>2026-04-26T08:30:29.43Z</time></trkpt><trkpt lat="42.3596122" lon="13.7234782"><ele>1176.0</ele><time>2026-04-26T08:30:30.648Z</time></trkpt><trkpt lat="42.3597262" lon="13.7234036"><ele>1176.0</ele><time>2026-04-26T08:30:32.434Z</time></trkpt><trkpt lat="42.3597446" lon="13.7233017"><ele>1176.0</ele><time>2026-04-26T08:30:33.425Z</time></trkpt><trkpt lat="42.3597441" lon="13.7232061"><ele>1176.0</ele><time>2026-04-26T08:30:34.423Z</time></trkpt><trkpt lat="42.35973" lon="13.7230867"><ele>1176.0</ele><time>2026-04-26T08:30:35.411Z</time></trkpt><trkpt lat="42.3597105" lon="13.7229394"><ele>1176.0</ele><time>2026-04-26T08:30:36.442Z</time></trkpt><trkpt lat="42.359685" lon="13.722788"><ele>1174.25</ele><time>2026-04-26T08:30:37.415Z</time></trkpt><trkpt lat="42.3596525" lon="13.7226028"><ele>1172.5</ele><time>2026-04-26T08:30:38.512Z</time></trkpt><trkpt lat="42.3596183" lon="13.7224336"><ele>1170.75</ele><time>2026-04-26T08:30:39.415Z</time></trkpt><trkpt lat="42.35958" lon="13.7222547"><ele>1169.0</ele><time>2026-04-26T08:30:40.388Z</time></trkpt><trkpt lat="42.3595392" lon="13.7220633"><ele>1171.3333333333335</ele><time>2026-04-26T08:30:41.404Z</time></trkpt><trkpt lat="42.3595097" lon="13.7218673"><ele>1173.6666666666667</ele><time>2026-04-26T08:30:42.392Z</time></trkpt><trkpt lat="42.3595009" lon="13.7216158"><ele>1176.0</ele><time>2026-04-26T08:30:43.574Z</time></trkpt><trkpt lat="42.3595199" lon="13.7211957"><ele>1178.6666666666667</ele><time>2026-04-26T08:30:45.477Z</time></trkpt><trkpt lat="42.3595226" lon="13.720967"><ele>1181.3333333333335</ele><time>2026-04-26T08:30:46.469Z</time></trkpt><trkpt lat="42.3595151" lon="13.7207406"><ele>1184.0</ele><time>2026-04-26T08:30:47.469Z</time></trkpt><trkpt lat="42.3594871" lon="13.7204852"><ele>1184.6666666666667</ele><time>2026-04-26T08:30:48.698Z</time></trkpt><trkpt lat="42.3594817" lon="13.7201163"><ele>1185.3333333333333</ele><time>2026-04-26T08:30:50.505Z</time></trkpt><trkpt lat="42.3595043" lon="13.7199146"><ele>1186.0</ele><time>2026-04-26T08:30:51.491Z</time></trkpt><trkpt lat="42.3595449" lon="13.7196756"><ele>1187.0</ele><time>2026-04-26T08:30:52.675Z</time></trkpt><trkpt lat="42.3596069" lon="13.7193197"><ele>1188.0</ele><time>2026-04-26T08:30:54.558Z</time></trkpt><trkpt lat="42.3595956" lon="13.7191231"><ele>1189.0</ele><time>2026-04-26T08:30:55.486Z</time></trkpt><trkpt lat="42.3595596" lon="13.7189063"><ele>1189.0</ele><time>2026-04-26T08:30:56.484Z</time></trkpt><trkpt lat="42.3595244" lon="13.718678"><ele>1189.0</ele><time>2026-04-26T08:30:57.49Z</time></trkpt><trkpt lat="42.3595025" lon="13.7184467"><ele>1189.0</ele><time>2026-04-26T08:30:58.504Z</time></trkpt><trkpt lat="42.3594814" lon="13.7182149"><ele>1190.6666666666665</ele><time>2026-04-26T08:30:59.579Z</time></trkpt><trkpt lat="42.3594593" lon="13.7180161"><ele>1192.3333333333333</ele><time>2026-04-26T08:31:00.497Z</time></trkpt><trkpt lat="42.3594342" lon="13.7177886"><ele>1194.0</ele><time>2026-04-26T08:31:01.558Z</time></trkpt><trkpt lat="42.3594168" lon="13.7175887"><ele>1197.0</ele><time>2026-04-26T08:31:02.519Z</time></trkpt><trkpt lat="42.359399" lon="13.7173852"><ele>1200.0</ele><time>2026-04-26T08:31:03.491Z</time></trkpt><trkpt lat="42.3593757" lon="13.7171716"><ele>1203.0</ele><time>2026-04-26T08:31:04.509Z</time></trkpt><trkpt lat="42.359349" lon="13.7169622"><ele>1205.3333333333333</ele><time>2026-04-26T08:31:05.483Z</time></trkpt><trkpt lat="42.359324" lon="13.7167315"><ele>1207.6666666666665</ele><time>2026-04-26T08:31:06.544Z</time></trkpt><trkpt lat="42.3592979" lon="13.716533"><ele>1210.0</ele><time>2026-04-26T08:31:07.477Z</time></trkpt><trkpt lat="42.3592703" lon="13.7163238"><ele>1210.0</ele><time>2026-04-26T08:31:08.469Z</time></trkpt><trkpt lat="42.3592466" lon="13.7161316"><ele>1210.0</ele><time>2026-04-26T08:31:09.485Z</time></trkpt><trkpt lat="42.3592374" lon="13.7159396"><ele>1210.0</ele><time>2026-04-26T08:31:10.51Z</time></trkpt><trkpt lat="42.3592521" lon="13.7157494"><ele>1210.0</ele><time>2026-04-26T08:31:11.488Z</time></trkpt><trkpt lat="42.3592741" lon="13.7155587"><ele>1211.25</ele><time>2026-04-26T08:31:12.503Z</time></trkpt><trkpt lat="42.3592893" lon="13.7153801"><ele>1212.5</ele><time>2026-04-26T08:31:13.519Z</time></trkpt><trkpt lat="42.3593049" lon="13.7152067"><ele>1213.75</ele><time>2026-04-26T08:31:14.495Z</time></trkpt><trkpt lat="42.3593206" lon="13.7150285"><ele>1215.0</ele><time>2026-04-26T08:31:15.518Z</time></trkpt><trkpt lat="42.3593302" lon="13.7148751"><ele>1215.3333333333333</ele><time>2026-04-26T08:31:16.511Z</time></trkpt><trkpt lat="42.3593359" lon="13.7147469"><ele>1215.6666666666667</ele><time>2026-04-26T08:31:17.508Z</time></trkpt><trkpt lat="42.3593499" lon="13.7146552"><ele>1216.0</ele><time>2026-04-26T08:31:18.489Z</time></trkpt><trkpt lat="42.3594364" lon="13.7146044"><ele>1216.3333333333335</ele><time>2026-04-26T08:31:20.481Z</time></trkpt><trkpt lat="42.3594747" lon="13.7147331"><ele>1216.6666666666667</ele><time>2026-04-26T08:31:22.488Z</time></trkpt><trkpt lat="42.359455" lon="13.7148218"><ele>1217.0</ele><time>2026-04-26T08:31:23.396Z</time></trkpt><trkpt lat="42.3594451" lon="13.714959"><ele>1217.0</ele><time>2026-04-26T08:31:24.395Z</time></trkpt><trkpt lat="42.3594456" lon="13.7151353"><ele>1217.0</ele><time>2026-04-26T08:31:25.395Z</time></trkpt><trkpt lat="42.3594566" lon="13.7153263"><ele>1217.0</ele><time>2026-04-26T08:31:26.456Z</time></trkpt><trkpt lat="42.3594773" lon="13.7155138"><ele>1217.0</ele><time>2026-04-26T08:31:27.418Z</time></trkpt><trkpt lat="42.3594907" lon="13.7156878"><ele>1216.5</ele><time>2026-04-26T08:31:28.425Z</time></trkpt><trkpt lat="42.3595036" lon="13.715855"><ele>1216.0</ele><time>2026-04-26T08:31:29.43Z</time></trkpt><trkpt lat="42.3595303" lon="13.7160397"><ele>1215.5</ele><time>2026-04-26T08:31:30.507Z</time></trkpt><trkpt lat="42.3595615" lon="13.7161931"><ele>1215.0</ele><time>2026-04-26T08:31:31.414Z</time></trkpt><trkpt lat="42.3596059" lon="13.7163588"><ele>1213.75</ele><time>2026-04-26T08:31:32.403Z</time></trkpt><trkpt lat="42.3596599" lon="13.7165259"><ele>1212.5</ele><time>2026-04-26T08:31:33.396Z</time></trkpt><trkpt lat="42.3597226" lon="13.716705"><ele>1211.25</ele><time>2026-04-26T08:31:34.407Z</time></trkpt><trkpt lat="42.3597867" lon="13.716886"><ele>1210.0</ele><time>2026-04-26T08:31:35.42Z</time></trkpt><trkpt lat="42.3598569" lon="13.7170679"><ele>1220.6666666666665</ele><time>2026-04-26T08:31:36.418Z</time></trkpt><trkpt lat="42.3599365" lon="13.7172494"><ele>1231.3333333333333</ele><time>2026-04-26T08:31:37.419Z</time></trkpt><trkpt lat="42.3600131" lon="13.71743"><ele>1242.0</ele><time>2026-04-26T08:31:38.421Z</time></trkpt><trkpt lat="42.3600875" lon="13.7176084"><ele>1239.5</ele><time>2026-04-26T08:31:39.419Z</time></trkpt><trkpt lat="42.3601569" lon="13.7177662"><ele>1237.0</ele><time>2026-04-26T08:31:40.398Z</time></trkpt><trkpt lat="42.3602329" lon="13.7179387"><ele>1234.5</ele><time>2026-04-26T08:31:41.444Z</time></trkpt><trkpt lat="42.3603057" lon="13.7181063"><ele>1232.0</ele><time>2026-04-26T08:31:42.431Z</time></trkpt><trkpt lat="42.3603807" lon="13.7182691"><ele>1232.0</ele><time>2026-04-26T08:31:43.415Z</time></trkpt><trkpt lat="42.3604496" lon="13.7184199"><ele>1232.0</ele><time>2026-04-26T08:31:44.423Z</time></trkpt><trkpt lat="42.36052" lon="13.7185694"><ele>1232.0</ele><time>2026-04-26T08:31:45.415Z</time></trkpt><trkpt lat="42.3605895" lon="13.7187315"><ele>1232.0</ele><time>2026-04-26T08:31:46.413Z</time></trkpt><trkpt lat="42.360646" lon="13.7189087"><ele>1238.5</ele><time>2026-04-26T08:31:47.425Z</time></trkpt><trkpt lat="42.3606835" lon="13.7190897"><ele>1245.0</ele><time>2026-04-26T08:31:48.409Z</time></trkpt><trkpt lat="42.3607074" lon="13.7192635"><ele>1251.5</ele><time>2026-04-26T08:31:49.428Z</time></trkpt><trkpt lat="42.360727" lon="13.7194332"><ele>1258.0</ele><time>2026-04-26T08:31:50.413Z</time></trkpt><trkpt lat="42.3607474" lon="13.7196063"><ele>1258.0</ele><time>2026-04-26T08:31:51.411Z</time></trkpt><trkpt lat="42.3607656" lon="13.7197629"><ele>1258.0</ele><time>2026-04-26T08:31:52.401Z</time></trkpt><trkpt lat="42.3607845" lon="13.7199182"><ele>1258.0</ele><time>2026-04-26T08:31:53.415Z</time></trkpt><trkpt lat="42.3608047" lon="13.7200794"><ele>1258.0</ele><time>2026-04-26T08:31:54.414Z</time></trkpt><trkpt lat="42.3608281" lon="13.7202436"><ele>1257.4</ele><time>2026-04-26T08:31:55.407Z</time></trkpt><trkpt lat="42.3608493" lon="13.7204058"><ele>1256.8</ele><time>2026-04-26T08:31:56.412Z</time></trkpt><trkpt lat="42.3608683" lon="13.7205585"><ele>1256.2</ele><time>2026-04-26T08:31:57.418Z</time></trkpt><trkpt lat="42.3608838" lon="13.7206911"><ele>1255.6</ele><time>2026-04-26T08:31:58.407Z</time></trkpt><trkpt lat="42.360907" lon="13.7208022"><ele>1255.0</ele><time>2026-04-26T08:31:59.439Z</time></trkpt><trkpt lat="42.3609336" lon="13.7208856"><ele>1255.0</ele><time>2026-04-26T08:32:00.396Z</time></trkpt><trkpt lat="42.3610213" lon="13.7209114"><ele>1255.0</ele><time>2026-04-26T08:32:02.455Z</time></trkpt><trkpt lat="42.3610877" lon="13.7208605"><ele>1255.0</ele><time>2026-04-26T08:32:03.401Z</time></trkpt><trkpt lat="42.3611088" lon="13.7207599"><ele>1255.0</ele><time>2026-04-26T08:32:04.451Z</time></trkpt><trkpt lat="42.3610945" lon="13.7205841"><ele>1255.0</ele><time>2026-04-26T08:32:05.448Z</time></trkpt><trkpt lat="42.3610961" lon="13.7204024"><ele>1255.75</ele><time>2026-04-26T08:32:06.434Z</time></trkpt><trkpt lat="42.3610927" lon="13.7202082"><ele>1256.5</ele><time>2026-04-26T08:32:07.409Z</time></trkpt><trkpt lat="42.3610918" lon="13.7200385"><ele>1257.25</ele><time>2026-04-26T08:32:08.407Z</time></trkpt><trkpt lat="42.3610946" lon="13.7198869"><ele>1258.0</ele><time>2026-04-26T08:32:09.433Z</time></trkpt><trkpt lat="42.361101" lon="13.7197645"><ele>1258.0</ele><time>2026-04-26T08:32:10.429Z</time></trkpt><trkpt lat="42.361126" lon="13.7196617"><ele>1258.0</ele><time>2026-04-26T08:32:11.477Z</time></trkpt><trkpt lat="42.361223" lon="13.719586"><ele>1258.0</ele><time>2026-04-26T08:32:13.428Z</time></trkpt><trkpt lat="42.3612831" lon="13.7196369"><ele>1258.0</ele><time>2026-04-26T08:32:15.41Z</time></trkpt><trkpt lat="42.3612686" lon="13.7197499"><ele>1258.0</ele><time>2026-04-26T08:32:16.427Z</time></trkpt><trkpt lat="42.3612617" lon="13.7198927"><ele>1258.0</ele><time>2026-04-26T08:32:17.391Z</time></trkpt><trkpt lat="42.3612592" lon="13.7200982"><ele>1258.0</ele><time>2026-04-26T08:32:18.401Z</time></trkpt><trkpt lat="42.3612613" lon="13.72032"><ele>1258.0</ele><time>2026-04-26T08:32:19.537Z</time></trkpt><trkpt lat="42.3612838" lon="13.7206165"><ele>1257.4</ele><time>2026-04-26T08:32:21.459Z</time></trkpt><trkpt lat="42.3613087" lon="13.7207197"><ele>1256.8</ele><time>2026-04-26T08:32:22.423Z</time></trkpt><trkpt lat="42.3613639" lon="13.7208285"><ele>1256.2</ele><time>2026-04-26T08:32:23.429Z</time></trkpt><trkpt lat="42.3614375" lon="13.720868"><ele>1255.6</ele><time>2026-04-26T08:32:24.457Z</time></trkpt><trkpt lat="42.3615474" lon="13.7208556"><ele>1255.0</ele><time>2026-04-26T08:32:25.454Z</time></trkpt><trkpt lat="42.3617295" lon="13.7208127"><ele>1261.3333333333333</ele><time>2026-04-26T08:32:26.476Z</time></trkpt><trkpt lat="42.3619187" lon="13.7207936"><ele>1267.6666666666667</ele><time>2026-04-26T08:32:27.423Z</time></trkpt><trkpt lat="42.3621104" lon="13.7207791"><ele>1274.0</ele><time>2026-04-26T08:32:28.419Z</time></trkpt><trkpt lat="42.3622756" lon="13.7207903"><ele>1276.5</ele><time>2026-04-26T08:32:29.424Z</time></trkpt><trkpt lat="42.3623636" lon="13.7208534"><ele>1279.0</ele><time>2026-04-26T08:32:30.385Z</time></trkpt><trkpt lat="42.3624806" lon="13.7209577"><ele>1281.5</ele><time>2026-04-26T08:32:31.42Z</time></trkpt><trkpt lat="42.3625291" lon="13.7210944"><ele>1284.0</ele><time>2026-04-26T08:32:32.435Z</time></trkpt><trkpt lat="42.3625727" lon="13.7213095"><ele>1284.0</ele><time>2026-04-26T08:32:33.421Z</time></trkpt><trkpt lat="42.3626008" lon="13.7216017"><ele>1284.0</ele><time>2026-04-26T08:32:34.402Z</time></trkpt><trkpt lat="42.362656" lon="13.7218639"><ele>1284.0</ele><time>2026-04-26T08:32:35.424Z</time></trkpt><trkpt lat="42.3627032" lon="13.7220789"><ele>1281.3333333333333</ele><time>2026-04-26T08:32:36.395Z</time></trkpt><trkpt lat="42.3627511" lon="13.7222901"><ele>1278.6666666666665</ele><time>2026-04-26T08:32:37.427Z</time></trkpt><trkpt lat="42.3628005" lon="13.7224859"><ele>1276.0</ele><time>2026-04-26T08:32:38.436Z</time></trkpt><trkpt lat="42.3628503" lon="13.7226742"><ele>1272.0</ele><time>2026-04-26T08:32:39.405Z</time></trkpt><trkpt lat="42.3629043" lon="13.7228674"><ele>1268.0</ele><time>2026-04-26T08:32:40.391Z</time></trkpt><trkpt lat="42.3629577" lon="13.7230687"><ele>1264.0</ele><time>2026-04-26T08:32:41.398Z</time></trkpt><trkpt lat="42.3630079" lon="13.7232571"><ele>1269.75</ele><time>2026-04-26T08:32:42.391Z</time></trkpt><trkpt lat="42.3630569" lon="13.7234261"><ele>1275.5</ele><time>2026-04-26T08:32:43.396Z</time></trkpt><trkpt lat="42.363118" lon="13.7235904"><ele>1281.25</ele><time>2026-04-26T08:32:44.457Z</time></trkpt><trkpt lat="42.3631803" lon="13.7237147"><ele>1287.0</ele><time>2026-04-26T08:32:45.383Z</time></trkpt><trkpt lat="42.3632597" lon="13.7238339"><ele>1287.0</ele><time>2026-04-26T08:32:46.394Z</time></trkpt><trkpt lat="42.3633392" lon="13.7239097"><ele>1287.0</ele><time>2026-04-26T08:32:47.405Z</time></trkpt><trkpt lat="42.3634167" lon="13.7239561"><ele>1287.0</ele><time>2026-04-26T08:32:48.401Z</time></trkpt><trkpt lat="42.3634914" lon="13.723981"><ele>1287.0</ele><time>2026-04-26T08:32:49.413Z</time></trkpt><trkpt lat="42.3635984" lon="13.7239802"><ele>1287.0</ele><time>2026-04-26T08:32:50.385Z</time></trkpt><trkpt lat="42.363711" lon="13.724001"><ele>1287.0</ele><time>2026-04-26T08:32:51.383Z</time></trkpt><trkpt lat="42.3638248" lon="13.724036"><ele>1287.0</ele><time>2026-04-26T08:32:52.377Z</time></trkpt><trkpt lat="42.3639366" lon="13.7240752"><ele>1287.0</ele><time>2026-04-26T08:32:53.356Z</time></trkpt><trkpt lat="42.3640392" lon="13.7241039"><ele>1287.0</ele><time>2026-04-26T08:32:54.368Z</time></trkpt><trkpt lat="42.3641339" lon="13.7241205"><ele>1287.0</ele><time>2026-04-26T08:32:55.39Z</time></trkpt><trkpt lat="42.3642178" lon="13.7241378"><ele>1290.3999999999999</ele><time>2026-04-26T08:32:56.37Z</time></trkpt><trkpt lat="42.3642899" lon="13.7241428"><ele>1293.8</ele><time>2026-04-26T08:32:57.391Z</time></trkpt><trkpt lat="42.3643646" lon="13.7241281"><ele>1297.2</ele><time>2026-04-26T08:32:58.39Z</time></trkpt><trkpt lat="42.3644378" lon="13.7240755"><ele>1300.6</ele><time>2026-04-26T08:32:59.406Z</time></trkpt><trkpt lat="42.3645381" lon="13.7240037"><ele>1304.0</ele><time>2026-04-26T08:33:00.499Z</time></trkpt><trkpt lat="42.3647257" lon="13.7238096"><ele>1304.0</ele><time>2026-04-26T08:33:02.41Z</time></trkpt><trkpt lat="42.3648148" lon="13.7236778"><ele>1304.0</ele><time>2026-04-26T08:33:03.384Z</time></trkpt><trkpt lat="42.36493" lon="13.7235142"><ele>1304.0</ele><time>2026-04-26T08:33:04.522Z</time></trkpt><trkpt lat="42.3651339" lon="13.7232305"><ele>1305.6666666666667</ele><time>2026-04-26T08:33:06.362Z</time></trkpt><trkpt lat="42.3652498" lon="13.7230645"><ele>1307.3333333333333</ele><time>2026-04-26T08:33:07.377Z</time></trkpt><trkpt lat="42.3653672" lon="13.7229028"><ele>1309.0</ele><time>2026-04-26T08:33:08.383Z</time></trkpt><trkpt lat="42.3654798" lon="13.7227443"><ele>1310.75</ele><time>2026-04-26T08:33:09.376Z</time></trkpt><trkpt lat="42.3655829" lon="13.7225948"><ele>1312.5</ele><time>2026-04-26T08:33:10.379Z</time></trkpt><trkpt lat="42.365676" lon="13.7224533"><ele>1314.25</ele><time>2026-04-26T08:33:11.383Z</time></trkpt><trkpt lat="42.3657505" lon="13.7223064"><ele>1316.0</ele><time>2026-04-26T08:33:12.412Z</time></trkpt><trkpt lat="42.3658165" lon="13.7221704"><ele>1316.0</ele><time>2026-04-26T08:33:13.383Z</time></trkpt><trkpt lat="42.3658524" lon="13.7220166"><ele>1316.0</ele><time>2026-04-26T08:33:14.488Z</time></trkpt><trkpt lat="42.3658189" lon="13.7216293"><ele>1316.0</ele><time>2026-04-26T08:33:16.42Z</time></trkpt><trkpt lat="42.365798" lon="13.7214114"><ele>1316.0</ele><time>2026-04-26T08:33:17.478Z</time></trkpt><trkpt lat="42.3657745" lon="13.7212219"><ele>1316.0</ele><time>2026-04-26T08:33:18.396Z</time></trkpt><trkpt lat="42.3657516" lon="13.7210101"><ele>1316.0</ele><time>2026-04-26T08:33:19.418Z</time></trkpt><trkpt lat="42.3657364" lon="13.7208118"><ele>1316.0</ele><time>2026-04-26T08:33:20.38Z</time></trkpt><trkpt lat="42.3657249" lon="13.7205835"><ele>1315.6666666666667</ele><time>2026-04-26T08:33:21.481Z</time></trkpt><trkpt lat="42.3657272" lon="13.7203908"><ele>1315.3333333333333</ele><time>2026-04-26T08:33:22.414Z</time></trkpt><trkpt lat="42.3657464" lon="13.7201661"><ele>1315.0</ele><time>2026-04-26T08:33:23.498Z</time></trkpt><trkpt lat="42.3657794" lon="13.7199623"><ele>1315.0</ele><time>2026-04-26T08:33:24.481Z</time></trkpt><trkpt lat="42.3658819" lon="13.7195664"><ele>1315.0</ele><time>2026-04-26T08:33:26.4Z</time></trkpt><trkpt lat="42.3659552" lon="13.7194058"><ele>1315.0</ele><time>2026-04-26T08:33:27.382Z</time></trkpt><trkpt lat="42.3660272" lon="13.7192553"><ele>1316.6666666666665</ele><time>2026-04-26T08:33:28.389Z</time></trkpt><trkpt lat="42.3660988" lon="13.7191338"><ele>1318.3333333333333</ele><time>2026-04-26T08:33:29.388Z</time></trkpt><trkpt lat="42.3661751" lon="13.7190426"><ele>1320.0</ele><time>2026-04-26T08:33:30.377Z</time></trkpt><trkpt lat="42.3662448" lon="13.7189706"><ele>1321.6666666666667</ele><time>2026-04-26T08:33:31.385Z</time></trkpt><trkpt lat="42.366302" lon="13.7189183"><ele>1323.3333333333335</ele><time>2026-04-26T08:33:32.401Z</time></trkpt><trkpt lat="42.3663651" lon="13.7189187"><ele>1325.0</ele><time>2026-04-26T08:33:33.419Z</time></trkpt><trkpt lat="42.3664324" lon="13.7190127"><ele>1325.3333333333335</ele><time>2026-04-26T08:33:34.393Z</time></trkpt><trkpt lat="42.3664957" lon="13.7191623"><ele>1325.6666666666667</ele><time>2026-04-26T08:33:35.398Z</time></trkpt><trkpt lat="42.3665515" lon="13.7194037"><ele>1326.0</ele><time>2026-04-26T08:33:36.65Z</time></trkpt><trkpt lat="42.3666221" lon="13.7198205"><ele>1324.0</ele><time>2026-04-26T08:33:38.603Z</time></trkpt><trkpt lat="42.3667046" lon="13.7201766"><ele>1322.0</ele><time>2026-04-26T08:33:40.477Z</time></trkpt><trkpt lat="42.3667657" lon="13.7203624"><ele>1320.0</ele><time>2026-04-26T08:33:41.487Z</time></trkpt><trkpt lat="42.3668409" lon="13.7205347"><ele>1320.0</ele><time>2026-04-26T08:33:42.515Z</time></trkpt><trkpt lat="42.3669199" lon="13.7206868"><ele>1320.0</ele><time>2026-04-26T08:33:43.477Z</time></trkpt><trkpt lat="42.3669912" lon="13.7208378"><ele>1320.0</ele><time>2026-04-26T08:33:44.497Z</time></trkpt><trkpt lat="42.3670405" lon="13.7209894"><ele>1320.0</ele><time>2026-04-26T08:33:45.486Z</time></trkpt><trkpt lat="42.3670704" lon="13.7211359"><ele>1320.0</ele><time>2026-04-26T08:33:46.467Z</time></trkpt><trkpt lat="42.3670833" lon="13.7212868"><ele>1320.0</ele><time>2026-04-26T08:33:47.511Z</time></trkpt><trkpt lat="42.367078" lon="13.7214176"><ele>1320.0</ele><time>2026-04-26T08:33:48.474Z</time></trkpt><trkpt lat="42.3670578" lon="13.7215339"><ele>1320.0</ele><time>2026-04-26T08:33:49.516Z</time></trkpt><trkpt lat="42.3670329" lon="13.7216271"><ele>1320.0</ele><time>2026-04-26T08:33:50.51Z</time></trkpt><trkpt lat="42.3670086" lon="13.721717"><ele>1320.0</ele><time>2026-04-26T08:33:51.528Z</time></trkpt><trkpt lat="42.3670118" lon="13.7218822"><ele>1322.0</ele><time>2026-04-26T08:33:53.623Z</time></trkpt><trkpt lat="42.3671097" lon="13.7220041"><ele>1324.0</ele><time>2026-04-26T08:33:55.412Z</time></trkpt><trkpt lat="42.3671991" lon="13.7220388"><ele>1326.0</ele><time>2026-04-26T08:33:56.418Z</time></trkpt><trkpt lat="42.3672973" lon="13.722032"><ele>1328.0</ele><time>2026-04-26T08:33:57.417Z</time></trkpt><trkpt lat="42.3673775" lon="13.7219846"><ele>1330.0</ele><time>2026-04-26T08:33:58.401Z</time></trkpt><trkpt lat="42.3674347" lon="13.7218897"><ele>1330.0</ele><time>2026-04-26T08:33:59.408Z</time></trkpt><trkpt lat="42.3674591" lon="13.7217551"><ele>1330.0</ele><time>2026-04-26T08:34:00.409Z</time></trkpt><trkpt lat="42.3674451" lon="13.7216082"><ele>1330.0</ele><time>2026-04-26T08:34:01.391Z</time></trkpt><trkpt lat="42.367406" lon="13.7214223"><ele>1330.0</ele><time>2026-04-26T08:34:02.415Z</time></trkpt><trkpt lat="42.3673673" lon="13.7212353"><ele>1331.3333333333333</ele><time>2026-04-26T08:34:03.375Z</time></trkpt><trkpt lat="42.3673173" lon="13.7210425"><ele>1332.6666666666667</ele><time>2026-04-26T08:34:04.387Z</time></trkpt><trkpt lat="42.3672659" lon="13.7208406"><ele>1334.0</ele><time>2026-04-26T08:34:05.42Z</time></trkpt><trkpt lat="42.3672134" lon="13.7206176"><ele>1329.3333333333335</ele><time>2026-04-26T08:34:06.512Z</time></trkpt><trkpt lat="42.367167" lon="13.7204231"><ele>1324.6666666666667</ele><time>2026-04-26T08:34:07.444Z</time></trkpt><trkpt lat="42.367116" lon="13.7202144"><ele>1320.0</ele><time>2026-04-26T08:34:08.431Z</time></trkpt><trkpt lat="42.3670665" lon="13.7200049"><ele>1320.0</ele><time>2026-04-26T08:34:09.397Z</time></trkpt><trkpt lat="42.3670266" lon="13.7197782"><ele>1320.0</ele><time>2026-04-26T08:34:10.404Z</time></trkpt><trkpt lat="42.3670113" lon="13.7195498"><ele>1320.0</ele><time>2026-04-26T08:34:11.393Z</time></trkpt><trkpt lat="42.367011" lon="13.7193086"><ele>1323.0</ele><time>2026-04-26T08:34:12.391Z</time></trkpt><trkpt lat="42.3670222" lon="13.719026"><ele>1326.0</ele><time>2026-04-26T08:34:13.517Z</time></trkpt><trkpt lat="42.3670531" lon="13.7185336"><ele>1327.3333333333333</ele><time>2026-04-26T08:34:15.4Z</time></trkpt><trkpt lat="42.367071" lon="13.718282"><ele>1328.6666666666665</ele><time>2026-04-26T08:34:16.396Z</time></trkpt><trkpt lat="42.3670842" lon="13.7180459"><ele>1330.0</ele><time>2026-04-26T08:34:17.411Z</time></trkpt><trkpt lat="42.3670937" lon="13.7178446"><ele>1331.4</ele><time>2026-04-26T08:34:18.402Z</time></trkpt><trkpt lat="42.3671011" lon="13.7176703"><ele>1332.8</ele><time>2026-04-26T08:34:19.395Z</time></trkpt><trkpt lat="42.3671068" lon="13.7175159"><ele>1334.1999999999998</ele><time>2026-04-26T08:34:20.411Z</time></trkpt><trkpt lat="42.3671095" lon="13.7173878"><ele>1335.6</ele><time>2026-04-26T08:34:21.398Z</time></trkpt><trkpt lat="42.3671117" lon="13.7172871"><ele>1337.0</ele><time>2026-04-26T08:34:22.383Z</time></trkpt><trkpt lat="42.3671289" lon="13.7171914"><ele>1340.6666666666667</ele><time>2026-04-26T08:34:23.423Z</time></trkpt><trkpt lat="42.367233" lon="13.7171164"><ele>1344.3333333333335</ele><time>2026-04-26T08:34:25.43Z</time></trkpt><trkpt lat="42.367289" lon="13.7171573"><ele>1348.0</ele><time>2026-04-26T08:34:26.42Z</time></trkpt><trkpt lat="42.3673237" lon="13.7172401"><ele>1351.6666666666667</ele><time>2026-04-26T08:34:27.409Z</time></trkpt><trkpt lat="42.3673273" lon="13.7173574"><ele>1355.3333333333333</ele><time>2026-04-26T08:34:28.453Z</time></trkpt><trkpt lat="42.3673111" lon="13.7175029"><ele>1359.0</ele><time>2026-04-26T08:34:29.432Z</time></trkpt><trkpt lat="42.3673024" lon="13.7177136"><ele>1358.5</ele><time>2026-04-26T08:34:30.556Z</time></trkpt><trkpt lat="42.3672878" lon="13.7181247"><ele>1358.0</ele><time>2026-04-26T08:34:32.404Z</time></trkpt><trkpt lat="42.3672782" lon="13.7183809"><ele>1356.75</ele><time>2026-04-26T08:34:33.443Z</time></trkpt><trkpt lat="42.3672691" lon="13.7185948"><ele>1355.5</ele><time>2026-04-26T08:34:34.432Z</time></trkpt><trkpt lat="42.3672632" lon="13.7188016"><ele>1354.25</ele><time>2026-04-26T08:34:35.433Z</time></trkpt><trkpt lat="42.367264" lon="13.7189863"><ele>1353.0</ele><time>2026-04-26T08:34:36.391Z</time></trkpt><trkpt lat="42.3672961" lon="13.7191625"><ele>1353.0</ele><time>2026-04-26T08:34:37.428Z</time></trkpt><trkpt lat="42.367363" lon="13.7192985"><ele>1353.0</ele><time>2026-04-26T08:34:38.415Z</time></trkpt><trkpt lat="42.3674631" lon="13.7194047"><ele>1353.0</ele><time>2026-04-26T08:34:39.42Z</time></trkpt><trkpt lat="42.3675867" lon="13.7194711"><ele>1353.0</ele><time>2026-04-26T08:34:40.411Z</time></trkpt><trkpt lat="42.3677317" lon="13.7195396"><ele>1350.0</ele><time>2026-04-26T08:34:41.426Z</time></trkpt><trkpt lat="42.3678615" lon="13.7196576"><ele>1347.0</ele><time>2026-04-26T08:34:42.448Z</time></trkpt><trkpt lat="42.3679703" lon="13.7198215"><ele>1344.0</ele><time>2026-04-26T08:34:43.429Z</time></trkpt><trkpt lat="42.3680604" lon="13.7200272"><ele>1350.0</ele><time>2026-04-26T08:34:44.441Z</time></trkpt><trkpt lat="42.3681245" lon="13.7202613"><ele>1356.0</ele><time>2026-04-26T08:34:45.468Z</time></trkpt><trkpt lat="42.3681563" lon="13.7204916"><ele>1362.0</ele><time>2026-04-26T08:34:46.426Z</time></trkpt><trkpt lat="42.3681797" lon="13.7207429"><ele>1362.0</ele><time>2026-04-26T08:34:47.421Z</time></trkpt><trkpt lat="42.3682032" lon="13.7210017"><ele>1362.0</ele><time>2026-04-26T08:34:48.418Z</time></trkpt><trkpt lat="42.3682311" lon="13.7212834"><ele>1362.0</ele><time>2026-04-26T08:34:49.541Z</time></trkpt><trkpt lat="42.3682698" lon="13.7217081"><ele>1361.5</ele><time>2026-04-26T08:34:51.477Z</time></trkpt><trkpt lat="42.3682899" lon="13.7218934"><ele>1361.0</ele><time>2026-04-26T08:34:52.4Z</time></trkpt><trkpt lat="42.3683127" lon="13.7220789"><ele>1360.5</ele><time>2026-04-26T08:34:53.396Z</time></trkpt><trkpt lat="42.3683411" lon="13.7222307"><ele>1360.0</ele><time>2026-04-26T08:34:54.386Z</time></trkpt><trkpt lat="42.368392" lon="13.7223665"><ele>1359.3333333333333</ele><time>2026-04-26T08:34:55.409Z</time></trkpt><trkpt lat="42.3684592" lon="13.7224938"><ele>1358.6666666666665</ele><time>2026-04-26T08:34:56.416Z</time></trkpt><trkpt lat="42.3685317" lon="13.722578"><ele>1358.0</ele><time>2026-04-26T08:34:57.497Z</time></trkpt><trkpt lat="42.3685861" lon="13.72264"><ele>1357.3333333333333</ele><time>2026-04-26T08:34:58.369Z</time></trkpt><trkpt lat="42.3686328" lon="13.7227125"><ele>1356.6666666666667</ele><time>2026-04-26T08:34:59.381Z</time></trkpt><trkpt lat="42.3686612" lon="13.7227905"><ele>1356.0</ele><time>2026-04-26T08:35:00.451Z</time></trkpt><trkpt lat="42.3686563" lon="13.7228783"><ele>1357.4285714285713</ele><time>2026-04-26T08:35:02.384Z</time></trkpt><trkpt lat="42.3686444" lon="13.7229632"><ele>1358.857142857143</ele><time>2026-04-26T08:35:05.432Z</time></trkpt><trkpt lat="42.3686811" lon="13.7230506"><ele>1360.2857142857142</ele><time>2026-04-26T08:35:07.455Z</time></trkpt><trkpt lat="42.3686858" lon="13.723152"><ele>1361.7142857142858</ele><time>2026-04-26T08:35:09.406Z</time></trkpt><trkpt lat="42.3686255" lon="13.723215"><ele>1363.142857142857</ele><time>2026-04-26T08:35:11.401Z</time></trkpt><trkpt lat="42.3685596" lon="13.7232382"><ele>1364.5714285714287</ele><time>2026-04-26T08:36:31.403Z</time></trkpt><trkpt lat="42.3684918" lon="13.7233039"><ele>1366.0</ele><time>2026-04-26T08:36:33.426Z</time></trkpt><trkpt lat="42.368425" lon="13.7233588"><ele>1366.0</ele><time>2026-04-26T08:36:34.417Z</time></trkpt><trkpt lat="42.3683419" lon="13.7234171"><ele>1366.0</ele><time>2026-04-26T08:36:35.428Z</time></trkpt><trkpt lat="42.3682521" lon="13.7234774"><ele>1366.0</ele><time>2026-04-26T08:36:36.406Z</time></trkpt><trkpt lat="42.3681428" lon="13.7235442"><ele>1366.0</ele><time>2026-04-26T08:36:37.505Z</time></trkpt><trkpt lat="42.367939" lon="13.7236774"><ele>1368.5</ele><time>2026-04-26T08:36:39.42Z</time></trkpt><trkpt lat="42.3678261" lon="13.7237624"><ele>1371.0</ele><time>2026-04-26T08:36:40.428Z</time></trkpt><trkpt lat="42.3677165" lon="13.7238594"><ele>1373.5</ele><time>2026-04-26T08:36:41.411Z</time></trkpt><trkpt lat="42.3676066" lon="13.7239754"><ele>1376.0</ele><time>2026-04-26T08:36:42.413Z</time></trkpt><trkpt lat="42.3674968" lon="13.7241063"><ele>1376.0</ele><time>2026-04-26T08:36:43.413Z</time></trkpt><trkpt lat="42.3673881" lon="13.7242589"><ele>1376.0</ele><time>2026-04-26T08:36:44.391Z</time></trkpt><trkpt lat="42.3672752" lon="13.7244486"><ele>1376.0</ele><time>2026-04-26T08:36:45.432Z</time></trkpt><trkpt lat="42.3671807" lon="13.7246476"><ele>1377.0</ele><time>2026-04-26T08:36:46.392Z</time></trkpt><trkpt lat="42.367082" lon="13.7248776"><ele>1378.0</ele><time>2026-04-26T08:36:47.431Z</time></trkpt><trkpt lat="42.3669952" lon="13.7250954"><ele>1379.0</ele><time>2026-04-26T08:36:48.413Z</time></trkpt><trkpt lat="42.366923" lon="13.7253026"><ele>1379.0</ele><time>2026-04-26T08:36:49.421Z</time></trkpt><trkpt lat="42.3668434" lon="13.7255096"><ele>1379.0</ele><time>2026-04-26T08:36:50.569Z</time></trkpt><trkpt lat="42.3667137" lon="13.7257906"><ele>1379.0</ele><time>2026-04-26T08:36:52.43Z</time></trkpt><trkpt lat="42.3666526" lon="13.7259437"><ele>1383.0</ele><time>2026-04-26T08:36:53.39Z</time></trkpt><trkpt lat="42.3665928" lon="13.7261096"><ele>1387.0</ele><time>2026-04-26T08:36:54.421Z</time></trkpt><trkpt lat="42.3665457" lon="13.7262668"><ele>1391.0</ele><time>2026-04-26T08:36:55.402Z</time></trkpt><trkpt lat="42.3665207" lon="13.7264463"><ele>1395.0</ele><time>2026-04-26T08:36:56.435Z</time></trkpt><trkpt lat="42.3665212" lon="13.7266282"><ele>1395.0</ele><time>2026-04-26T08:36:57.415Z</time></trkpt><trkpt lat="42.3665264" lon="13.7268274"><ele>1395.0</ele><time>2026-04-26T08:36:58.432Z</time></trkpt><trkpt lat="42.3665349" lon="13.72704"><ele>1395.0</ele><time>2026-04-26T08:36:59.458Z</time></trkpt><trkpt lat="42.3665445" lon="13.7272332"><ele>1395.0</ele><time>2026-04-26T08:37:00.408Z</time></trkpt><trkpt lat="42.3665537" lon="13.727459"><ele>1396.75</ele><time>2026-04-26T08:37:01.516Z</time></trkpt><trkpt lat="42.3665592" lon="13.7276502"><ele>1398.5</ele><time>2026-04-26T08:37:02.437Z</time></trkpt><trkpt lat="42.3665593" lon="13.7278484"><ele>1400.25</ele><time>2026-04-26T08:37:03.415Z</time></trkpt><trkpt lat="42.3665572" lon="13.7280465"><ele>1402.0</ele><time>2026-04-26T08:37:04.421Z</time></trkpt><trkpt lat="42.3665508" lon="13.7282309"><ele>1403.25</ele><time>2026-04-26T08:37:05.405Z</time></trkpt><trkpt lat="42.3665457" lon="13.7284222"><ele>1404.5</ele><time>2026-04-26T08:37:06.43Z</time></trkpt><trkpt lat="42.3665456" lon="13.7286047"><ele>1405.75</ele><time>2026-04-26T08:37:07.427Z</time></trkpt><trkpt lat="42.3665555" lon="13.7287776"><ele>1407.0</ele><time>2026-04-26T08:37:08.395Z</time></trkpt><trkpt lat="42.3665801" lon="13.7289612"><ele>1407.5</ele><time>2026-04-26T08:37:09.43Z</time></trkpt><trkpt lat="42.3666148" lon="13.7291321"><ele>1408.0</ele><time>2026-04-26T08:37:10.403Z</time></trkpt><trkpt lat="42.3666551" lon="13.7293008"><ele>1408.5</ele><time>2026-04-26T08:37:11.404Z</time></trkpt><trkpt lat="42.3666966" lon="13.7294602"><ele>1409.0</ele><time>2026-04-26T08:37:12.409Z</time></trkpt><trkpt lat="42.3667425" lon="13.7296038"><ele>1406.3333333333335</ele><time>2026-04-26T08:37:13.406Z</time></trkpt><trkpt lat="42.3668032" lon="13.7297762"><ele>1403.6666666666667</ele><time>2026-04-26T08:37:14.658Z</time></trkpt><trkpt lat="42.3669047" lon="13.7300058"><ele>1401.0</ele><time>2026-04-26T08:37:16.436Z</time></trkpt><trkpt lat="42.3669812" lon="13.7301226"><ele>1403.25</ele><time>2026-04-26T08:37:17.42Z</time></trkpt><trkpt lat="42.3670706" lon="13.7302275"><ele>1405.5</ele><time>2026-04-26T08:37:18.455Z</time></trkpt><trkpt lat="42.3671729" lon="13.7302867"><ele>1407.75</ele><time>2026-04-26T08:37:19.458Z</time></trkpt><trkpt lat="42.3672864" lon="13.7303013"><ele>1410.0</ele><time>2026-04-26T08:37:20.46Z</time></trkpt><trkpt lat="42.3673975" lon="13.7302914"><ele>1410.0</ele><time>2026-04-26T08:37:21.435Z</time></trkpt><trkpt lat="42.3675119" lon="13.7302805"><ele>1410.0</ele><time>2026-04-26T08:37:22.418Z</time></trkpt><trkpt lat="42.3676275" lon="13.7303004"><ele>1410.0</ele><time>2026-04-26T08:37:23.432Z</time></trkpt><trkpt lat="42.3677315" lon="13.73035"><ele>1410.0</ele><time>2026-04-26T08:37:24.41Z</time></trkpt><trkpt lat="42.3678252" lon="13.7304167"><ele>1410.0</ele><time>2026-04-26T08:37:25.399Z</time></trkpt><trkpt lat="42.3679202" lon="13.7305014"><ele>1410.0</ele><time>2026-04-26T08:37:26.415Z</time></trkpt><trkpt lat="42.3679981" lon="13.7306159"><ele>1410.0</ele><time>2026-04-26T08:37:27.422Z</time></trkpt><trkpt lat="42.3680589" lon="13.730758"><ele>1410.0</ele><time>2026-04-26T08:37:28.435Z</time></trkpt><trkpt lat="42.3681129" lon="13.7309143"><ele>1410.0</ele><time>2026-04-26T08:37:29.491Z</time></trkpt><trkpt lat="42.3681637" lon="13.7310371"><ele>1411.75</ele><time>2026-04-26T08:37:30.406Z</time></trkpt><trkpt lat="42.3682531" lon="13.7311479"><ele>1413.5</ele><time>2026-04-26T08:37:31.488Z</time></trkpt><trkpt lat="42.3683528" lon="13.7312277"><ele>1415.25</ele><time>2026-04-26T08:37:32.454Z</time></trkpt><trkpt lat="42.3684578" lon="13.7312965"><ele>1417.0</ele><time>2026-04-26T08:37:33.416Z</time></trkpt><trkpt lat="42.3685677" lon="13.7313539"><ele>1417.0</ele><time>2026-04-26T08:37:34.424Z</time></trkpt><trkpt lat="42.3686797" lon="13.7313951"><ele>1417.0</ele><time>2026-04-26T08:37:35.424Z</time></trkpt><trkpt lat="42.3687918" lon="13.7314173"><ele>1417.0</ele><time>2026-04-26T08:37:36.437Z</time></trkpt><trkpt lat="42.368903" lon="13.7314276"><ele>1417.0</ele><time>2026-04-26T08:37:37.418Z</time></trkpt><trkpt lat="42.3690182" lon="13.731444"><ele>1420.25</ele><time>2026-04-26T08:37:38.436Z</time></trkpt><trkpt lat="42.3691324" lon="13.7314574"><ele>1423.5</ele><time>2026-04-26T08:37:39.42Z</time></trkpt><trkpt lat="42.3692452" lon="13.7314609"><ele>1426.75</ele><time>2026-04-26T08:37:40.412Z</time></trkpt><trkpt lat="42.3693629" lon="13.731441"><ele>1430.0</ele><time>2026-04-26T08:37:41.429Z</time></trkpt><trkpt lat="42.3694878" lon="13.7314008"><ele>1430.0</ele><time>2026-04-26T08:37:42.433Z</time></trkpt><trkpt lat="42.3696189" lon="13.7313619"><ele>1430.0</ele><time>2026-04-26T08:37:43.437Z</time></trkpt><trkpt lat="42.3697451" lon="13.7313219"><ele>1430.0</ele><time>2026-04-26T08:37:44.441Z</time></trkpt><trkpt lat="42.3698663" lon="13.7312864"><ele>1430.0</ele><time>2026-04-26T08:37:45.432Z</time></trkpt><trkpt lat="42.3699908" lon="13.7312501"><ele>1430.4</ele><time>2026-04-26T08:37:46.466Z</time></trkpt><trkpt lat="42.3700992" lon="13.7312166"><ele>1430.8</ele><time>2026-04-26T08:37:47.429Z</time></trkpt><trkpt lat="42.3702044" lon="13.7311836"><ele>1431.1999999999998</ele><time>2026-04-26T08:37:48.468Z</time></trkpt><trkpt lat="42.3702994" lon="13.7311513"><ele>1431.6</ele><time>2026-04-26T08:37:49.463Z</time></trkpt><trkpt lat="42.3704081" lon="13.7311151"><ele>1432.0</ele><time>2026-04-26T08:37:50.623Z</time></trkpt><trkpt lat="42.3705788" lon="13.7310745"><ele>1434.8</ele><time>2026-04-26T08:37:52.436Z</time></trkpt><trkpt lat="42.3706729" lon="13.7310475"><ele>1437.6</ele><time>2026-04-26T08:37:53.427Z</time></trkpt><trkpt lat="42.3707666" lon="13.7310199"><ele>1440.3999999999999</ele><time>2026-04-26T08:37:54.435Z</time></trkpt><trkpt lat="42.3708565" lon="13.7309962"><ele>1443.1999999999998</ele><time>2026-04-26T08:37:55.415Z</time></trkpt><trkpt lat="42.3709478" lon="13.7309713"><ele>1446.0</ele><time>2026-04-26T08:37:56.41Z</time></trkpt><trkpt lat="42.3710389" lon="13.7309426"><ele>1446.0</ele><time>2026-04-26T08:37:57.423Z</time></trkpt><trkpt lat="42.3711286" lon="13.7309188"><ele>1446.0</ele><time>2026-04-26T08:37:58.42Z</time></trkpt><trkpt lat="42.3712219" lon="13.7308928"><ele>1446.0</ele><time>2026-04-26T08:37:59.443Z</time></trkpt><trkpt lat="42.3713109" lon="13.7308691"><ele>1446.0</ele><time>2026-04-26T08:38:00.43Z</time></trkpt><trkpt lat="42.3714011" lon="13.7308477"><ele>1446.0</ele><time>2026-04-26T08:38:01.423Z</time></trkpt><trkpt lat="42.3714948" lon="13.7308266"><ele>1447.6666666666667</ele><time>2026-04-26T08:38:02.469Z</time></trkpt><trkpt lat="42.3715802" lon="13.7308058"><ele>1449.3333333333333</ele><time>2026-04-26T08:38:03.435Z</time></trkpt><trkpt lat="42.3716699" lon="13.7307835"><ele>1451.0</ele><time>2026-04-26T08:38:04.439Z</time></trkpt><trkpt lat="42.3717581" lon="13.7307579"><ele>1452.6666666666665</ele><time>2026-04-26T08:38:05.413Z</time></trkpt><trkpt lat="42.3718494" lon="13.7307303"><ele>1454.3333333333333</ele><time>2026-04-26T08:38:06.448Z</time></trkpt><trkpt lat="42.3719335" lon="13.730709"><ele>1456.0</ele><time>2026-04-26T08:38:07.423Z</time></trkpt><trkpt lat="42.3720156" lon="13.7306861"><ele>1456.0</ele><time>2026-04-26T08:38:08.426Z</time></trkpt><trkpt lat="42.372101" lon="13.7306657"><ele>1456.0</ele><time>2026-04-26T08:38:09.473Z</time></trkpt><trkpt lat="42.3721789" lon="13.7306544"><ele>1456.0</ele><time>2026-04-26T08:38:10.417Z</time></trkpt><trkpt lat="42.3722619" lon="13.7306353"><ele>1456.0</ele><time>2026-04-26T08:38:11.431Z</time></trkpt><trkpt lat="42.3723432" lon="13.7305952"><ele>1456.0</ele><time>2026-04-26T08:38:12.434Z</time></trkpt><trkpt lat="42.3724247" lon="13.7305365"><ele>1456.0</ele><time>2026-04-26T08:38:13.433Z</time></trkpt><trkpt lat="42.3725118" lon="13.7304595"><ele>1456.75</ele><time>2026-04-26T08:38:14.431Z</time></trkpt><trkpt lat="42.372613" lon="13.7303648"><ele>1457.5</ele><time>2026-04-26T08:38:15.423Z</time></trkpt><trkpt lat="42.372734" lon="13.7302556"><ele>1458.25</ele><time>2026-04-26T08:38:16.452Z</time></trkpt><trkpt lat="42.3728682" lon="13.7301333"><ele>1459.0</ele><time>2026-04-26T08:38:17.427Z</time></trkpt><trkpt lat="42.3730283" lon="13.7300088"><ele>1460.0</ele><time>2026-04-26T08:38:18.465Z</time></trkpt><trkpt lat="42.3731833" lon="13.7298963"><ele>1461.0</ele><time>2026-04-26T08:38:19.433Z</time></trkpt><trkpt lat="42.3733392" lon="13.7297719"><ele>1462.0</ele><time>2026-04-26T08:38:20.456Z</time></trkpt><trkpt lat="42.373491" lon="13.7296466"><ele>1462.0</ele><time>2026-04-26T08:38:21.446Z</time></trkpt><trkpt lat="42.3736449" lon="13.7295214"><ele>1462.0</ele><time>2026-04-26T08:38:22.437Z</time></trkpt><trkpt lat="42.3737992" lon="13.7293903"><ele>1462.0</ele><time>2026-04-26T08:38:23.454Z</time></trkpt><trkpt lat="42.3739502" lon="13.729261"><ele>1465.6666666666665</ele><time>2026-04-26T08:38:24.46Z</time></trkpt><trkpt lat="42.3740949" lon="13.7291381"><ele>1469.3333333333333</ele><time>2026-04-26T08:38:25.417Z</time></trkpt><trkpt lat="42.3742415" lon="13.729"><ele>1473.0</ele><time>2026-04-26T08:38:26.439Z</time></trkpt><trkpt lat="42.3743773" lon="13.7288557"><ele>1473.0</ele><time>2026-04-26T08:38:27.436Z</time></trkpt><trkpt lat="42.3745081" lon="13.7287136"><ele>1473.0</ele><time>2026-04-26T08:38:28.41Z</time></trkpt><trkpt lat="42.374644" lon="13.7285585"><ele>1473.0</ele><time>2026-04-26T08:38:29.463Z</time></trkpt><trkpt lat="42.374768" lon="13.7284195"><ele>1475.3333333333333</ele><time>2026-04-26T08:38:30.431Z</time></trkpt><trkpt lat="42.374888" lon="13.7282819"><ele>1477.6666666666665</ele><time>2026-04-26T08:38:31.429Z</time></trkpt><trkpt lat="42.3750031" lon="13.7281519"><ele>1480.0</ele><time>2026-04-26T08:38:32.4Z</time></trkpt><trkpt lat="42.3751223" lon="13.728015"><ele>1480.0</ele><time>2026-04-26T08:38:33.432Z</time></trkpt><trkpt lat="42.3752416" lon="13.7278875"><ele>1480.0</ele><time>2026-04-26T08:38:34.494Z</time></trkpt><trkpt lat="42.3753441" lon="13.727791"><ele>1480.0</ele><time>2026-04-26T08:38:35.455Z</time></trkpt><trkpt lat="42.3754507" lon="13.727714"><ele>1480.0</ele><time>2026-04-26T08:38:36.41Z</time></trkpt><trkpt lat="42.3755677" lon="13.7276649"><ele>1483.0</ele><time>2026-04-26T08:38:37.41Z</time></trkpt><trkpt lat="42.3756889" lon="13.7276514"><ele>1486.0</ele><time>2026-04-26T08:38:38.416Z</time></trkpt><trkpt lat="42.3758141" lon="13.7276922"><ele>1489.0</ele><time>2026-04-26T08:38:39.565Z</time></trkpt><trkpt lat="42.375955" lon="13.7278909"><ele>1489.0</ele><time>2026-04-26T08:38:41.431Z</time></trkpt><trkpt lat="42.3760042" lon="13.7280396"><ele>1489.0</ele><time>2026-04-26T08:38:42.415Z</time></trkpt><trkpt lat="42.3760404" lon="13.7282295"><ele>1489.0</ele><time>2026-04-26T08:38:43.532Z</time></trkpt><trkpt lat="42.3760301" lon="13.7285963"><ele>1489.3333333333333</ele><time>2026-04-26T08:38:45.402Z</time></trkpt><trkpt lat="42.3760173" lon="13.7288187"><ele>1489.6666666666667</ele><time>2026-04-26T08:38:46.415Z</time></trkpt><trkpt lat="42.3760032" lon="13.7290576"><ele>1490.0</ele><time>2026-04-26T08:38:47.428Z</time></trkpt><trkpt lat="42.3759883" lon="13.7292848"><ele>1491.3333333333335</ele><time>2026-04-26T08:38:48.413Z</time></trkpt><trkpt lat="42.3759743" lon="13.729519"><ele>1492.6666666666667</ele><time>2026-04-26T08:38:49.424Z</time></trkpt><trkpt lat="42.3759593" lon="13.7297494"><ele>1494.0</ele><time>2026-04-26T08:38:50.408Z</time></trkpt><trkpt lat="42.3759433" lon="13.7299835"><ele>1494.0</ele><time>2026-04-26T08:38:51.402Z</time></trkpt><trkpt lat="42.3759275" lon="13.730213"><ele>1494.0</ele><time>2026-04-26T08:38:52.385Z</time></trkpt><trkpt lat="42.3759136" lon="13.7304466"><ele>1494.0</ele><time>2026-04-26T08:38:53.391Z</time></trkpt><trkpt lat="42.3758988" lon="13.7306862"><ele>1494.3333333333333</ele><time>2026-04-26T08:38:54.41Z</time></trkpt><trkpt lat="42.375886" lon="13.730921"><ele>1494.6666666666665</ele><time>2026-04-26T08:38:55.407Z</time></trkpt><trkpt lat="42.3758713" lon="13.7311832"><ele>1495.0</ele><time>2026-04-26T08:38:56.517Z</time></trkpt><trkpt lat="42.3758376" lon="13.7316494"><ele>1497.3333333333333</ele><time>2026-04-26T08:38:58.441Z</time></trkpt><trkpt lat="42.375822" lon="13.7318905"><ele>1499.6666666666667</ele><time>2026-04-26T08:38:59.426Z</time></trkpt><trkpt lat="42.3758042" lon="13.7321759"><ele>1502.0</ele><time>2026-04-26T08:39:00.556Z</time></trkpt><trkpt lat="42.3757675" lon="13.7326589"><ele>1504.5</ele><time>2026-04-26T08:39:02.461Z</time></trkpt><trkpt lat="42.3757458" lon="13.7329372"><ele>1507.0</ele><time>2026-04-26T08:39:03.541Z</time></trkpt><trkpt lat="42.375709" lon="13.7334254"><ele>1508.6666666666665</ele><time>2026-04-26T08:39:05.427Z</time></trkpt><trkpt lat="42.3756897" lon="13.7336839"><ele>1510.3333333333333</ele><time>2026-04-26T08:39:06.416Z</time></trkpt><trkpt lat="42.3756705" lon="13.7339489"><ele>1512.0</ele><time>2026-04-26T08:39:07.43Z</time></trkpt><trkpt lat="42.3756507" lon="13.734208"><ele>1513.3333333333333</ele><time>2026-04-26T08:39:08.424Z</time></trkpt><trkpt lat="42.3756302" lon="13.734458"><ele>1514.6666666666665</ele><time>2026-04-26T08:39:09.406Z</time></trkpt><trkpt lat="42.3756095" lon="13.7347118"><ele>1516.0</ele><time>2026-04-26T08:39:10.447Z</time></trkpt><trkpt lat="42.3755905" lon="13.7349397"><ele>1516.0</ele><time>2026-04-26T08:39:11.435Z</time></trkpt><trkpt lat="42.3755731" lon="13.7351486"><ele>1516.0</ele><time>2026-04-26T08:39:12.411Z</time></trkpt><trkpt lat="42.3755609" lon="13.7353569"><ele>1516.0</ele><time>2026-04-26T08:39:13.445Z</time></trkpt><trkpt lat="42.3755584" lon="13.7355525"><ele>1515.0</ele><time>2026-04-26T08:39:14.439Z</time></trkpt><trkpt lat="42.3755734" lon="13.7357389"><ele>1514.0</ele><time>2026-04-26T08:39:15.41Z</time></trkpt><trkpt lat="42.3756103" lon="13.7359206"><ele>1513.0</ele><time>2026-04-26T08:39:16.413Z</time></trkpt><trkpt lat="42.3756828" lon="13.7360875"><ele>1512.0</ele><time>2026-04-26T08:39:17.425Z</time></trkpt><trkpt lat="42.3757796" lon="13.7362333"><ele>1512.0</ele><time>2026-04-26T08:39:18.436Z</time></trkpt><trkpt lat="42.3758948" lon="13.7363337"><ele>1512.0</ele><time>2026-04-26T08:39:19.414Z</time></trkpt><trkpt lat="42.3760282" lon="13.7363904"><ele>1512.0</ele><time>2026-04-26T08:39:20.43Z</time></trkpt><trkpt lat="42.3761758" lon="13.7364019"><ele>1512.0</ele><time>2026-04-26T08:39:21.49Z</time></trkpt><trkpt lat="42.3763119" lon="13.7363975"><ele>1514.5</ele><time>2026-04-26T08:39:22.436Z</time></trkpt><trkpt lat="42.3764604" lon="13.7364117"><ele>1517.0</ele><time>2026-04-26T08:39:23.466Z</time></trkpt><trkpt lat="42.3765909" lon="13.7364288"><ele>1519.5</ele><time>2026-04-26T08:39:24.421Z</time></trkpt><trkpt lat="42.3767201" lon="13.7364419"><ele>1522.0</ele><time>2026-04-26T08:39:25.426Z</time></trkpt><trkpt lat="42.3768451" lon="13.7364449"><ele>1522.0</ele><time>2026-04-26T08:39:26.453Z</time></trkpt><trkpt lat="42.3769513" lon="13.7364507"><ele>1522.0</ele><time>2026-04-26T08:39:27.446Z</time></trkpt><trkpt lat="42.3770478" lon="13.7364554"><ele>1522.0</ele><time>2026-04-26T08:39:28.452Z</time></trkpt><trkpt lat="42.3771312" lon="13.7364607"><ele>1522.0</ele><time>2026-04-26T08:39:29.436Z</time></trkpt><trkpt lat="42.3772178" lon="13.7364655"><ele>1522.0</ele><time>2026-04-26T08:39:30.428Z</time></trkpt><trkpt lat="42.3773068" lon="13.7364536"><ele>1522.75</ele><time>2026-04-26T08:39:31.471Z</time></trkpt><trkpt lat="42.3773892" lon="13.7364082"><ele>1523.5</ele><time>2026-04-26T08:39:32.44Z</time></trkpt><trkpt lat="42.3774604" lon="13.7363145"><ele>1524.25</ele><time>2026-04-26T08:39:33.52Z</time></trkpt><trkpt lat="42.3775603" lon="13.7360805"><ele>1525.0</ele><time>2026-04-26T08:39:35.426Z</time></trkpt><trkpt lat="42.3776218" lon="13.7359559"><ele>1525.0</ele><time>2026-04-26T08:39:36.411Z</time></trkpt><trkpt lat="42.377688" lon="13.7358155"><ele>1525.0</ele><time>2026-04-26T08:39:37.471Z</time></trkpt><trkpt lat="42.377747" lon="13.7356772"><ele>1525.0</ele><time>2026-04-26T08:39:38.421Z</time></trkpt><trkpt lat="42.3778164" lon="13.7355114"><ele>1525.0</ele><time>2026-04-26T08:39:39.538Z</time></trkpt><trkpt lat="42.3779347" lon="13.7352474"><ele>1523.8</ele><time>2026-04-26T08:39:41.419Z</time></trkpt><trkpt lat="42.3779949" lon="13.7351247"><ele>1522.6</ele><time>2026-04-26T08:39:42.417Z</time></trkpt><trkpt lat="42.3780613" lon="13.7350245"><ele>1521.4</ele><time>2026-04-26T08:39:43.446Z</time></trkpt><trkpt lat="42.3781376" lon="13.7349617"><ele>1520.2</ele><time>2026-04-26T08:39:44.452Z</time></trkpt><trkpt lat="42.3782176" lon="13.7349436"><ele>1519.0</ele><time>2026-04-26T08:39:45.446Z</time></trkpt><trkpt lat="42.3782889" lon="13.7349723"><ele>1521.5</ele><time>2026-04-26T08:39:46.455Z</time></trkpt><trkpt lat="42.378345" lon="13.7350366"><ele>1524.0</ele><time>2026-04-26T08:39:47.428Z</time></trkpt><trkpt lat="42.3783852" lon="13.7351344"><ele>1526.5</ele><time>2026-04-26T08:39:48.44Z</time></trkpt><trkpt lat="42.3784043" lon="13.7352483"><ele>1529.0</ele><time>2026-04-26T08:39:49.443Z</time></trkpt><trkpt lat="42.378407" lon="13.7353789"><ele>1531.5</ele><time>2026-04-26T08:39:50.466Z</time></trkpt><trkpt lat="42.3783934" lon="13.73551"><ele>1534.0</ele><time>2026-04-26T08:39:51.425Z</time></trkpt><trkpt lat="42.3783551" lon="13.7356432"><ele>1535.2</ele><time>2026-04-26T08:39:52.443Z</time></trkpt><trkpt lat="42.3783026" lon="13.7357702"><ele>1536.4</ele><time>2026-04-26T08:39:53.432Z</time></trkpt><trkpt lat="42.3782523" lon="13.7359047"><ele>1537.6</ele><time>2026-04-26T08:39:54.434Z</time></trkpt><trkpt lat="42.3781914" lon="13.7360349"><ele>1538.8</ele><time>2026-04-26T08:39:55.456Z</time></trkpt><trkpt lat="42.3781237" lon="13.7361434"><ele>1540.0</ele><time>2026-04-26T08:39:56.422Z</time></trkpt><trkpt lat="42.3780366" lon="13.7362483"><ele>1538.0</ele><time>2026-04-26T08:39:57.539Z</time></trkpt><trkpt lat="42.3778767" lon="13.7364133"><ele>1536.0</ele><time>2026-04-26T08:39:59.551Z</time></trkpt><trkpt lat="42.3777308" lon="13.7365763"><ele>1534.0</ele><time>2026-04-26T08:40:01.427Z</time></trkpt><trkpt lat="42.3776509" lon="13.7366575"><ele>1534.0</ele><time>2026-04-26T08:40:02.439Z</time></trkpt><trkpt lat="42.3775752" lon="13.7367362"><ele>1534.0</ele><time>2026-04-26T08:40:03.413Z</time></trkpt><trkpt lat="42.3775003" lon="13.7368279"><ele>1534.0</ele><time>2026-04-26T08:40:04.48Z</time></trkpt><trkpt lat="42.3774431" lon="13.7369171"><ele>1534.0</ele><time>2026-04-26T08:40:05.433Z</time></trkpt><trkpt lat="42.3773935" lon="13.7370162"><ele>1534.0</ele><time>2026-04-26T08:40:06.438Z</time></trkpt><trkpt lat="42.3773529" lon="13.7371124"><ele>1534.5</ele><time>2026-04-26T08:40:07.422Z</time></trkpt><trkpt lat="42.3773067" lon="13.7372008"><ele>1535.0</ele><time>2026-04-26T08:40:08.463Z</time></trkpt><trkpt lat="42.3772632" lon="13.737273"><ele>1535.5</ele><time>2026-04-26T08:40:09.425Z</time></trkpt><trkpt lat="42.377219" lon="13.7373372"><ele>1536.0</ele><time>2026-04-26T08:40:10.461Z</time></trkpt><trkpt lat="42.3771407" lon="13.73743"><ele>1536.5000000000002</ele><time>2026-04-26T08:40:12.438Z</time></trkpt><trkpt lat="42.3770796" lon="13.7374937"><ele>1537.0</ele><time>2026-04-26T08:40:14.412Z</time></trkpt><trkpt lat="42.377001" lon="13.73759"><ele>1537.0</ele><time>2026-04-26T08:40:27.431Z</time></trkpt><trkpt lat="42.3769398" lon="13.7376449"><ele>1537.0</ele><time>2026-04-26T08:40:28.424Z</time></trkpt><trkpt lat="42.3768699" lon="13.7376978"><ele>1537.0</ele><time>2026-04-26T08:40:29.445Z</time></trkpt><trkpt lat="42.3767753" lon="13.7377661"><ele>1537.0</ele><time>2026-04-26T08:40:30.437Z</time></trkpt><trkpt lat="42.3766644" lon="13.7378583"><ele>1537.0</ele><time>2026-04-26T08:40:31.403Z</time></trkpt><trkpt lat="42.3765493" lon="13.7379748"><ele>1536.0</ele><time>2026-04-26T08:40:32.435Z</time></trkpt><trkpt lat="42.3764427" lon="13.7381243"><ele>1535.0</ele><time>2026-04-26T08:40:33.431Z</time></trkpt><trkpt lat="42.3763275" lon="13.7383176"><ele>1534.0</ele><time>2026-04-26T08:40:34.421Z</time></trkpt><trkpt lat="42.3762031" lon="13.7385445"><ele>1538.6666666666665</ele><time>2026-04-26T08:40:35.444Z</time></trkpt><trkpt lat="42.3760854" lon="13.7387784"><ele>1543.3333333333333</ele><time>2026-04-26T08:40:36.473Z</time></trkpt><trkpt lat="42.3759897" lon="13.7389743"><ele>1548.0</ele><time>2026-04-26T08:40:37.4Z</time></trkpt><trkpt lat="42.3758781" lon="13.739198"><ele>1552.6666666666665</ele><time>2026-04-26T08:40:38.437Z</time></trkpt><trkpt lat="42.3757754" lon="13.7394072"><ele>1557.3333333333333</ele><time>2026-04-26T08:40:39.442Z</time></trkpt><trkpt lat="42.3756878" lon="13.7396224"><ele>1562.0</ele><time>2026-04-26T08:40:40.44Z</time></trkpt><trkpt lat="42.3756093" lon="13.739868"><ele>1562.0</ele><time>2026-04-26T08:40:41.45Z</time></trkpt><trkpt lat="42.37553" lon="13.7401527"><ele>1562.0</ele><time>2026-04-26T08:40:42.546Z</time></trkpt><trkpt lat="42.3754649" lon="13.7403972"><ele>1562.0</ele><time>2026-04-26T08:40:43.494Z</time></trkpt><trkpt lat="42.3753944" lon="13.7406498"><ele>1562.0</ele><time>2026-04-26T08:40:44.433Z</time></trkpt><trkpt lat="42.3753113" lon="13.7409381"><ele>1562.0</ele><time>2026-04-26T08:40:45.501Z</time></trkpt><trkpt lat="42.3752423" lon="13.7411903"><ele>1562.0</ele><time>2026-04-26T08:40:46.432Z</time></trkpt><trkpt lat="42.3751773" lon="13.7414426"><ele>1562.0</ele><time>2026-04-26T08:40:47.425Z</time></trkpt><trkpt lat="42.3751128" lon="13.7416847"><ele>1562.0</ele><time>2026-04-26T08:40:48.408Z</time></trkpt><trkpt lat="42.3750358" lon="13.7419177"><ele>1562.0</ele><time>2026-04-26T08:40:49.414Z</time></trkpt><trkpt lat="42.3749468" lon="13.7421257"><ele>1566.3333333333333</ele><time>2026-04-26T08:40:50.408Z</time></trkpt><trkpt lat="42.3748501" lon="13.7423205"><ele>1570.6666666666665</ele><time>2026-04-26T08:40:51.42Z</time></trkpt><trkpt lat="42.3747624" lon="13.7425072"><ele>1575.0</ele><time>2026-04-26T08:40:52.441Z</time></trkpt><trkpt lat="42.3746982" lon="13.7426889"><ele>1572.3333333333335</ele><time>2026-04-26T08:40:53.406Z</time></trkpt><trkpt lat="42.3746429" lon="13.742889"><ele>1569.6666666666667</ele><time>2026-04-26T08:40:54.433Z</time></trkpt><trkpt lat="42.3745925" lon="13.7430831"><ele>1567.0</ele><time>2026-04-26T08:40:55.407Z</time></trkpt><trkpt lat="42.3745417" lon="13.7432808"><ele>1567.0</ele><time>2026-04-26T08:40:56.399Z</time></trkpt><trkpt lat="42.374488" lon="13.7434719"><ele>1567.0</ele><time>2026-04-26T08:40:57.436Z</time></trkpt><trkpt lat="42.3744352" lon="13.743645"><ele>1567.0</ele><time>2026-04-26T08:40:58.475Z</time></trkpt><trkpt lat="42.3743991" lon="13.7437966"><ele>1567.0</ele><time>2026-04-26T08:40:59.454Z</time></trkpt><trkpt lat="42.3743878" lon="13.7439299"><ele>1568.3333333333335</ele><time>2026-04-26T08:41:00.427Z</time></trkpt><trkpt lat="42.3743951" lon="13.7440577"><ele>1569.6666666666667</ele><time>2026-04-26T08:41:01.436Z</time></trkpt><trkpt lat="42.3744164" lon="13.7441585"><ele>1571.0</ele><time>2026-04-26T08:41:02.412Z</time></trkpt><trkpt lat="42.3744378" lon="13.7442593"><ele>1572.3333333333335</ele><time>2026-04-26T08:41:04.434Z</time></trkpt><trkpt lat="42.3744119" lon="13.7443743"><ele>1573.6666666666667</ele><time>2026-04-26T08:41:21.526Z</time></trkpt><trkpt lat="42.3743835" lon="13.7444591"><ele>1575.0</ele><time>2026-04-26T08:41:24.431Z</time></trkpt><trkpt lat="42.3744529" lon="13.7444501"><ele>1578.6</ele><time>2026-04-26T08:43:06.409Z</time></trkpt><trkpt lat="42.3745076" lon="13.7444014"><ele>1582.2</ele><time>2026-04-26T08:43:08.401Z</time></trkpt><trkpt lat="42.3745818" lon="13.7443822"><ele>1585.8000000000002</ele><time>2026-04-26T08:43:10.47Z</time></trkpt><trkpt lat="42.3747205" lon="13.7444029"><ele>1589.4</ele><time>2026-04-26T08:43:12.411Z</time></trkpt><trkpt lat="42.3748208" lon="13.744401"><ele>1593.0</ele><time>2026-04-26T08:43:13.411Z</time></trkpt><trkpt lat="42.3749406" lon="13.7443897"><ele>1590.75</ele><time>2026-04-26T08:43:14.444Z</time></trkpt><trkpt lat="42.3750626" lon="13.7443686"><ele>1588.5</ele><time>2026-04-26T08:43:15.414Z</time></trkpt><trkpt lat="42.3751875" lon="13.744347"><ele>1586.25</ele><time>2026-04-26T08:43:16.4Z</time></trkpt><trkpt lat="42.3753436" lon="13.7443186"><ele>1584.0</ele><time>2026-04-26T08:43:17.424Z</time></trkpt><trkpt lat="42.3755068" lon="13.7442942"><ele>1585.3333333333335</ele><time>2026-04-26T08:43:18.446Z</time></trkpt><trkpt lat="42.375698" lon="13.7442595"><ele>1586.6666666666667</ele><time>2026-04-26T08:43:19.447Z</time></trkpt><trkpt lat="42.3759178" lon="13.7442092"><ele>1588.0</ele><time>2026-04-26T08:43:20.488Z</time></trkpt><trkpt lat="42.3761179" lon="13.744153"><ele>1588.0</ele><time>2026-04-26T08:43:21.422Z</time></trkpt><trkpt lat="42.376302" lon="13.7440952"><ele>1588.0</ele><time>2026-04-26T08:43:22.412Z</time></trkpt><trkpt lat="42.3764832" lon="13.7440354"><ele>1588.0</ele><time>2026-04-26T08:43:23.415Z</time></trkpt><trkpt lat="42.3766565" lon="13.7439762"><ele>1590.3333333333335</ele><time>2026-04-26T08:43:24.427Z</time></trkpt><trkpt lat="42.3768304" lon="13.7439142"><ele>1592.6666666666665</ele><time>2026-04-26T08:43:25.526Z</time></trkpt><trkpt lat="42.3769777" lon="13.7438577"><ele>1595.0</ele><time>2026-04-26T08:43:26.524Z</time></trkpt><trkpt lat="42.3771077" lon="13.7438079"><ele>1595.6666666666665</ele><time>2026-04-26T08:43:27.473Z</time></trkpt><trkpt lat="42.377246" lon="13.7437803"><ele>1596.3333333333335</ele><time>2026-04-26T08:43:28.399Z</time></trkpt><trkpt lat="42.3774082" lon="13.7437758"><ele>1597.0</ele><time>2026-04-26T08:43:29.408Z</time></trkpt><trkpt lat="42.377565" lon="13.7438041"><ele>1597.0</ele><time>2026-04-26T08:43:30.406Z</time></trkpt><trkpt lat="42.3777617" lon="13.7438578"><ele>1597.0</ele><time>2026-04-26T08:43:31.458Z</time></trkpt><trkpt lat="42.3779433" lon="13.7439004"><ele>1597.0</ele><time>2026-04-26T08:43:32.428Z</time></trkpt><trkpt lat="42.3781291" lon="13.7439436"><ele>1595.75</ele><time>2026-04-26T08:43:33.452Z</time></trkpt><trkpt lat="42.3782964" lon="13.7439828"><ele>1594.5</ele><time>2026-04-26T08:43:34.492Z</time></trkpt><trkpt lat="42.3784256" lon="13.7440166"><ele>1593.25</ele><time>2026-04-26T08:43:35.445Z</time></trkpt><trkpt lat="42.3785403" lon="13.7440627"><ele>1592.0</ele><time>2026-04-26T08:43:36.419Z</time></trkpt><trkpt lat="42.3786493" lon="13.744136"><ele>1592.0</ele><time>2026-04-26T08:43:37.436Z</time></trkpt><trkpt lat="42.378726" lon="13.744223"><ele>1592.0</ele><time>2026-04-26T08:43:38.417Z</time></trkpt><trkpt lat="42.3787783" lon="13.7443616"><ele>1592.0</ele><time>2026-04-26T08:43:39.499Z</time></trkpt><trkpt lat="42.3787733" lon="13.7445471"><ele>1592.0</ele><time>2026-04-26T08:43:40.464Z</time></trkpt><trkpt lat="42.3787485" lon="13.7447523"><ele>1591.5</ele><time>2026-04-26T08:43:41.44Z</time></trkpt><trkpt lat="42.3787615" lon="13.7449087"><ele>1591.0</ele><time>2026-04-26T08:43:42.441Z</time></trkpt><trkpt lat="42.378811" lon="13.7450625"><ele>1590.5</ele><time>2026-04-26T08:43:43.504Z</time></trkpt><trkpt lat="42.3788819" lon="13.7451477"><ele>1590.0</ele><time>2026-04-26T08:43:44.467Z</time></trkpt><trkpt lat="42.3790085" lon="13.7452166"><ele>1591.75</ele><time>2026-04-26T08:43:45.487Z</time></trkpt><trkpt lat="42.3790926" lon="13.7452955"><ele>1593.5</ele><time>2026-04-26T08:43:46.428Z</time></trkpt><trkpt lat="42.3791414" lon="13.745396"><ele>1595.25</ele><time>2026-04-26T08:43:47.453Z</time></trkpt><trkpt lat="42.3791376" lon="13.7455522"><ele>1597.0</ele><time>2026-04-26T08:43:48.439Z</time></trkpt><trkpt lat="42.3791025" lon="13.7457502"><ele>1597.0</ele><time>2026-04-26T08:43:49.439Z</time></trkpt><trkpt lat="42.3790658" lon="13.7458923"><ele>1597.0</ele><time>2026-04-26T08:43:50.48Z</time></trkpt><trkpt lat="42.379014" lon="13.7460153"><ele>1597.0</ele><time>2026-04-26T08:43:51.435Z</time></trkpt><trkpt lat="42.3789154" lon="13.7461155"><ele>1597.0</ele><time>2026-04-26T08:43:52.445Z</time></trkpt><trkpt lat="42.3787793" lon="13.7461737"><ele>1597.3333333333335</ele><time>2026-04-26T08:43:53.446Z</time></trkpt><trkpt lat="42.3786307" lon="13.7462373"><ele>1597.6666666666665</ele><time>2026-04-26T08:43:54.618Z</time></trkpt><trkpt lat="42.3784495" lon="13.7463806"><ele>1598.0</ele><time>2026-04-26T08:43:56.466Z</time></trkpt><trkpt lat="42.3784138" lon="13.7464952"><ele>1598.0</ele><time>2026-04-26T08:43:57.428Z</time></trkpt><trkpt lat="42.3784058" lon="13.7466187"><ele>1598.0</ele><time>2026-04-26T08:43:58.418Z</time></trkpt><trkpt lat="42.3784019" lon="13.7467055"><ele>1598.0</ele><time>2026-04-26T08:43:59.447Z</time></trkpt><trkpt lat="42.3784511" lon="13.7467771"><ele>1598.0</ele><time>2026-04-26T08:44:01.438Z</time></trkpt><trkpt lat="42.3786414" lon="13.7469628"><ele>1598.5</ele><time>2026-04-26T08:44:02.468Z</time></trkpt><trkpt lat="42.3788323" lon="13.7471804"><ele>1599.0</ele><time>2026-04-26T08:44:03.458Z</time></trkpt><trkpt lat="42.3790652" lon="13.7474711"><ele>1595.0</ele><time>2026-04-26T08:44:04.462Z</time></trkpt><trkpt lat="42.3791698" lon="13.7476686"><ele>1591.0</ele><time>2026-04-26T08:44:05.436Z</time></trkpt><trkpt lat="42.3792115" lon="13.7478708"><ele>1587.0</ele><time>2026-04-26T08:44:06.45Z</time></trkpt><trkpt lat="42.3792357" lon="13.7480896"><ele>1586.3333333333335</ele><time>2026-04-26T08:44:07.456Z</time></trkpt><trkpt lat="42.3792419" lon="13.7483164"><ele>1585.6666666666667</ele><time>2026-04-26T08:44:08.445Z</time></trkpt><trkpt lat="42.3792522" lon="13.7485627"><ele>1585.0</ele><time>2026-04-26T08:44:09.526Z</time></trkpt><trkpt lat="42.3792727" lon="13.7487739"><ele>1584.5</ele><time>2026-04-26T08:44:10.546Z</time></trkpt><trkpt lat="42.3792971" lon="13.7489433"><ele>1584.0</ele><time>2026-04-26T08:44:11.464Z</time></trkpt><trkpt lat="42.3793411" lon="13.7491122"><ele>1583.5</ele><time>2026-04-26T08:44:12.483Z</time></trkpt><trkpt lat="42.379404" lon="13.7492313"><ele>1583.0</ele><time>2026-04-26T08:44:13.448Z</time></trkpt><trkpt lat="42.3794868" lon="13.7493222"><ele>1583.0</ele><time>2026-04-26T08:44:14.439Z</time></trkpt><trkpt lat="42.3796199" lon="13.7493633"><ele>1583.0</ele><time>2026-04-26T08:44:15.473Z</time></trkpt><trkpt lat="42.3797639" lon="13.7493997"><ele>1583.0</ele><time>2026-04-26T08:44:16.443Z</time></trkpt><trkpt lat="42.3799323" lon="13.7494439"><ele>1583.3333333333333</ele><time>2026-04-26T08:44:17.486Z</time></trkpt><trkpt lat="42.3800928" lon="13.7494962"><ele>1583.6666666666665</ele><time>2026-04-26T08:44:18.459Z</time></trkpt><trkpt lat="42.3802427" lon="13.749556"><ele>1584.0</ele><time>2026-04-26T08:44:19.455Z</time></trkpt><trkpt lat="42.3803898" lon="13.7496108"><ele>1582.75</ele><time>2026-04-26T08:44:20.471Z</time></trkpt><trkpt lat="42.3805263" lon="13.7496405"><ele>1581.5</ele><time>2026-04-26T08:44:21.446Z</time></trkpt><trkpt lat="42.3806704" lon="13.7496352"><ele>1580.25</ele><time>2026-04-26T08:44:22.505Z</time></trkpt><trkpt lat="42.3807917" lon="13.7496162"><ele>1579.0</ele><time>2026-04-26T08:44:23.437Z</time></trkpt><trkpt lat="42.3809196" lon="13.7496124"><ele>1579.0</ele><time>2026-04-26T08:44:24.462Z</time></trkpt><trkpt lat="42.3810523" lon="13.7496298"><ele>1579.0</ele><time>2026-04-26T08:44:25.569Z</time></trkpt><trkpt lat="42.3812534" lon="13.7497196"><ele>1579.0</ele><time>2026-04-26T08:44:27.482Z</time></trkpt><trkpt lat="42.3813246" lon="13.7498071"><ele>1579.0</ele><time>2026-04-26T08:44:28.472Z</time></trkpt><trkpt lat="42.3813537" lon="13.7499513"><ele>1578.75</ele><time>2026-04-26T08:44:29.466Z</time></trkpt><trkpt lat="42.38136" lon="13.7500847"><ele>1578.5</ele><time>2026-04-26T08:44:30.443Z</time></trkpt><trkpt lat="42.3813452" lon="13.7502309"><ele>1578.25</ele><time>2026-04-26T08:44:31.431Z</time></trkpt><trkpt lat="42.3813089" lon="13.7504036"><ele>1578.0</ele><time>2026-04-26T08:44:32.473Z</time></trkpt><trkpt lat="42.3812684" lon="13.750583"><ele>1578.0</ele><time>2026-04-26T08:44:33.465Z</time></trkpt><trkpt lat="42.381253" lon="13.7507582"><ele>1578.0</ele><time>2026-04-26T08:44:34.434Z</time></trkpt><trkpt lat="42.3812625" lon="13.7509375"><ele>1578.0</ele><time>2026-04-26T08:44:35.47Z</time></trkpt><trkpt lat="42.3813097" lon="13.7511272"><ele>1578.0</ele><time>2026-04-26T08:44:36.42Z</time></trkpt><trkpt lat="42.3813859" lon="13.7513261"><ele>1575.5</ele><time>2026-04-26T08:44:37.438Z</time></trkpt><trkpt lat="42.38147" lon="13.7514956"><ele>1573.0</ele><time>2026-04-26T08:44:38.439Z</time></trkpt><trkpt lat="42.3815545" lon="13.7516596"><ele>1570.5</ele><time>2026-04-26T08:44:39.491Z</time></trkpt><trkpt lat="42.3816216" lon="13.7517993"><ele>1568.0</ele><time>2026-04-26T08:44:40.51Z</time></trkpt><trkpt lat="42.3816634" lon="13.7519083"><ele>1567.4999999999998</ele><time>2026-04-26T08:44:41.445Z</time></trkpt><trkpt lat="42.381683" lon="13.7520163"><ele>1567.0</ele><time>2026-04-26T08:44:42.42Z</time></trkpt><trkpt lat="42.3816826" lon="13.7521274"><ele>1566.5</ele><time>2026-04-26T08:44:43.466Z</time></trkpt><trkpt lat="42.3816483" lon="13.7522281"><ele>1566.0</ele><time>2026-04-26T08:44:44.491Z</time></trkpt><trkpt lat="42.3815757" lon="13.7523012"><ele>1565.4999999999998</ele><time>2026-04-26T08:44:45.421Z</time></trkpt><trkpt lat="42.3814784" lon="13.7523609"><ele>1565.0</ele><time>2026-04-26T08:44:46.474Z</time></trkpt><trkpt lat="42.3813573" lon="13.7523961"><ele>1565.4</ele><time>2026-04-26T08:44:47.445Z</time></trkpt><trkpt lat="42.3812643" lon="13.7524641"><ele>1565.8</ele><time>2026-04-26T08:44:48.429Z</time></trkpt><trkpt lat="42.3811847" lon="13.7525514"><ele>1566.1999999999998</ele><time>2026-04-26T08:44:49.426Z</time></trkpt><trkpt lat="42.3811398" lon="13.7526196"><ele>1566.6</ele><time>2026-04-26T08:44:50.446Z</time></trkpt><trkpt lat="42.3810883" lon="13.7527394"><ele>1567.0</ele><time>2026-04-26T08:44:51.443Z</time></trkpt><trkpt lat="42.3810508" lon="13.7528345"><ele>1567.6</ele><time>2026-04-26T08:44:52.421Z</time></trkpt><trkpt lat="42.3810459" lon="13.7529355"><ele>1568.1999999999998</ele><time>2026-04-26T08:44:53.437Z</time></trkpt><trkpt lat="42.3810571" lon="13.7530912"><ele>1568.8</ele><time>2026-04-26T08:44:54.44Z</time></trkpt><trkpt lat="42.3811041" lon="13.7532528"><ele>1569.4</ele><time>2026-04-26T08:44:55.499Z</time></trkpt><trkpt lat="42.3811263" lon="13.7534029"><ele>1570.0</ele><time>2026-04-26T08:44:56.453Z</time></trkpt><trkpt lat="42.3811406" lon="13.7536049"><ele>1566.0</ele><time>2026-04-26T08:44:57.532Z</time></trkpt><trkpt lat="42.381214" lon="13.7540907"><ele>1562.0</ele><time>2026-04-26T08:44:59.458Z</time></trkpt><trkpt lat="42.3811887" lon="13.7542367"><ele>1562.0</ele><time>2026-04-26T08:45:00.448Z</time></trkpt><trkpt lat="42.3811472" lon="13.7543516"><ele>1562.0</ele><time>2026-04-26T08:45:01.561Z</time></trkpt><trkpt lat="42.3811628" lon="13.7545632"><ele>1562.0</ele><time>2026-04-26T08:45:03.437Z</time></trkpt><trkpt lat="42.3812527" lon="13.7546544"><ele>1562.0</ele><time>2026-04-26T08:45:04.474Z</time></trkpt><trkpt lat="42.3813794" lon="13.7547467"><ele>1559.0</ele><time>2026-04-26T08:45:05.428Z</time></trkpt><trkpt lat="42.3814617" lon="13.7548612"><ele>1556.0</ele><time>2026-04-26T08:45:06.432Z</time></trkpt><trkpt lat="42.3815263" lon="13.7549888"><ele>1553.0</ele><time>2026-04-26T08:45:07.419Z</time></trkpt><trkpt lat="42.3815738" lon="13.7551233"><ele>1550.0</ele><time>2026-04-26T08:45:08.525Z</time></trkpt><trkpt lat="42.3815731" lon="13.7552373"><ele>1547.0</ele><time>2026-04-26T08:45:09.438Z</time></trkpt><trkpt lat="42.3815416" lon="13.7554524"><ele>1544.3333333333333</ele><time>2026-04-26T08:45:10.476Z</time></trkpt><trkpt lat="42.3814984" lon="13.7556503"><ele>1541.6666666666665</ele><time>2026-04-26T08:45:11.427Z</time></trkpt><trkpt lat="42.3814618" lon="13.755891"><ele>1539.0</ele><time>2026-04-26T08:45:12.44Z</time></trkpt><trkpt lat="42.381422" lon="13.7561623"><ele>1539.3333333333335</ele><time>2026-04-26T08:45:13.515Z</time></trkpt><trkpt lat="42.3813856" lon="13.7564051"><ele>1539.6666666666667</ele><time>2026-04-26T08:45:14.499Z</time></trkpt><trkpt lat="42.3813544" lon="13.7566274"><ele>1540.0</ele><time>2026-04-26T08:45:15.458Z</time></trkpt><trkpt lat="42.3813227" lon="13.7568462"><ele>1539.0</ele><time>2026-04-26T08:45:16.499Z</time></trkpt><trkpt lat="42.38129" lon="13.7570233"><ele>1538.0</ele><time>2026-04-26T08:45:17.472Z</time></trkpt><trkpt lat="42.381256" lon="13.7571798"><ele>1537.0</ele><time>2026-04-26T08:45:18.462Z</time></trkpt><trkpt lat="42.3812216" lon="13.7573265"><ele>1536.0</ele><time>2026-04-26T08:45:19.446Z</time></trkpt><trkpt lat="42.3811998" lon="13.7574701"><ele>1536.0</ele><time>2026-04-26T08:45:20.43Z</time></trkpt><trkpt lat="42.3811894" lon="13.7576217"><ele>1536.0</ele><time>2026-04-26T08:45:21.443Z</time></trkpt><trkpt lat="42.381214" lon="13.7577286"><ele>1536.0</ele><time>2026-04-26T08:45:22.476Z</time></trkpt><trkpt lat="42.3812586" lon="13.7578753"><ele>1536.0</ele><time>2026-04-26T08:45:23.465Z</time></trkpt><trkpt lat="42.3813202" lon="13.7580323"><ele>1536.0</ele><time>2026-04-26T08:45:24.436Z</time></trkpt><trkpt lat="42.3813874" lon="13.7582004"><ele>1534.25</ele><time>2026-04-26T08:45:25.566Z</time></trkpt><trkpt lat="42.3814856" lon="13.7584377"><ele>1532.5</ele><time>2026-04-26T08:45:27.456Z</time></trkpt><trkpt lat="42.3815129" lon="13.7585499"><ele>1530.75</ele><time>2026-04-26T08:45:28.411Z</time></trkpt><trkpt lat="42.3815293" lon="13.7586699"><ele>1529.0</ele><time>2026-04-26T08:45:29.441Z</time></trkpt><trkpt lat="42.381534" lon="13.7587918"><ele>1527.2</ele><time>2026-04-26T08:45:30.463Z</time></trkpt><trkpt lat="42.3815343" lon="13.7589122"><ele>1525.4</ele><time>2026-04-26T08:45:31.448Z</time></trkpt><trkpt lat="42.3815193" lon="13.7590147"><ele>1523.6</ele><time>2026-04-26T08:45:32.435Z</time></trkpt><trkpt lat="42.3814717" lon="13.7592059"><ele>1521.8</ele><time>2026-04-26T08:45:34.456Z</time></trkpt><trkpt lat="42.3814458" lon="13.7593422"><ele>1520.0</ele><time>2026-04-26T08:45:35.552Z</time></trkpt><trkpt lat="42.3814343" lon="13.7596062"><ele>1519.75</ele><time>2026-04-26T08:45:37.424Z</time></trkpt><trkpt lat="42.3814829" lon="13.75978"><ele>1519.5</ele><time>2026-04-26T08:45:38.446Z</time></trkpt><trkpt lat="42.3815352" lon="13.7599339"><ele>1519.25</ele><time>2026-04-26T08:45:39.431Z</time></trkpt><trkpt lat="42.3815713" lon="13.7600898"><ele>1519.0</ele><time>2026-04-26T08:45:40.447Z</time></trkpt><trkpt lat="42.3815981" lon="13.7602451"><ele>1518.6</ele><time>2026-04-26T08:45:41.484Z</time></trkpt><trkpt lat="42.3816211" lon="13.7603825"><ele>1518.2</ele><time>2026-04-26T08:45:42.428Z</time></trkpt><trkpt lat="42.3816513" lon="13.7605195"><ele>1517.8</ele><time>2026-04-26T08:45:43.426Z</time></trkpt><trkpt lat="42.3816883" lon="13.7606515"><ele>1517.3999999999999</ele><time>2026-04-26T08:45:44.44Z</time></trkpt><trkpt lat="42.3817313" lon="13.7607361"><ele>1517.0</ele><time>2026-04-26T08:45:45.415Z</time></trkpt><trkpt lat="42.3818013" lon="13.760844"><ele>1517.0</ele><time>2026-04-26T08:45:46.561Z</time></trkpt><trkpt lat="42.3820511" lon="13.7609987"><ele>1517.0</ele><time>2026-04-26T08:45:48.46Z</time></trkpt><trkpt lat="42.3821798" lon="13.761075"><ele>1517.0</ele><time>2026-04-26T08:45:49.546Z</time></trkpt><trkpt lat="42.382393" lon="13.7611935"><ele>1518.25</ele><time>2026-04-26T08:45:51.44Z</time></trkpt><trkpt lat="42.382495" lon="13.7612538"><ele>1519.5</ele><time>2026-04-26T08:45:52.419Z</time></trkpt><trkpt lat="42.3826095" lon="13.7612988"><ele>1520.75</ele><time>2026-04-26T08:45:53.424Z</time></trkpt><trkpt lat="42.3827293" lon="13.7613276"><ele>1522.0</ele><time>2026-04-26T08:45:54.435Z</time></trkpt><trkpt lat="42.3828709" lon="13.7613035"><ele>1519.6666666666665</ele><time>2026-04-26T08:45:55.434Z</time></trkpt><trkpt lat="42.383027" lon="13.7612497"><ele>1517.3333333333333</ele><time>2026-04-26T08:45:56.431Z</time></trkpt><trkpt lat="42.383186" lon="13.7611775"><ele>1515.0</ele><time>2026-04-26T08:45:57.556Z</time></trkpt><trkpt lat="42.3834489" lon="13.7611066"><ele>1515.0</ele><time>2026-04-26T08:45:59.406Z</time></trkpt><trkpt lat="42.3835967" lon="13.7611083"><ele>1515.0</ele><time>2026-04-26T08:46:00.436Z</time></trkpt><trkpt lat="42.3837387" lon="13.761106"><ele>1515.0</ele><time>2026-04-26T08:46:01.447Z</time></trkpt><trkpt lat="42.3838778" lon="13.7610822"><ele>1515.0</ele><time>2026-04-26T08:46:02.448Z</time></trkpt><trkpt lat="42.3840083" lon="13.761031"><ele>1509.0</ele><time>2026-04-26T08:46:03.457Z</time></trkpt><trkpt lat="42.38415" lon="13.7609297"><ele>1503.0</ele><time>2026-04-26T08:46:04.451Z</time></trkpt><trkpt lat="42.3842789" lon="13.7608452"><ele>1497.0</ele><time>2026-04-26T08:46:05.433Z</time></trkpt><trkpt lat="42.3843996" lon="13.7607572"><ele>1491.0</ele><time>2026-04-26T08:46:06.441Z</time></trkpt><trkpt lat="42.3845064" lon="13.76068"><ele>1491.0</ele><time>2026-04-26T08:46:07.427Z</time></trkpt><trkpt lat="42.3846056" lon="13.7606181"><ele>1491.0</ele><time>2026-04-26T08:46:08.469Z</time></trkpt><trkpt lat="42.3846845" lon="13.7605743"><ele>1491.0</ele><time>2026-04-26T08:46:09.438Z</time></trkpt><trkpt lat="42.3847501" lon="13.7605397"><ele>1491.0</ele><time>2026-04-26T08:46:10.414Z</time></trkpt><trkpt lat="42.3848487" lon="13.7604316"><ele>1491.0</ele><time>2026-04-26T08:46:12.487Z</time></trkpt><trkpt lat="42.3847603" lon="13.7605338"><ele>1491.0</ele><time>2026-04-26T08:46:16.439Z</time></trkpt><trkpt lat="42.3846637" lon="13.7606131"><ele>1491.0</ele><time>2026-04-26T08:46:17.409Z</time></trkpt><trkpt lat="42.3845406" lon="13.7607254"><ele>1491.0</ele><time>2026-04-26T08:46:18.424Z</time></trkpt><trkpt lat="42.3844082" lon="13.760825"><ele>1491.0</ele><time>2026-04-26T08:46:19.428Z</time></trkpt><trkpt lat="42.3842928" lon="13.760898"><ele>1491.0</ele><time>2026-04-26T08:46:20.429Z</time></trkpt><trkpt lat="42.3841747" lon="13.7609297"><ele>1491.0</ele><time>2026-04-26T08:46:21.421Z</time></trkpt><trkpt lat="42.38405" lon="13.7609081"><ele>1491.0</ele><time>2026-04-26T08:46:22.421Z</time></trkpt><trkpt lat="42.3839066" lon="13.7608174"><ele>1491.0</ele><time>2026-04-26T08:46:23.412Z</time></trkpt><trkpt lat="42.383749" lon="13.7607008"><ele>1492.75</ele><time>2026-04-26T08:46:24.578Z</time></trkpt><trkpt lat="42.3835118" lon="13.7606125"><ele>1494.5</ele><time>2026-04-26T08:46:26.534Z</time></trkpt><trkpt lat="42.3834141" lon="13.7605939"><ele>1496.25</ele><time>2026-04-26T08:46:27.478Z</time></trkpt><trkpt lat="42.383327" lon="13.7605681"><ele>1498.0</ele><time>2026-04-26T08:46:28.411Z</time></trkpt><trkpt lat="42.3832395" lon="13.7605291"><ele>1498.0</ele><time>2026-04-26T08:46:29.409Z</time></trkpt><trkpt lat="42.3831518" lon="13.7604658"><ele>1498.0</ele><time>2026-04-26T08:46:30.418Z</time></trkpt><trkpt lat="42.3830947" lon="13.7603804"><ele>1498.0</ele><time>2026-04-26T08:46:31.402Z</time></trkpt><trkpt lat="42.3830412" lon="13.7602672"><ele>1498.0</ele><time>2026-04-26T08:46:32.404Z</time></trkpt><trkpt lat="42.3830237" lon="13.7601032"><ele>1498.0</ele><time>2026-04-26T08:46:33.425Z</time></trkpt><trkpt lat="42.3830284" lon="13.7598862"><ele>1499.0</ele><time>2026-04-26T08:46:34.432Z</time></trkpt><trkpt lat="42.3830182" lon="13.7596636"><ele>1500.0</ele><time>2026-04-26T08:46:35.46Z</time></trkpt><trkpt lat="42.3830121" lon="13.7594586"><ele>1501.0</ele><time>2026-04-26T08:46:36.432Z</time></trkpt><trkpt lat="42.3830032" lon="13.7592557"><ele>1501.0</ele><time>2026-04-26T08:46:37.443Z</time></trkpt><trkpt lat="42.3829895" lon="13.7590694"><ele>1501.0</ele><time>2026-04-26T08:46:38.411Z</time></trkpt><trkpt lat="42.382974" lon="13.7588855"><ele>1501.0</ele><time>2026-04-26T08:46:39.415Z</time></trkpt><trkpt lat="42.3829561" lon="13.7587155"><ele>1501.0</ele><time>2026-04-26T08:46:40.412Z</time></trkpt><trkpt lat="42.3829402" lon="13.7585488"><ele>1500.0</ele><time>2026-04-26T08:46:41.421Z</time></trkpt><trkpt lat="42.3829301" lon="13.7584036"><ele>1499.0</ele><time>2026-04-26T08:46:42.426Z</time></trkpt><trkpt lat="42.3829369" lon="13.7582509"><ele>1498.0</ele><time>2026-04-26T08:46:43.496Z</time></trkpt><trkpt lat="42.382968" lon="13.7581352"><ele>1497.0</ele><time>2026-04-26T08:46:44.411Z</time></trkpt><trkpt lat="42.3830146" lon="13.7580147"><ele>1496.0</ele><time>2026-04-26T08:46:45.415Z</time></trkpt><trkpt lat="42.3830602" lon="13.7579073"><ele>1493.0</ele><time>2026-04-26T08:46:46.425Z</time></trkpt><trkpt lat="42.383061" lon="13.7577494"><ele>1490.0</ele><time>2026-04-26T08:46:47.402Z</time></trkpt><trkpt lat="42.3831191" lon="13.757703"><ele>1487.0</ele><time>2026-04-26T08:46:48.437Z</time></trkpt><trkpt lat="42.3832047" lon="13.757704"><ele>1484.0</ele><time>2026-04-26T08:46:49.426Z</time></trkpt><trkpt lat="42.3833083" lon="13.7576737"><ele>1481.0</ele><time>2026-04-26T08:46:50.427Z</time></trkpt><trkpt lat="42.3833752" lon="13.7576326"><ele>1478.0</ele><time>2026-04-26T08:46:51.434Z</time></trkpt><trkpt lat="42.3834467" lon="13.7575411"><ele>1478.0</ele><time>2026-04-26T08:46:52.445Z</time></trkpt><trkpt lat="42.3835111" lon="13.757403"><ele>1478.0</ele><time>2026-04-26T08:46:53.421Z</time></trkpt><trkpt lat="42.3835795" lon="13.7572551"><ele>1478.0</ele><time>2026-04-26T08:46:54.455Z</time></trkpt><trkpt lat="42.3836533" lon="13.7571412"><ele>1478.0</ele><time>2026-04-26T08:46:55.435Z</time></trkpt><trkpt lat="42.3837633" lon="13.7570686"><ele>1475.5</ele><time>2026-04-26T08:46:56.454Z</time></trkpt><trkpt lat="42.3838531" lon="13.756981"><ele>1473.0</ele><time>2026-04-26T08:46:57.424Z</time></trkpt><trkpt lat="42.3839612" lon="13.7568386"><ele>1470.5</ele><time>2026-04-26T08:46:58.55Z</time></trkpt><trkpt lat="42.3840858" lon="13.756703"><ele>1468.0</ele><time>2026-04-26T08:46:59.545Z</time></trkpt><trkpt lat="42.3842778" lon="13.7563682"><ele>1468.0</ele><time>2026-04-26T08:47:01.46Z</time></trkpt><trkpt lat="42.3843797" lon="13.7561927"><ele>1468.0</ele><time>2026-04-26T08:47:02.444Z</time></trkpt><trkpt lat="42.3844936" lon="13.7560197"><ele>1468.0</ele><time>2026-04-26T08:47:03.417Z</time></trkpt><trkpt lat="42.3846173" lon="13.7558038"><ele>1463.6666666666665</ele><time>2026-04-26T08:47:04.425Z</time></trkpt><trkpt lat="42.3847223" lon="13.7555993"><ele>1459.3333333333333</ele><time>2026-04-26T08:47:05.421Z</time></trkpt><trkpt lat="42.3848106" lon="13.7553672"><ele>1455.0</ele><time>2026-04-26T08:47:06.421Z</time></trkpt><trkpt lat="42.3848768" lon="13.7551126"><ele>1455.0</ele><time>2026-04-26T08:47:07.414Z</time></trkpt><trkpt lat="42.3849476" lon="13.754875"><ele>1455.0</ele><time>2026-04-26T08:47:08.4Z</time></trkpt><trkpt lat="42.3850324" lon="13.7546416"><ele>1455.0</ele><time>2026-04-26T08:47:09.403Z</time></trkpt><trkpt lat="42.3851338" lon="13.7544342"><ele>1461.6666666666667</ele><time>2026-04-26T08:47:10.402Z</time></trkpt><trkpt lat="42.3852366" lon="13.7542405"><ele>1468.3333333333335</ele><time>2026-04-26T08:47:11.404Z</time></trkpt><trkpt lat="42.3853419" lon="13.7540472"><ele>1475.0</ele><time>2026-04-26T08:47:12.457Z</time></trkpt><trkpt lat="42.3854353" lon="13.7538658"><ele>1465.0</ele><time>2026-04-26T08:47:13.432Z</time></trkpt><trkpt lat="42.3855214" lon="13.7536832"><ele>1455.0</ele><time>2026-04-26T08:47:14.423Z</time></trkpt><trkpt lat="42.3856039" lon="13.7534978"><ele>1445.0</ele><time>2026-04-26T08:47:15.404Z</time></trkpt><trkpt lat="42.3856813" lon="13.753319"><ele>1445.0</ele><time>2026-04-26T08:47:16.392Z</time></trkpt><trkpt lat="42.3857537" lon="13.7531411"><ele>1445.0</ele><time>2026-04-26T08:47:17.414Z</time></trkpt><trkpt lat="42.3858236" lon="13.7529679"><ele>1445.0</ele><time>2026-04-26T08:47:18.43Z</time></trkpt><trkpt lat="42.3859075" lon="13.7528128"><ele>1445.0</ele><time>2026-04-26T08:47:19.4Z</time></trkpt><trkpt lat="42.3860133" lon="13.7526562"><ele>1442.3333333333335</ele><time>2026-04-26T08:47:20.411Z</time></trkpt><trkpt lat="42.3861349" lon="13.7525154"><ele>1439.6666666666667</ele><time>2026-04-26T08:47:21.437Z</time></trkpt><trkpt lat="42.3862455" lon="13.752389"><ele>1437.0</ele><time>2026-04-26T08:47:22.415Z</time></trkpt><trkpt lat="42.3863588" lon="13.7522649"><ele>1437.0</ele><time>2026-04-26T08:47:23.432Z</time></trkpt><trkpt lat="42.3864524" lon="13.752138"><ele>1437.0</ele><time>2026-04-26T08:47:24.437Z</time></trkpt><trkpt lat="42.386529" lon="13.7519873"><ele>1437.0</ele><time>2026-04-26T08:47:25.431Z</time></trkpt><trkpt lat="42.3866001" lon="13.7517921"><ele>1437.0</ele><time>2026-04-26T08:47:26.432Z</time></trkpt><trkpt lat="42.3866746" lon="13.7515731"><ele>1439.3333333333333</ele><time>2026-04-26T08:47:27.438Z</time></trkpt><trkpt lat="42.3867517" lon="13.7513513"><ele>1441.6666666666665</ele><time>2026-04-26T08:47:28.434Z</time></trkpt><trkpt lat="42.3868221" lon="13.7511374"><ele>1444.0</ele><time>2026-04-26T08:47:29.423Z</time></trkpt><trkpt lat="42.3868889" lon="13.7509317"><ele>1446.6666666666665</ele><time>2026-04-26T08:47:30.421Z</time></trkpt><trkpt lat="42.3869518" lon="13.7507343"><ele>1449.3333333333333</ele><time>2026-04-26T08:47:31.423Z</time></trkpt><trkpt lat="42.3870129" lon="13.7505454"><ele>1452.0</ele><time>2026-04-26T08:47:32.442Z</time></trkpt><trkpt lat="42.3870732" lon="13.7503705"><ele>1452.0</ele><time>2026-04-26T08:47:33.44Z</time></trkpt><trkpt lat="42.3871411" lon="13.750223"><ele>1452.0</ele><time>2026-04-26T08:47:34.423Z</time></trkpt><trkpt lat="42.3872232" lon="13.7501096"><ele>1452.0</ele><time>2026-04-26T08:47:35.43Z</time></trkpt><trkpt lat="42.3873205" lon="13.7500307"><ele>1452.0</ele><time>2026-04-26T08:47:36.428Z</time></trkpt><trkpt lat="42.3874395" lon="13.7499824"><ele>1450.5</ele><time>2026-04-26T08:47:37.485Z</time></trkpt><trkpt lat="42.3875461" lon="13.7499755"><ele>1449.0</ele><time>2026-04-26T08:47:38.452Z</time></trkpt><trkpt lat="42.3876544" lon="13.7500197"><ele>1447.5</ele><time>2026-04-26T08:47:39.437Z</time></trkpt><trkpt lat="42.387778" lon="13.7501252"><ele>1446.0</ele><time>2026-04-26T08:47:40.463Z</time></trkpt><trkpt lat="42.3878755" lon="13.7502433"><ele>1445.6666666666667</ele><time>2026-04-26T08:47:41.43Z</time></trkpt><trkpt lat="42.3879731" lon="13.7504023"><ele>1445.3333333333335</ele><time>2026-04-26T08:47:42.462Z</time></trkpt><trkpt lat="42.3880619" lon="13.7505754"><ele>1445.0</ele><time>2026-04-26T08:47:43.457Z</time></trkpt><trkpt lat="42.3881667" lon="13.7507808"><ele>1443.0</ele><time>2026-04-26T08:47:44.549Z</time></trkpt><trkpt lat="42.3883573" lon="13.7511323"><ele>1441.0</ele><time>2026-04-26T08:47:46.425Z</time></trkpt><trkpt lat="42.3884707" lon="13.7513575"><ele>1441.0</ele><time>2026-04-26T08:47:47.551Z</time></trkpt><trkpt lat="42.3885706" lon="13.7515479"><ele>1441.0</ele><time>2026-04-26T08:47:48.489Z</time></trkpt><trkpt lat="42.3886787" lon="13.7517424"><ele>1441.0</ele><time>2026-04-26T08:47:49.444Z</time></trkpt><trkpt lat="42.3887944" lon="13.7519427"><ele>1442.0</ele><time>2026-04-26T08:47:50.448Z</time></trkpt><trkpt lat="42.3889093" lon="13.752145"><ele>1443.0</ele><time>2026-04-26T08:47:51.476Z</time></trkpt><trkpt lat="42.3890123" lon="13.7523394"><ele>1444.0</ele><time>2026-04-26T08:47:52.467Z</time></trkpt><trkpt lat="42.3891233" lon="13.7525509"><ele>1443.0</ele><time>2026-04-26T08:47:53.563Z</time></trkpt><trkpt lat="42.389213" lon="13.7527166"><ele>1442.0</ele><time>2026-04-26T08:47:54.462Z</time></trkpt><trkpt lat="42.3893138" lon="13.7529028"><ele>1441.0</ele><time>2026-04-26T08:47:55.469Z</time></trkpt><trkpt lat="42.3894025" lon="13.753068"><ele>1441.0</ele><time>2026-04-26T08:47:56.437Z</time></trkpt><trkpt lat="42.3894922" lon="13.7532332"><ele>1441.0</ele><time>2026-04-26T08:47:57.473Z</time></trkpt><trkpt lat="42.3895703" lon="13.7533821"><ele>1441.0</ele><time>2026-04-26T08:47:58.488Z</time></trkpt><trkpt lat="42.3896441" lon="13.7535168"><ele>1441.0</ele><time>2026-04-26T08:47:59.454Z</time></trkpt><trkpt lat="42.389717" lon="13.7536228"><ele>1441.75</ele><time>2026-04-26T08:48:00.469Z</time></trkpt><trkpt lat="42.3898226" lon="13.7537264"><ele>1442.5</ele><time>2026-04-26T08:48:01.492Z</time></trkpt><trkpt lat="42.3899505" lon="13.7538026"><ele>1443.25</ele><time>2026-04-26T08:48:02.513Z</time></trkpt><trkpt lat="42.3900977" lon="13.7538377"><ele>1444.0</ele><time>2026-04-26T08:48:03.555Z</time></trkpt><trkpt lat="42.3902395" lon="13.7538423"><ele>1444.0</ele><time>2026-04-26T08:48:04.478Z</time></trkpt><trkpt lat="42.3904617" lon="13.7537939"><ele>1444.0</ele><time>2026-04-26T08:48:05.607Z</time></trkpt><trkpt lat="42.3908768" lon="13.7536812"><ele>1444.6666666666665</ele><time>2026-04-26T08:48:07.468Z</time></trkpt><trkpt lat="42.3910791" lon="13.7536254"><ele>1445.3333333333333</ele><time>2026-04-26T08:48:08.513Z</time></trkpt><trkpt lat="42.3912538" lon="13.753566"><ele>1446.0</ele><time>2026-04-26T08:48:09.448Z</time></trkpt><trkpt lat="42.3914642" lon="13.7534609"><ele>1446.5</ele><time>2026-04-26T08:48:10.581Z</time></trkpt><trkpt lat="42.3916399" lon="13.7533303"><ele>1447.0</ele><time>2026-04-26T08:48:11.587Z</time></trkpt><trkpt lat="42.3919205" lon="13.7530825"><ele>1447.0</ele><time>2026-04-26T08:48:13.464Z</time></trkpt><trkpt lat="42.3920551" lon="13.7529772"><ele>1447.0</ele><time>2026-04-26T08:48:14.439Z</time></trkpt><trkpt lat="42.39219" lon="13.7528906"><ele>1447.0</ele><time>2026-04-26T08:48:15.423Z</time></trkpt><trkpt lat="42.3923344" lon="13.7528351"><ele>1445.75</ele><time>2026-04-26T08:48:16.481Z</time></trkpt><trkpt lat="42.392456" lon="13.7528192"><ele>1444.5</ele><time>2026-04-26T08:48:17.437Z</time></trkpt><trkpt lat="42.3926087" lon="13.752845"><ele>1443.25</ele><time>2026-04-26T08:48:18.467Z</time></trkpt><trkpt lat="42.3927443" lon="13.7529235"><ele>1442.0</ele><time>2026-04-26T08:48:19.427Z</time></trkpt><trkpt lat="42.3928926" lon="13.7530247"><ele>1443.3333333333335</ele><time>2026-04-26T08:48:20.465Z</time></trkpt><trkpt lat="42.3930543" lon="13.7531157"><ele>1444.6666666666667</ele><time>2026-04-26T08:48:21.519Z</time></trkpt><trkpt lat="42.3931847" lon="13.7531829"><ele>1446.0</ele><time>2026-04-26T08:48:22.426Z</time></trkpt><trkpt lat="42.3933242" lon="13.753254"><ele>1446.0</ele><time>2026-04-26T08:48:23.437Z</time></trkpt><trkpt lat="42.3934576" lon="13.7533243"><ele>1446.0</ele><time>2026-04-26T08:48:24.464Z</time></trkpt><trkpt lat="42.3935801" lon="13.7533928"><ele>1446.0</ele><time>2026-04-26T08:48:25.474Z</time></trkpt><trkpt lat="42.3936944" lon="13.7534632"><ele>1446.0</ele><time>2026-04-26T08:48:26.498Z</time></trkpt><trkpt lat="42.3937862" lon="13.7535338"><ele>1446.6</ele><time>2026-04-26T08:48:27.448Z</time></trkpt><trkpt lat="42.393857" lon="13.7536284"><ele>1447.1999999999998</ele><time>2026-04-26T08:48:28.456Z</time></trkpt><trkpt lat="42.3939114" lon="13.7537345"><ele>1447.8000000000002</ele><time>2026-04-26T08:48:29.487Z</time></trkpt><trkpt lat="42.3939198" lon="13.7538298"><ele>1448.4</ele><time>2026-04-26T08:48:30.427Z</time></trkpt><trkpt lat="42.3938837" lon="13.7539768"><ele>1449.0</ele><time>2026-04-26T08:48:31.48Z</time></trkpt><trkpt lat="42.3937714" lon="13.7541926"><ele>1450.3333333333333</ele><time>2026-04-26T08:48:32.46Z</time></trkpt><trkpt lat="42.3936768" lon="13.7543799"><ele>1451.6666666666665</ele><time>2026-04-26T08:48:33.45Z</time></trkpt><trkpt lat="42.3935688" lon="13.7546004"><ele>1453.0</ele><time>2026-04-26T08:48:34.45Z</time></trkpt><trkpt lat="42.3934498" lon="13.7548386"><ele>1453.0</ele><time>2026-04-26T08:48:35.457Z</time></trkpt><trkpt lat="42.3933454" lon="13.7550415"><ele>1453.0</ele><time>2026-04-26T08:48:36.44Z</time></trkpt><trkpt lat="42.3932344" lon="13.7552496"><ele>1453.0</ele><time>2026-04-26T08:48:37.562Z</time></trkpt><trkpt lat="42.3931466" lon="13.7554109"><ele>1451.3333333333333</ele><time>2026-04-26T08:48:38.527Z</time></trkpt><trkpt lat="42.3929989" lon="13.7557211"><ele>1449.6666666666667</ele><time>2026-04-26T08:48:40.445Z</time></trkpt><trkpt lat="42.3929317" lon="13.7558989"><ele>1448.0</ele><time>2026-04-26T08:48:41.475Z</time></trkpt><trkpt lat="42.3928847" lon="13.7560626"><ele>1448.0</ele><time>2026-04-26T08:48:42.436Z</time></trkpt><trkpt lat="42.3928412" lon="13.7562384"><ele>1448.0</ele><time>2026-04-26T08:48:43.464Z</time></trkpt><trkpt lat="42.3928071" lon="13.7564049"><ele>1448.0</ele><time>2026-04-26T08:48:44.488Z</time></trkpt><trkpt lat="42.3927883" lon="13.7565488"><ele>1448.0</ele><time>2026-04-26T08:48:45.435Z</time></trkpt><trkpt lat="42.392783" lon="13.7566912"><ele>1448.0</ele><time>2026-04-26T08:48:46.437Z</time></trkpt><trkpt lat="42.3928014" lon="13.7568187"><ele>1448.0</ele><time>2026-04-26T08:48:47.461Z</time></trkpt><trkpt lat="42.3928323" lon="13.7569259"><ele>1448.0</ele><time>2026-04-26T08:48:48.457Z</time></trkpt><trkpt lat="42.3928875" lon="13.757038"><ele>1448.0</ele><time>2026-04-26T08:48:49.449Z</time></trkpt><trkpt lat="42.3929679" lon="13.7571062"><ele>1448.0</ele><time>2026-04-26T08:48:50.471Z</time></trkpt><trkpt lat="42.3930925" lon="13.7571168"><ele>1453.5</ele><time>2026-04-26T08:48:51.444Z</time></trkpt><trkpt lat="42.3932556" lon="13.7570673"><ele>1459.0</ele><time>2026-04-26T08:48:52.631Z</time></trkpt><trkpt lat="42.3935194" lon="13.7568577"><ele>1459.0</ele><time>2026-04-26T08:48:54.439Z</time></trkpt><trkpt lat="42.3936736" lon="13.7566558"><ele>1459.0</ele><time>2026-04-26T08:48:55.445Z</time></trkpt><trkpt lat="42.3938596" lon="13.7564671"><ele>1459.0</ele><time>2026-04-26T08:48:56.644Z</time></trkpt><trkpt lat="42.3940939" lon="13.7562668"><ele>1460.6666666666665</ele><time>2026-04-26T08:48:58.458Z</time></trkpt><trkpt lat="42.394236" lon="13.7562037"><ele>1462.3333333333333</ele><time>2026-04-26T08:48:59.436Z</time></trkpt><trkpt lat="42.3943833" lon="13.7561874"><ele>1464.0</ele><time>2026-04-26T08:49:00.435Z</time></trkpt><trkpt lat="42.3945614" lon="13.756224"><ele>1465.3333333333333</ele><time>2026-04-26T08:49:01.462Z</time></trkpt><trkpt lat="42.3947921" lon="13.7563398"><ele>1466.6666666666665</ele><time>2026-04-26T08:49:02.464Z</time></trkpt><trkpt lat="42.394983" lon="13.7564319"><ele>1468.0</ele><time>2026-04-26T08:49:03.44Z</time></trkpt><trkpt lat="42.3951761" lon="13.7565164"><ele>1468.0</ele><time>2026-04-26T08:49:04.499Z</time></trkpt><trkpt lat="42.3953494" lon="13.7565705"><ele>1468.0</ele><time>2026-04-26T08:49:05.433Z</time></trkpt><trkpt lat="42.3955593" lon="13.7566125"><ele>1468.0</ele><time>2026-04-26T08:49:06.499Z</time></trkpt><trkpt lat="42.3958015" lon="13.7566136"><ele>1468.0</ele><time>2026-04-26T08:49:07.574Z</time></trkpt><trkpt lat="42.3962104" lon="13.7565421"><ele>1468.0</ele><time>2026-04-26T08:49:09.441Z</time></trkpt><trkpt lat="42.3964016" lon="13.7565142"><ele>1468.3333333333333</ele><time>2026-04-26T08:49:10.468Z</time></trkpt><trkpt lat="42.3965695" lon="13.7564845"><ele>1468.6666666666667</ele><time>2026-04-26T08:49:11.441Z</time></trkpt><trkpt lat="42.396734" lon="13.756457"><ele>1469.0</ele><time>2026-04-26T08:49:12.471Z</time></trkpt><trkpt lat="42.396884" lon="13.756435"><ele>1469.0</ele><time>2026-04-26T08:49:13.475Z</time></trkpt><trkpt lat="42.3970269" lon="13.7564153"><ele>1469.0</ele><time>2026-04-26T08:49:14.492Z</time></trkpt><trkpt lat="42.3971556" lon="13.7563993"><ele>1469.0</ele><time>2026-04-26T08:49:15.472Z</time></trkpt><trkpt lat="42.3972778" lon="13.7563832"><ele>1469.0</ele><time>2026-04-26T08:49:16.466Z</time></trkpt><trkpt lat="42.3973899" lon="13.7563689"><ele>1469.75</ele><time>2026-04-26T08:49:17.435Z</time></trkpt><trkpt lat="42.3975084" lon="13.7563523"><ele>1470.5</ele><time>2026-04-26T08:49:18.445Z</time></trkpt><trkpt lat="42.3976266" lon="13.7563339"><ele>1471.25</ele><time>2026-04-26T08:49:19.416Z</time></trkpt><trkpt lat="42.3977544" lon="13.7563097"><ele>1472.0</ele><time>2026-04-26T08:49:20.449Z</time></trkpt><trkpt lat="42.3978778" lon="13.7562787"><ele>1472.0</ele><time>2026-04-26T08:49:21.45Z</time></trkpt><trkpt lat="42.3979969" lon="13.7562389"><ele>1472.0</ele><time>2026-04-26T08:49:22.432Z</time></trkpt><trkpt lat="42.3981169" lon="13.7561752"><ele>1472.0</ele><time>2026-04-26T08:49:23.467Z</time></trkpt><trkpt lat="42.3982192" lon="13.7560928"><ele>1472.0</ele><time>2026-04-26T08:49:24.426Z</time></trkpt><trkpt lat="42.3983266" lon="13.7559757"><ele>1472.3333333333335</ele><time>2026-04-26T08:49:25.572Z</time></trkpt><trkpt lat="42.3984845" lon="13.7557464"><ele>1472.6666666666667</ele><time>2026-04-26T08:49:27.471Z</time></trkpt><trkpt lat="42.3985702" lon="13.7556129"><ele>1473.0</ele><time>2026-04-26T08:49:28.558Z</time></trkpt><trkpt lat="42.3986965" lon="13.7554174"><ele>1473.0</ele><time>2026-04-26T08:49:30.48Z</time></trkpt><trkpt lat="42.3987494" lon="13.7553352"><ele>1473.0</ele><time>2026-04-26T08:49:31.448Z</time></trkpt><trkpt lat="42.3987971" lon="13.7552589"><ele>1473.0</ele><time>2026-04-26T08:49:32.472Z</time></trkpt><trkpt lat="42.3988798" lon="13.7551408"><ele>1473.0</ele><time>2026-04-26T08:49:34.445Z</time></trkpt><trkpt lat="42.398955" lon="13.7550266"><ele>1473.0</ele><time>2026-04-26T08:49:36.45Z</time></trkpt><trkpt lat="42.3990274" lon="13.7549003"><ele>1474.0</ele><time>2026-04-26T08:49:38.479Z</time></trkpt><trkpt lat="42.399075" lon="13.7548262"><ele>1475.0</ele><time>2026-04-26T08:49:39.445Z</time></trkpt><trkpt lat="42.3991336" lon="13.7547305"><ele>1476.0</ele><time>2026-04-26T08:49:40.473Z</time></trkpt><trkpt lat="42.3991962" lon="13.7546277"><ele>1477.0</ele><time>2026-04-26T08:49:41.454Z</time></trkpt><trkpt lat="42.3992673" lon="13.75451"><ele>1478.0</ele><time>2026-04-26T08:49:42.505Z</time></trkpt><trkpt lat="42.3993374" lon="13.7543962"><ele>1478.5</ele><time>2026-04-26T08:49:43.476Z</time></trkpt><trkpt lat="42.3994111" lon="13.7542758"><ele>1479.0</ele><time>2026-04-26T08:49:44.481Z</time></trkpt><trkpt lat="42.3994859" lon="13.7541539"><ele>1479.5</ele><time>2026-04-26T08:49:45.474Z</time></trkpt><trkpt lat="42.3995651" lon="13.7540281"><ele>1480.0</ele><time>2026-04-26T08:49:46.496Z</time></trkpt><trkpt lat="42.3996366" lon="13.7539154"><ele>1480.5</ele><time>2026-04-26T08:49:47.473Z</time></trkpt><trkpt lat="42.3997109" lon="13.7537923"><ele>1481.0</ele><time>2026-04-26T08:49:48.486Z</time></trkpt><trkpt lat="42.3997822" lon="13.7536765"><ele>1481.5</ele><time>2026-04-26T08:49:49.444Z</time></trkpt><trkpt lat="42.3998591" lon="13.7535499"><ele>1482.0</ele><time>2026-04-26T08:49:50.453Z</time></trkpt><trkpt lat="42.3999415" lon="13.7534147"><ele>1482.25</ele><time>2026-04-26T08:49:51.496Z</time></trkpt><trkpt lat="42.4000151" lon="13.7532908"><ele>1482.5</ele><time>2026-04-26T08:49:52.445Z</time></trkpt><trkpt lat="42.4000941" lon="13.7531573"><ele>1482.75</ele><time>2026-04-26T08:49:53.502Z</time></trkpt><trkpt lat="42.4001817" lon="13.7530117"><ele>1483.0</ele><time>2026-04-26T08:49:54.664Z</time></trkpt><trkpt lat="42.4003303" lon="13.7527734"><ele>1483.25</ele><time>2026-04-26T08:49:56.538Z</time></trkpt><trkpt lat="42.4004018" lon="13.7526581"><ele>1483.5</ele><time>2026-04-26T08:49:57.446Z</time></trkpt><trkpt lat="42.4004794" lon="13.7525279"><ele>1483.75</ele><time>2026-04-26T08:49:58.438Z</time></trkpt><trkpt lat="42.4005576" lon="13.752392"><ele>1484.0</ele><time>2026-04-26T08:49:59.464Z</time></trkpt><trkpt lat="42.4006266" lon="13.752257"><ele>1484.6666666666667</ele><time>2026-04-26T08:50:00.438Z</time></trkpt><trkpt lat="42.400685" lon="13.7520995"><ele>1485.3333333333333</ele><time>2026-04-26T08:50:01.48Z</time></trkpt><trkpt lat="42.4007228" lon="13.7519117"><ele>1486.0</ele><time>2026-04-26T08:50:02.623Z</time></trkpt><trkpt lat="42.4007332" lon="13.7516044"><ele>1486.5</ele><time>2026-04-26T08:50:04.461Z</time></trkpt><trkpt lat="42.4007264" lon="13.7514357"><ele>1487.0</ele><time>2026-04-26T08:50:05.446Z</time></trkpt><trkpt lat="42.4007166" lon="13.7512677"><ele>1487.5</ele><time>2026-04-26T08:50:06.438Z</time></trkpt><trkpt lat="42.4007042" lon="13.7510919"><ele>1488.0</ele><time>2026-04-26T08:50:07.484Z</time></trkpt><trkpt lat="42.4006912" lon="13.750931"><ele>1488.25</ele><time>2026-04-26T08:50:08.454Z</time></trkpt><trkpt lat="42.4006757" lon="13.7507488"><ele>1488.5</ele><time>2026-04-26T08:50:09.545Z</time></trkpt><trkpt lat="42.400664" lon="13.7505982"><ele>1488.75</ele><time>2026-04-26T08:50:10.45Z</time></trkpt><trkpt lat="42.4006498" lon="13.7504248"><ele>1489.0</ele><time>2026-04-26T08:50:11.472Z</time></trkpt><trkpt lat="42.4006383" lon="13.7502582"><ele>1488.6666666666665</ele><time>2026-04-26T08:50:12.472Z</time></trkpt><trkpt lat="42.4006265" lon="13.7500882"><ele>1488.3333333333333</ele><time>2026-04-26T08:50:13.492Z</time></trkpt><trkpt lat="42.4006155" lon="13.7499076"><ele>1488.0</ele><time>2026-04-26T08:50:14.571Z</time></trkpt><trkpt lat="42.4005949" lon="13.7495923"><ele>1488.0</ele><time>2026-04-26T08:50:16.451Z</time></trkpt><trkpt lat="42.4005835" lon="13.749423"><ele>1488.0</ele><time>2026-04-26T08:50:17.455Z</time></trkpt><trkpt lat="42.4005717" lon="13.7492543"><ele>1488.0</ele><time>2026-04-26T08:50:18.454Z</time></trkpt><trkpt lat="42.4005593" lon="13.7490858"><ele>1488.0</ele><time>2026-04-26T08:50:19.457Z</time></trkpt><trkpt lat="42.4005458" lon="13.7489099"><ele>1488.5</ele><time>2026-04-26T08:50:20.502Z</time></trkpt><trkpt lat="42.4005353" lon="13.7487453"><ele>1489.0</ele><time>2026-04-26T08:50:21.482Z</time></trkpt><trkpt lat="42.4005267" lon="13.7485759"><ele>1489.5</ele><time>2026-04-26T08:50:22.487Z</time></trkpt><trkpt lat="42.4005206" lon="13.7484115"><ele>1490.0</ele><time>2026-04-26T08:50:23.467Z</time></trkpt><trkpt lat="42.4005145" lon="13.7482415"><ele>1490.25</ele><time>2026-04-26T08:50:24.478Z</time></trkpt><trkpt lat="42.4005073" lon="13.7480715"><ele>1490.5</ele><time>2026-04-26T08:50:25.479Z</time></trkpt><trkpt lat="42.4005056" lon="13.7479083"><ele>1490.75</ele><time>2026-04-26T08:50:26.433Z</time></trkpt><trkpt lat="42.4005126" lon="13.7477368"><ele>1491.0</ele><time>2026-04-26T08:50:27.441Z</time></trkpt><trkpt lat="42.4005333" lon="13.7475653"><ele>1491.0</ele><time>2026-04-26T08:50:28.475Z</time></trkpt><trkpt lat="42.4005672" lon="13.7474092"><ele>1491.0</ele><time>2026-04-26T08:50:29.444Z</time></trkpt><trkpt lat="42.4006109" lon="13.7472362"><ele>1491.0</ele><time>2026-04-26T08:50:30.513Z</time></trkpt><trkpt lat="42.400647" lon="13.7470827"><ele>1491.0</ele><time>2026-04-26T08:50:31.463Z</time></trkpt><trkpt lat="42.4006846" lon="13.7469178"><ele>1491.25</ele><time>2026-04-26T08:50:32.49Z</time></trkpt><trkpt lat="42.4007211" lon="13.7467634"><ele>1491.5</ele><time>2026-04-26T08:50:33.456Z</time></trkpt><trkpt lat="42.4007617" lon="13.7465919"><ele>1491.75</ele><time>2026-04-26T08:50:34.522Z</time></trkpt><trkpt lat="42.4007971" lon="13.7464347"><ele>1492.0</ele><time>2026-04-26T08:50:35.489Z</time></trkpt><trkpt lat="42.4008286" lon="13.7462732"><ele>1492.0</ele><time>2026-04-26T08:50:36.469Z</time></trkpt><trkpt lat="42.4008604" lon="13.7461135"><ele>1492.0</ele><time>2026-04-26T08:50:37.459Z</time></trkpt><trkpt lat="42.4008963" lon="13.7459416"><ele>1492.0</ele><time>2026-04-26T08:50:38.523Z</time></trkpt><trkpt lat="42.4009328" lon="13.7457785"><ele>1492.0</ele><time>2026-04-26T08:50:39.526Z</time></trkpt><trkpt lat="42.4009705" lon="13.7456136"><ele>1491.3999999999999</ele><time>2026-04-26T08:50:40.54Z</time></trkpt><trkpt lat="42.4010055" lon="13.7454595"><ele>1490.8</ele><time>2026-04-26T08:50:41.517Z</time></trkpt><trkpt lat="42.4010449" lon="13.7453202"><ele>1490.2</ele><time>2026-04-26T08:50:42.477Z</time></trkpt><trkpt lat="42.4010999" lon="13.7452026"><ele>1489.6</ele><time>2026-04-26T08:50:43.431Z</time></trkpt><trkpt lat="42.401179" lon="13.7451028"><ele>1489.0</ele><time>2026-04-26T08:50:44.477Z</time></trkpt><trkpt lat="42.4012738" lon="13.7450299"><ele>1489.75</ele><time>2026-04-26T08:50:45.465Z</time></trkpt><trkpt lat="42.4013793" lon="13.7449608"><ele>1490.5</ele><time>2026-04-26T08:50:46.439Z</time></trkpt><trkpt lat="42.4014994" lon="13.7448891"><ele>1491.25</ele><time>2026-04-26T08:50:47.478Z</time></trkpt><trkpt lat="42.4016254" lon="13.744816"><ele>1492.0</ele><time>2026-04-26T08:50:48.531Z</time></trkpt><trkpt lat="42.4017333" lon="13.7447571"><ele>1492.0</ele><time>2026-04-26T08:50:49.455Z</time></trkpt><trkpt lat="42.4018477" lon="13.7446974"><ele>1492.0</ele><time>2026-04-26T08:50:50.425Z</time></trkpt><trkpt lat="42.401973" lon="13.7446296"><ele>1492.0</ele><time>2026-04-26T08:50:51.485Z</time></trkpt><trkpt lat="42.4020833" lon="13.7445669"><ele>1492.0</ele><time>2026-04-26T08:50:52.473Z</time></trkpt><trkpt lat="42.4021913" lon="13.7445122"><ele>1492.25</ele><time>2026-04-26T08:50:53.42Z</time></trkpt><trkpt lat="42.4023156" lon="13.7444481"><ele>1492.5</ele><time>2026-04-26T08:50:54.485Z</time></trkpt><trkpt lat="42.402432" lon="13.7443924"><ele>1492.75</ele><time>2026-04-26T08:50:55.473Z</time></trkpt><trkpt lat="42.4025481" lon="13.7443319"><ele>1493.0</ele><time>2026-04-26T08:50:56.474Z</time></trkpt><trkpt lat="42.4027368" lon="13.7442203"><ele>1493.25</ele><time>2026-04-26T08:50:58.141Z</time></trkpt><trkpt lat="42.4028503" lon="13.744157"><ele>1493.5</ele><time>2026-04-26T08:50:59.141Z</time></trkpt><trkpt lat="42.4029671" lon="13.7440912"><ele>1493.75</ele><time>2026-04-26T08:51:00.142Z</time></trkpt><trkpt lat="42.4030808" lon="13.7440235"><ele>1494.0</ele><time>2026-04-26T08:51:01.141Z</time></trkpt><trkpt lat="42.4031877" lon="13.7439651"><ele>1496.0</ele><time>2026-04-26T08:51:02.141Z</time></trkpt></trkseg></trk></gpx>